[[{"header":{"parameterUnit":"m.s-1","parameterCategory":1,"la1":31.0,"la2":29.5877,"lo1":-88.7671,"lo2":-86.6584,"dx":0.0162,"dy":0.0185,"nx":115,"ny":88,"refTime":"2022-11-09T18:00:00:Z","depth":0,"parameterNumber":2,"parameterNumberName":"U-component_of_WINDS"},"data":[0.0,0.0,0.0,0.0,0.0,0.0,0.0,0.0,0.0,0.0,0.0,0.0,0.0,0.0,0.0,0.0,0.0,0.0,0.0,0.0,0.0,0.0,0.0,0.0,0.0,0.0,0.0,0.0,0.0,0.0,0.0,0.0,0.0,0.0,0.0,0.0,0.0,0.0,0.0,0.0,0.0,0.0,0.0,0.0,0.0,0.0,0.0,0.0,0.0,0.0,0.0,0.0,0.0,0.0,0.0,0.0,0.0,0.0,0.0,0.0,0.0,0.0,0.0,0.0,0.0,0.0,0.0,0.0,0.0,0.0,0.0,0.0,0.0,0.0,0.0,0.0,0.0,0.0,0.0,0.0,0.0,0.0,0.0,0.0,0.0,0.0,0.0,0.0,0.0,0.0,0.0,0.0,0.0,0.0,0.0,0.0,0.0,0.0,0.0,0.0,0.0,0.0,0.0,0.0,0.0,0.0,0.0,0.0,0.0,0.0,0.0,0.0,0.0,0.0,0.0,0.0,0.0,0.0,0.0,0.0,0.0,0.0,0.0,0.0,0.0,0.0,0.0,0.0,0.0,0.0,0.0,0.0,0.0,0.0,0.0,0.0,0.0,0.0,0.0,0.0,0.0,0.0,0.0,0.0,0.0,0.0,0.0,0.0,0.0,0.0,0.0,0.0,0.0,0.0,0.0,0.0,0.0,0.0,0.0,0.0,0.0,0.0,0.0,0.0,0.0,0.0,0.0,0.0,0.0,0.0,0.0,0.0,0.0,0.0,0.0,0.0,0.0,0.0,0.0,0.0,0.0,0.0,0.0,0.0,0.0,0.0,0.0,0.0,0.0,0.0,0.0,0.0,0.0,0.0,0.0,0.0,0.0,0.0,0.0,0.0,0.0,0.0,0.0,0.0,0.0,0.0,0.0,0.0,0.0,0.0,0.0,0.0,0.0,0.0,0.0,0.0,0.0,0.0,0.0,0.0,0.0,0.0,0.0,0.0,0.0,0.0,0.0,0.0,0.0,0.0,0.0,0.0,0.0,0.0,0.0,0.0,0.0,0.0,0.0,0.0,0.0,0.0,0.0,0.0,0.0,0.0,0.0,0.0,0.0,0.0,0.0,0.0,0.0,0.0,0.0,0.0,0.0,0.0,0.0,0.0,0.0,0.0,0.0,0.0,0.0,0.0,0.0,0.0,0.0,0.0,0.0,0.0,0.0,0.0,0.0,0.0,0.0,0.0,0.0,0.0,0.0,0.0,0.0,0.0,0.0,0.0,0.0,0.0,0.0,0.0,0.0,0.0,0.0,0.0,0.0,0.0,0.0,0.0,0.0,0.0,0.0,0.0,0.0,0.0,0.0,0.0,0.0,0.0,0.0,0.0,0.0,0.0,0.0,0.0,0.0,0.0,0.0,0.0,0.0,0.0,0.0,0.0,0.0,0.0,0.0,0.0,0.0,0.0,0.0,0.0,0.0,0.0,0.0,0.0,0.0,0.0,0.0,0.0,0.0,0.0,0.0,0.0,0.0,0.0,0.0,0.0,0.0,0.0,0.0,0.0,0.0,0.0,0.0,0.0,0.0,0.0,0.0,0.0,0.0,0.0,0.0,0.0,0.0,0.0,0.0,0.0,0.0,0.0,0.0,0.0,0.0,0.0,0.0,0.0,0.0,0.0,0.0,0.0,0.0,0.0,0.0,0.0,0.0,0.0,0.0,0.0,0.0,0.0,0.0,0.0,0.0,0.0,0.0,0.0,0.0,0.0,0.0,0.0,0.0,0.0,0.0,0.0,0.0,0.0,0.0,0.0,0.0,0.0,0.0,0.0,0.0,0.0,0.0,0.0,0.0,0.0,0.0,0.0,0.0,0.0,0.0,0.0,0.0,0.0,0.0,0.0,0.0,0.0,0.0,0.0,0.0,0.0,0.0,0.0,0.0,0.0,0.0,0.0,0.0,0.0,0.0,0.0,0.0,0.0,0.0,0.0,0.0,0.0,0.0,0.0,0.0,0.0,0.0,0.0,0.0,0.0,0.0,0.0,0.0,0.0,0.0,0.0,0.0,0.0,0.0,0.0,0.0,0.0,0.0,0.0,0.0,0.0,0.0,0.0,0.0,0.0,0.0,0.0,0.0,0.0,0.0,0.0,0.0,0.0,0.0,0.0,0.0,0.0,0.0,0.0,0.0,0.0,0.0,0.0,0.0,0.0,0.0,0.0,0.0,0.0,0.0,0.0,0.0,0.0,0.0,0.0,0.0,0.0,0.0,0.0,0.0,0.0,0.0,0.0,0.0,0.0,0.0,0.0,0.0,0.0,0.0,0.0,0.0,0.0,0.0,0.0,0.0,0.0,0.0,0.0,0.0,0.0,0.0,0.0,0.0,0.0,0.0,0.0,0.0,0.0,0.0,0.0,0.0,0.0,0.0,0.0,0.0,0.0,0.0,0.0,0.0,0.0,0.0,0.0,0.0,0.0,0.0,0.0,0.0,0.0,0.0,0.0,0.0,0.0,0.0,0.0,0.0,0.0,0.0,0.0,0.0,0.0,0.0,0.0,0.0,0.0,0.0,0.0,0.0,0.0,0.0,0.0,0.0,0.0,0.0,0.0,0.0,0.0,0.0,0.0,0.0,0.0,0.0,0.0,0.0,0.0,0.0,0.0,0.0,0.0,0.0,0.0,0.0,0.0,0.0,0.0,0.0,0.0,0.0,0.0,0.0,0.0,0.0,0.0,0.0,0.0,0.0,0.0,0.0,0.0,0.0,0.0,0.0,0.0,0.0,0.0,0.0,0.0,0.0,0.0,0.0,0.0,0.0,0.0,0.0,0.0,0.0,0.0,0.0,0.0,0.0,0.0,0.0,0.0,0.0,0.0,0.0,0.0,0.0,0.0,0.0,0.0,0.0,0.0,0.0,0.0,0.0,0.0,0.0,0.0,0.0,0.0,0.0,0.0,0.0,0.0,0.0,0.0,0.0,0.0,0.0,0.0,0.0,0.0,0.0,0.0,0.0,0.0,0.0,0.0,0.0,0.0,0.0,0.0,0.0,0.0,0.0,0.0,0.0,0.0,0.0,0.0,0.0,0.0,0.0,0.0,0.0,0.0,0.0,0.0,0.0,0.0,0.0,0.0,0.0,0.0,0.0,0.0,0.0,0.0,0.0,0.0,0.0,0.0,0.0,0.0,0.0,0.0,0.0,0.0,0.0,0.0,0.0,0.0,0.0,0.0,0.0,0.0,0.0,0.0,0.0,0.0,0.0,0.0,0.0,0.0,0.0,0.0,0.0,0.0,0.0,0.0,0.0,0.0,0.0,0.0,0.0,0.0,0.0,0.0,0.0,0.0,0.0,0.0,0.0,0.0,0.0,0.0,0.0,0.0,0.0,0.0,0.0,0.0,0.0,0.0,0.0,0.0,0.0,0.0,0.0,0.0,0.0,0.0,0.0,0.0,0.0,0.0,0.0,0.0,0.0,0.0,0.0,0.0,0.0,0.0,0.0,0.0,0.0,0.0,0.0,0.0,0.0,0.0,0.0,0.0,0.0,0.0,0.0,0.0,0.0,0.0,0.0,0.0,0.0,0.0,0.0,0.0,0.0,0.0,0.0,0.0,0.0,0.0,0.0,0.0,0.0,0.0,0.0,0.0,0.0,0.0,0.0,0.0,0.0,0.0,0.0,0.0,0.0,0.0,0.0,0.0,0.0,0.0,0.0,0.0,0.0,0.0,0.0,0.0,0.0,0.0,0.0,0.0,0.0,0.0,0.0,0.0,0.0,0.0,0.0,0.0,0.0,0.0,0.0,0.0,0.0,0.0,0.0,0.0,0.0,0.0,0.0,0.0,0.0,0.0,0.0,0.0,0.0,0.0,0.0,0.0,0.0,0.0,0.0,0.0,0.0,0.0,0.0,0.0,0.0,0.0,0.0,0.0,0.0,0.0,0.0,0.0,0.0,0.0,0.0,0.0,0.0,0.0,0.0,0.0,0.0,0.0,0.0,0.0,0.0,0.0,0.0,0.0,0.0,0.0,0.0,0.0,0.0,0.0,0.0,0.0,0.0,0.0,0.0,0.0,0.0,0.0,0.0,0.0,0.0,0.0,0.0,0.0,0.0,0.0,0.0,0.0,0.0,0.0,0.0,0.0,0.0,0.0,0.0,0.0,0.0,0.0,0.0,0.0,0.0,0.0,0.0,0.0,0.0,0.0,0.0,0.0,0.0,0.0,0.0,0.0,0.0,0.0,0.0,0.0,0.0,0.0,0.0,0.0,0.0,0.0,1.0586,0.0,0.0,0.0,1.0586,0.0,0.0,0.0,0.0,0.0,0.0,0.0,0.0,0.0,0.0,0.0,0.0,0.0,0.0,0.0,0.0,0.0,0.0,0.0,0.0,0.0,0.0,0.0,0.0,0.0,0.0,0.0,0.0,0.0,0.0,0.0,0.0,0.0,0.0,0.0,0.0,0.0,0.0,0.0,0.0,0.0,0.0,0.0,0.0,0.0,0.0,0.0,0.0,0.0,0.0,0.0,0.0,0.0,0.0,0.0,0.0,0.0,0.0,0.0,0.0,0.0,0.0,0.0,0.0,0.0,0.0,0.0,0.0,0.0,0.0,0.0,0.0,0.0,0.0,0.0,0.0,0.0,0.0,0.0,0.0,0.0,0.0,0.0,0.0,0.0,0.0,0.0,0.0,0.0,0.0,0.0,0.0,0.0,0.0,0.0,0.0,0.0,0.0,0.0,0.0,0.0,0.0,0.0,0.0,0.0,0.0,0.0,0.0,0.0,0.0,1.0586,1.0586,1.0586,1.0552,1.0444,0.0,0.0,0.0,0.0,0.0,0.0,0.0,0.0,0.0,0.0,0.0,0.0,0.0,0.0,0.0,0.0,0.0,0.0,0.0,0.0,0.0,0.0,0.0,0.0,0.0,0.0,0.0,0.0,0.0,0.0,0.0,0.0,0.0,0.0,0.0,0.0,0.0,0.0,0.0,0.0,0.0,0.0,0.0,0.0,0.0,0.0,0.0,0.0,0.0,0.0,0.0,0.0,0.0,0.0,0.0,0.0,0.0,0.0,0.0,0.0,0.0,0.0,0.0,0.0,0.0,0.0,0.0,0.0,0.0,0.0,0.0,0.0,0.0,0.0,0.0,0.0,0.0,0.0,0.0,0.0,0.0,0.0,0.0,0.0,0.0,0.0,0.0,0.0,0.0,0.0,0.0,0.0,0.0,0.0,0.0,0.0,0.0,0.0,0.0,0.0,0.0,0.0,0.0,0.0,0.0,0.0,0.0,0.0,0.0,0.0,0.0,0.0,1.0586,1.0507,1.0285,0.0,0.0,0.0,0.0,0.0,0.0,0.0,0.0,0.0,0.0,0.0,0.0,0.0,0.0,0.0,0.0,0.0,0.0,0.0,0.0,0.0,0.0,0.0,0.0,0.0,0.0,0.0,0.0,0.0,0.0,0.0,0.0,0.0,0.0,0.0,0.0,0.0,0.0,0.0,0.0,0.0,0.0,0.0,0.0,0.0,0.0,0.0,0.0,0.0,0.0,0.0,0.0,0.0,0.0,0.0,0.0,0.0,0.0,0.0,0.0,0.0,0.0,0.0,0.0,0.0,0.0,0.0,0.0,0.0,0.0,0.0,0.0,0.0,0.0,0.0,0.0,0.0,0.0,0.0,0.0,0.0,0.0,0.0,0.0,0.0,0.0,0.0,0.0,0.0,0.0,0.0,0.0,0.0,0.0,0.0,0.0,0.0,0.0,0.0,0.0,0.0,0.0,0.0,0.0,0.0,0.0,0.0,0.0,0.0,0.0,1.0586,1.0586,1.0586,0.0,1.0301,0.0,0.0,0.0,0.0,0.0,0.0,0.0,0.0,0.0,0.0,0.0,0.0,0.0,0.0,0.0,0.0,0.0,0.0,0.0,0.0,0.0,0.0,0.0,0.0,0.0,0.0,0.0,0.0,0.0,0.0,0.0,0.0,0.0,0.0,0.0,0.0,0.0,0.0,0.0,0.0,0.0,0.0,0.0,0.0,0.0,0.0,0.0,0.0,0.0,0.0,0.0,0.0,0.0,0.0,0.0,0.0,0.0,0.0,0.0,0.0,0.0,0.0,0.0,0.0,0.0,0.0,0.0,0.0,0.0,0.0,0.0,0.0,0.0,0.0,0.0,0.0,0.0,0.0,0.0,0.0,0.0,0.0,0.0,0.0,0.0,0.0,0.0,0.0,0.0,0.0,0.0,0.0,0.0,0.0,0.0,0.0,0.0,0.0,0.0,0.0,0.0,0.0,0.0,0.0,0.0,0.0,0.0,0.0,0.0,0.0,1.0586,1.0586,1.0364,1.0206,0.0,0.0,0.0,0.0,0.0,0.0,0.0,0.0,0.0,0.0,0.0,0.0,0.0,0.0,0.0,0.0,0.0,0.0,0.0,0.0,0.0,0.0,0.0,0.0,0.0,0.0,0.0,0.0,0.0,0.0,0.0,0.0,0.0,0.0,0.0,0.0,0.0,0.0,0.0,0.0,0.0,0.0,0.0,0.0,0.0,0.0,0.0,0.0,0.0,0.0,0.0,0.0,0.0,0.0,0.0,0.0,0.0,0.0,0.0,0.0,0.0,0.0,0.0,0.0,0.0,0.0,0.0,0.0,0.0,0.0,0.0,0.0,0.0,0.0,0.0,0.0,0.0,0.0,0.0,0.0,0.0,0.0,0.0,0.0,0.0,0.0,0.0,0.0,0.0,0.0,0.0,0.0,0.0,0.0,0.0,0.0,0.0,0.0,0.0,0.0,0.0,0.0,0.0,0.0,0.0,0.0,0.0,0.0,0.0,0.0,1.0586,1.0568,1.0507,1.0174,0.9983,0.9948,0.0,0.0,0.0,0.0,0.0,0.0,0.0,0.0,0.0,0.0,0.0,0.0,0.0,0.0,0.0,0.0,0.0,0.0,0.0,0.0,0.0,0.0,0.0,0.0,0.0,0.0,0.0,0.0,0.0,0.0,0.0,0.0,0.0,0.0,0.0,0.0,0.0,0.0,0.0,0.0,0.0,0.0,0.0,0.0,0.0,0.0,0.0,0.0,0.0,0.0,0.0,0.0,0.0,0.0,0.0,0.0,0.0,0.0,0.0,0.0,0.0,0.0,0.0,0.0,0.0,0.0,0.0,0.0,0.0,0.0,0.0,0.0,0.0,0.0,0.0,0.0,0.0,0.0,0.0,0.0,0.0,0.0,0.0,0.0,0.0,0.0,0.0,0.0,0.0,0.0,0.0,0.0,0.0,0.0,0.0,0.0,0.0,0.0,0.0,0.0,0.0,0.0,0.0,0.0,0.0,0.0,0.0,0.0,1.06,1.06,1.0504,1.033,1.0107,0.9948,0.0,0.0,0.0,0.0,0.0,0.0,0.0,0.0,0.0,0.0,0.0,0.0,0.0,0.0,0.0,0.0,0.0,0.0,0.0,0.0,0.0,0.0,0.0,0.0,0.0,0.0,0.0,0.0,0.0,0.0,0.0,0.0,0.0,0.0,0.0,0.0,0.0,0.0,0.0,0.0,0.0,0.0,0.0,0.0,0.0,0.0,0.0,0.0,0.0,0.0,0.0,0.0,0.0,0.0,0.0,0.0,0.0,0.0,0.0,0.0,0.0,0.0,0.0,0.0,0.0,0.0,0.0,0.0,0.0,0.0,0.0,0.0,0.0,0.0,0.0,0.0,0.0,0.0,0.0,0.0,0.0,0.0,0.0,0.0,0.0,0.0,0.0,0.0,0.0,0.0,0.0,0.0,0.0,0.0,0.0,0.0,0.0,0.0,0.0,0.0,0.0,0.0,0.0,0.0,0.0,0.0,0.0,0.0,0.0,1.0902,1.0799,1.0608,1.0376,1.0216,1.0027,0.0,0.0,0.0,0.0,0.0,0.0,0.0,0.0,0.0,0.0,0.0,0.0,0.0,0.0,0.0,0.0,0.0,0.0,0.0,0.0,0.0,0.0,0.0,0.0,0.0,0.0,0.0,0.0,0.0,0.0,0.0,0.0,0.0,0.0,0.0,0.0,0.0,0.0,0.0,0.0,0.0,0.0,0.0,0.0,0.0,0.0,0.0,0.0,0.0,0.0,0.0,0.0,0.0,0.0,0.0,0.0,0.0,0.0,0.0,0.0,0.0,0.0,0.0,0.0,0.0,0.0,0.0,0.0,0.0,0.0,0.0,0.0,0.0,0.0,0.0,0.0,0.0,0.0,0.0,0.0,0.0,0.0,0.0,0.0,0.0,0.0,0.0,0.0,0.0,0.0,0.0,0.0,0.0,0.0,0.0,0.0,0.0,0.0,0.0,0.0,0.0,0.0,0.0,0.0,0.0,0.0,0.0,0.0,0.0,1.0981,1.0805,1.0596,1.0371,1.0219,1.0013,0.0,0.0,0.0,0.0,0.0,0.0,0.0,0.0,0.0,0.0,0.0,0.0,0.0,0.0,0.0,0.0,0.0,0.0,0.0,0.0,0.0,0.0,0.0,0.0,0.0,0.0,0.0,0.0,0.0,0.0,0.0,0.0,0.0,0.0,0.0,0.0,0.0,0.0,0.0,0.0,0.0,0.0,0.0,0.0,0.0,0.0,0.0,0.0,0.0,0.0,0.0,0.0,0.0,0.0,0.0,0.0,0.0,0.0,0.0,0.0,0.0,0.0,0.0,0.0,0.0,0.0,0.0,0.0,0.0,0.0,0.0,0.0,0.0,0.0,0.0,0.0,0.0,0.0,0.0,0.0,0.0,0.0,0.0,0.0,0.0,0.0,0.0,0.0,0.0,0.0,0.0,0.0,0.0,0.0,0.0,0.0,0.0,0.0,0.0,0.0,0.0,0.0,0.0,0.0,0.0,0.0,0.0,0.0,1.0791,1.0808,1.063,1.0458,1.0293,1.0113,0.9869,0.0,0.0,0.0,0.0,0.0,0.0,0.0,0.0,0.0,0.0,0.0,0.0,0.0,0.0,0.0,0.0,0.0,0.0,0.0,0.0,0.0,0.0,0.0,0.0,0.0,0.0,0.0,0.0,0.0,0.0,0.0,0.0,0.0,0.0,0.0,0.0,0.0,0.0,0.0,0.0,0.0,0.0,0.0,0.0,0.0,0.0,0.0,0.0,0.0,0.0,0.0,0.0,0.0,0.0,0.0,0.0,0.0,0.0,0.0,0.0,0.0,0.0,0.0,0.0,0.0,0.0,0.0,0.0,0.0,0.0,0.0,0.0,0.0,0.0,0.0,0.0,0.0,0.0,0.0,0.0,0.0,0.0,0.0,0.0,0.0,0.0,0.0,0.0,0.0,0.0,0.0,0.0,0.0,0.0,0.0,0.0,0.0,0.0,0.0,0.0,0.0,0.0,0.0,0.0,0.0,0.0,0.0,0.0,0.0,1.0854,1.0936,1.074,1.0187,1.0103,0.9947,0.0,0.0,0.0,0.0,0.0,0.0,0.0,0.0,0.0,0.0,0.0,0.0,0.0,0.0,0.0,0.0,0.0,0.0,0.0,0.0,0.0,0.0,0.0,0.0,0.0,0.0,0.0,0.0,0.0,0.0,0.0,0.0,0.0,0.0,0.0,0.0,0.0,0.0,0.0,0.0,0.0,0.0,0.0,0.0,0.0,0.0,0.0,0.0,0.0,0.0,0.0,0.0,0.0,0.0,0.0,0.0,0.0,0.0,0.0,0.0,0.0,0.0,0.0,0.0,0.0,0.0,0.0,0.0,0.0,0.0,0.0,0.0,0.0,0.0,0.0,0.0,0.0,0.0,0.0,0.0,0.0,0.0,0.0,0.0,0.0,0.0,0.0,0.0,0.0,0.0,0.0,0.0,0.0,0.0,0.0,0.0,0.0,0.0,0.0,0.0,0.0,0.0,0.0,0.0,0.0,0.0,0.0,0.0,0.0,1.0649,1.086,1.0675,1.0047,0.9979,0.9879,0.9729,0.0,0.0,0.0,0.0,0.0,0.0,0.0,0.0,0.0,0.0,0.0,0.0,0.0,0.0,0.0,0.0,0.0,0.0,0.0,0.0,0.0,0.0,0.0,0.0,0.0,0.0,0.0,0.0,0.0,0.0,0.0,0.0,0.0,0.0,0.0,0.0,0.0,0.0,0.0,0.0,0.0,0.0,0.0,0.0,0.0,0.0,0.0,0.0,0.0,0.0,0.0,0.0,0.0,0.0,0.0,0.0,0.0,0.0,0.0,0.0,0.0,0.0,0.0,0.0,0.0,0.0,0.0,0.0,0.0,0.0,0.0,0.0,0.0,0.0,0.0,0.0,0.0,0.0,0.0,0.0,0.0,0.0,0.0,0.0,0.0,0.0,0.0,0.0,0.0,0.0,0.0,0.0,0.0,0.0,0.0,0.0,0.0,0.0,0.0,0.0,0.0,0.0,0.0,0.0,0.0,0.0,0.0,0.0,1.0193,1.0452,1.0371,0.9881,0.9752,0.9717,0.0,0.0,0.0,0.0,0.0,0.0,0.0,0.0,0.0,0.0,0.0,0.0,0.0,0.0,0.0,0.0,0.0,0.0,0.0,0.0,0.0,0.0,0.0,0.0,0.0,0.0,0.0,0.0,0.0,0.0,0.0,0.0,0.0,0.0,0.0,0.0,0.0,0.0,0.0,0.0,0.0,0.0,0.0,0.0,0.0,0.0,0.0,0.0,0.0,0.0,0.0,0.0,0.0,0.0,0.0,0.0,0.0,0.0,0.0,0.0,0.0,0.0,0.0,0.0,0.0,0.0,0.0,0.0,0.0,0.0,0.0,0.0,0.0,0.0,0.0,0.0,0.0,0.0,0.0,0.0,0.0,0.0,0.0,0.0,0.0,0.0,0.0,0.0,0.0,0.0,0.0,0.0,0.0,0.0,0.0,0.0,0.0,0.0,0.0,0.0,0.0,0.0,0.0,0.0,0.0,0.0,0.0,0.0,0.0,1.0171,1.0374,1.0209,0.9566,0.9443,0.9442,0.0,0.0,0.0,0.0,0.0,0.0,0.0,0.0,0.0,0.0,0.0,0.0,0.0,0.0,0.0,0.0,0.0,0.0,0.0,0.0,0.0,0.0,0.0,0.0,0.0,0.0,0.0,0.0,0.0,0.0,0.0,0.0,0.0,0.0,0.0,0.0,0.0,0.0,0.0,0.0,0.0,0.0,0.0,0.0,0.0,0.0,0.0,0.0,0.0,0.0,0.0,0.0,0.0,0.0,0.0,0.0,0.0,0.0,0.0,0.0,0.0,0.0,0.0,0.0,0.0,0.0,0.0,0.0,0.0,0.0,0.0,0.0,0.0,0.0,0.0,0.0,0.0,0.0,0.0,0.0,0.0,0.0,0.0,0.0,0.0,0.0,0.0,0.0,0.0,0.0,0.0,0.0,0.0,0.0,0.0,0.0,0.0,0.0,0.0,0.0,0.0,0.0,0.0,0.0,0.0,0.0,0.0,0.0,1.0168,1.0065,1.0149,0.9983,0.949,0.9542,0.9498,0.0,0.0,0.0,0.0,0.0,0.0,0.0,0.0,0.0,0.0,0.0,0.0,0.0,0.0,0.0,0.0,0.0,0.0,0.0,0.0,0.0,0.0,0.0,0.0,0.0,0.0,0.0,0.0,0.0,0.0,0.0,0.0,0.0,0.0,0.0,0.0,0.0,0.0,0.0,0.0,0.0,0.0,0.0,0.0,0.0,0.0,0.0,0.0,0.0,0.0,0.0,0.0,0.0,0.0,0.0,0.0,0.0,0.0,0.0,0.0,0.0,0.0,0.0,0.0,0.0,0.0,0.0,0.0,0.0,0.0,0.0,0.0,0.0,0.0,0.0,0.0,0.0,0.0,0.0,0.0,0.0,0.0,0.0,0.0,0.0,0.0,0.0,0.0,0.0,0.0,0.0,0.0,0.0,0.0,0.0,0.0,0.0,0.0,0.0,0.0,0.0,0.0,0.0,0.0,0.0,0.0,0.0,0.0,0.9844,1.0134,0.9971,0.9812,0.9686,0.9777,0.973,0.0,0.0,0.0,0.0,0.0,0.0,0.0,0.0,0.0,0.0,0.0,0.0,0.0,0.0,0.0,0.0,0.0,0.0,0.0,0.0,0.0,0.0,0.0,0.0,0.0,0.0,0.0,0.0,0.0,0.0,0.0,0.0,0.0,0.0,0.0,0.0,0.0,0.0,0.0,0.0,0.0,0.0,0.0,0.0,0.0,0.0,0.0,0.0,0.0,0.0,0.0,0.0,0.0,0.0,0.0,0.0,0.0,0.0,0.0,0.0,0.0,0.0,0.0,0.0,0.0,0.0,0.0,0.0,0.0,0.0,0.0,0.0,0.0,0.0,0.0,0.0,0.0,0.0,0.0,0.0,0.0,0.0,0.0,0.0,0.0,0.0,0.0,0.0,0.0,0.0,0.0,0.0,0.0,0.0,0.0,0.0,0.0,0.0,0.0,0.0,0.0,0.0,0.0,0.0,0.0,0.0,0.0,0.0,1.0464,1.0919,1.0676,1.046,1.0304,0.9729,0.9326,0.0,0.0,0.0,0.0,0.0,0.0,0.0,0.0,0.0,0.0,0.0,0.0,0.0,0.0,0.0,0.0,0.0,0.0,0.0,0.0,0.0,0.0,0.0,0.0,0.0,0.0,0.0,0.0,0.0,0.0,0.0,0.0,0.0,0.0,0.0,0.0,0.0,0.0,0.0,0.0,0.0,0.0,0.0,0.0,0.0,0.0,0.0,0.0,1.1131,0.0,0.0,0.0,0.0,0.0,0.0,0.0,0.0,0.0,0.0,0.0,0.0,0.0,0.0,0.0,0.0,0.0,0.0,0.0,0.0,0.0,0.0,0.0,0.0,0.0,0.0,0.0,0.0,0.0,0.0,0.0,0.0,0.0,0.0,0.0,0.0,0.0,0.0,0.0,0.0,0.0,0.0,0.0,0.0,0.0,0.0,0.0,0.0,0.0,0.0,0.0,0.0,0.0,0.0,0.0,0.0,0.0,0.0,0.0,1.0633,1.1046,1.0893,1.0718,1.0582,1.0115,0.9631,0.0,0.0,0.0,0.0,0.0,0.0,0.0,0.0,0.0,0.0,0.0,0.0,0.0,0.0,0.0,0.0,0.0,0.0,0.0,0.0,0.0,0.0,0.0,0.0,0.0,0.0,0.0,0.0,0.0,0.0,0.0,0.0,0.0,0.0,0.0,0.0,0.0,0.0,0.0,0.0,0.0,0.0,0.0,0.0,0.0,0.0,0.0,0.0,0.0,0.0,0.0,0.0,0.0,0.0,0.0,0.0,0.0,0.0,0.0,0.0,0.0,0.0,0.0,0.0,0.0,0.0,0.0,0.0,0.0,0.0,0.0,0.0,0.0,0.0,0.0,0.0,0.0,0.0,0.0,0.0,0.0,0.0,0.0,0.0,0.0,0.0,0.0,0.0,0.0,0.0,0.0,0.0,0.0,0.0,0.0,0.0,0.0,0.0,0.0,0.0,0.0,0.0,0.0,0.0,0.0,0.0,0.0,1.0283,1.0618,1.1002,1.0995,1.0921,1.0826,1.0629,1.016,0.9413,0.0,0.0,0.0,0.0,0.0,0.0,0.0,0.0,0.0,0.0,0.0,0.0,0.0,0.0,0.0,0.0,0.0,0.0,0.0,0.0,0.0,0.0,0.0,0.0,0.0,0.0,0.0,0.0,0.0,0.0,0.0,0.0,0.0,0.0,0.0,0.0,0.0,0.0,1.0682,1.1058,0.0,0.0,0.0,0.0,0.0,0.0,0.0,0.0,1.1867,0.0,0.0,0.0,0.0,0.0,0.0,0.0,0.0,0.0,0.0,0.0,0.0,0.0,0.0,0.0,0.0,0.0,0.0,0.0,0.0,0.0,0.0,0.0,0.0,0.0,0.0,0.0,0.0,0.0,0.0,0.0,0.0,0.0,0.0,0.0,0.0,0.0,0.0,0.0,0.0,0.0,0.0,0.0,0.0,0.0,0.0,0.0,0.0,0.0,0.0,0.0,0.0,0.0,0.0,0.0,0.0,0.9986,0.9995,1.0487,1.1455,1.1382,1.1307,1.1274,1.0894,1.0365,0.9746,0.0,0.0,0.0,0.0,0.0,0.0,0.0,0.0,0.0,0.0,0.0,0.0,0.0,0.0,0.0,0.0,0.0,0.0,0.0,0.0,0.0,0.0,0.0,0.0,0.0,0.0,0.0,0.0,0.0,0.0,0.0,0.0,0.0,0.0,0.0,0.0,0.0,0.0,0.0,1.1739,1.2119,0.0,0.0,0.0,0.0,0.0,0.0,0.0,0.0,1.2017,0.0,0.0,0.0,0.0,0.0,0.0,0.0,0.0,0.0,0.0,0.0,0.0,0.0,0.0,0.0,0.0,0.0,0.0,0.0,0.0,0.0,0.0,0.0,0.0,0.0,0.0,0.0,0.0,0.0,0.0,0.0,0.0,0.0,0.0,0.0,0.0,0.0,0.0,0.0,0.0,0.0,0.0,0.0,0.0,0.0,0.0,0.0,0.0,0.0,0.0,0.0,0.0,0.0,0.0,0.0,0.8607,0.9166,0.9795,1.0401,1.1038,1.1431,1.1424,1.1104,1.0636,0.0,0.0,0.0,0.0,0.0,0.0,0.0,0.0,0.0,0.0,0.0,0.0,0.0,0.0,0.0,0.0,0.0,0.0,0.0,0.0,0.0,0.0,0.0,0.0,0.0,0.0,0.0,0.0,0.0,0.0,0.0,0.0,0.0,0.0,0.0,0.0,0.0,0.0,0.0,0.0,1.2086,1.2345,1.2486,0.0,0.0,0.0,0.0,0.0,0.0,1.2477,1.2378,0.0,0.0,0.0,0.0,0.0,0.0,0.0,0.0,0.0,0.0,0.0,0.0,0.0,0.0,0.0,0.0,0.0,0.0,0.0,0.0,0.0,0.0,0.0,0.0,0.0,0.0,0.0,0.0,0.0,0.0,0.0,0.0,0.0,0.0,0.0,0.0,0.0,0.0,0.0,0.0,0.0,0.0,0.0,0.0,0.0,0.0,0.0,0.0,0.0,0.0,0.0,0.0,0.0,0.0,0.0,0.7267,0.8019,0.8555,0.8879,1.0281,1.1006,1.0973,1.1056,1.0772,0.0,0.0,0.0,0.0,0.0,0.0,0.0,0.0,0.0,0.0,0.0,0.0,0.0,0.0,0.0,0.0,0.0,0.0,0.0,0.0,0.0,0.0,0.0,0.0,0.0,0.0,0.0,0.0,0.0,0.0,0.0,0.0,0.0,0.0,0.0,0.0,0.0,0.0,0.0,0.0,0.0,1.251,1.2666,1.2906,0.0,0.0,0.0,0.0,1.2639,1.2718,0.0,0.0,0.0,0.0,0.0,0.0,0.0,0.0,0.0,0.0,0.0,0.0,0.0,0.0,0.0,0.0,0.0,0.0,0.0,0.0,0.0,0.0,0.0,0.0,0.0,0.0,0.0,0.0,0.0,0.0,0.0,0.0,0.0,0.0,0.0,0.0,0.0,0.0,0.0,0.0,0.0,0.0,0.0,0.0,0.0,0.0,0.0,0.0,0.0,0.0,0.0,0.0,0.0,0.0,0.0,0.0,0.7091,0.6513,0.6566,0.7352,0.8962,0.9726,0.9542,1.0435,1.0631,0.0,0.0,0.0,0.0,0.0,0.0,0.0,0.0,0.0,0.0,0.0,0.0,0.0,0.0,0.0,0.0,0.0,0.0,0.0,0.0,0.0,0.0,0.0,0.0,0.0,0.0,0.0,0.0,0.0,0.0,0.0,0.0,0.0,0.0,0.0,0.0,0.0,0.0,0.0,0.0,0.0,1.2748,1.3235,1.3326,1.3429,0.0,0.0,1.2887,1.2856,1.2673,0.0,0.0,0.0,0.0,0.0,0.0,0.0,0.0,0.0,0.0,0.0,0.0,0.0,0.0,0.0,0.0,0.0,0.0,0.0,0.0,0.0,0.0,0.0,0.0,0.0,0.0,0.0,0.0,0.0,0.0,0.0,0.0,0.0,0.0,0.0,0.0,0.0,0.0,0.0,0.0,0.0,0.0,0.0,0.0,0.0,0.0,0.0,0.0,0.0,0.0,0.0,0.0,0.0,0.0,0.0,0.5321,0.5648,0.5351,0.5351,0.5751,0.7315,0.8072,0.803,0.8796,0.9057,0.0,0.0,0.0,0.0,0.0,0.0,0.0,0.0,0.0,0.0,0.0,0.0,0.0,0.0,0.0,0.0,0.0,0.0,0.0,0.0,0.0,0.0,0.0,0.0,0.0,0.0,0.0,0.0,0.0,0.0,0.0,0.0,0.0,0.0,0.0,0.0,0.0,0.0,0.0,0.0,0.0,0.0,1.242,1.2849,0.0,0.0,0.0,1.3054,1.2881,0.0,0.0,0.0,0.0,0.0,0.0,0.0,0.0,0.0,0.0,0.0,0.0,0.0,0.0,0.0,0.0,0.0,0.0,0.0,0.0,0.0,0.0,0.0,0.0,0.0,0.0,0.0,0.0,0.0,0.0,0.0,0.0,0.0,0.0,0.0,0.0,0.0,0.0,0.0,0.0,0.0,0.0,0.0,0.0,0.0,0.0,0.0,0.0,0.0,0.0,0.0,0.0,0.0,0.0,0.0,0.0,0.0,0.4651,0.4352,0.4197,0.4197,0.5701,0.6514,0.6458,0.7236,0.0,0.0,0.0,0.0,0.0,0.0,0.0,0.0,0.0,0.0,0.0,0.0,0.0,0.0,0.0,0.0,0.0,0.0,0.0,0.0,0.0,0.0,0.0,0.0,0.0,0.0,0.0,0.6471,0.0,0.0,0.0,0.0,0.0,0.0,0.0,0.0,0.0,0.0,0.0,0.0,0.0,0.0,1.1906,1.1929,1.248,1.2795,0.0,0.0,1.3112,1.2977,1.2959,1.283,0.0,0.0,0.0,0.0,0.0,0.0,0.0,0.0,0.0,0.0,0.0,0.0,0.0,0.0,0.0,0.0,0.0,0.0,0.0,0.0,0.0,0.0,0.0,0.0,0.0,0.0,0.0,0.0,0.0,0.0,0.0,0.0,0.0,0.0,0.0,0.0,0.0,0.0,0.0,0.0,0.0,0.0,0.0,0.0,0.0,0.0,0.0,0.0,0.0,0.0,0.0,0.0,0.0,0.0,0.4835,0.4754,0.342,0.2785,0.2785,0.4368,0.5131,0.4956,0.6054,0.6856,0.0,0.0,0.0,0.0,0.0,0.0,0.0,0.0,0.0,0.0,0.0,0.0,0.0,0.0,0.0,0.0,0.0,0.0,0.0,0.0,0.0,0.0,0.0,0.0,0.0,0.0,0.0,0.0,0.0,0.0,0.0,0.0,0.0,0.0,0.0,0.0,0.0,0.0,0.0,0.0,0.0,1.1865,1.2553,1.2531,1.2575,0.0,1.2916,1.2951,1.3303,1.3363,1.3251,1.2991,0.0,0.0,0.0,0.0,0.0,0.0,0.0,0.0,0.0,0.0,0.0,0.0,0.0,0.0,0.0,0.0,0.0,0.0,0.0,0.0,0.0,0.0,0.0,0.0,0.0,0.0,0.0,0.0,0.0,0.0,0.0,0.0,0.0,0.0,0.0,0.0,0.0,0.0,0.0,0.0,0.0,0.0,0.0,0.0,0.0,0.0,0.0,0.0,0.0,0.0,0.0,0.0,0.0,0.4653,0.4481,0.3255,0.2604,0.2628,0.3229,0.3504,0.3447,0.4359,0.5012,0.0,0.0,0.0,0.0,0.0,0.0,0.0,0.0,0.0,0.0,0.0,0.0,0.0,0.0,0.0,0.0,0.0,0.0,0.0,0.0,0.0,0.0,0.0,0.0,0.0,0.0,0.0,0.0,0.8194,0.8395,0.842,0.0,0.0,0.0,0.0,0.0,0.0,0.0,0.0,0.0,0.0,1.1342,1.1837,1.2187,0.0,0.0,1.2465,1.2631,1.2662,1.2767,1.2696,1.2291,1.2115,0.0,0.0,0.0,0.0,0.0,0.0,0.0,0.0,0.0,0.0,0.0,0.0,0.0,0.0,0.0,0.0,0.0,0.0,0.0,0.0,0.0,0.0,0.0,0.0,0.0,0.0,0.0,0.0,0.0,0.0,0.0,0.0,0.0,0.0,0.0,0.0,0.0,0.0,0.0,0.0,0.0,0.0,0.0,0.0,0.0,0.0,0.0,0.0,0.0,0.0,0.0,0.0,0.4464,0.441,0.3266,0.2632,0.2642,0.2642,0.2642,0.2642,0.3144,0.3619,0.0,0.0,0.0,0.0,0.0,0.0,0.0,0.0,0.0,0.0,0.0,0.0,0.0,0.0,0.0,0.0,0.0,0.0,0.0,0.0,0.0,0.0,0.0,0.0,0.0,0.0,0.0,0.0,0.8351,0.8369,0.7903,0.0,0.0,0.0,0.0,0.0,0.0,0.0,0.0,0.0,0.0,1.0496,1.0621,1.1405,1.1812,1.1416,1.1663,1.1875,1.1832,1.2071,1.214,1.1852,0.0,0.0,0.0,0.0,0.0,0.0,0.0,0.0,0.0,0.0,0.0,0.0,0.0,0.0,0.0,0.0,0.0,0.0,0.0,0.0,0.0,0.0,0.0,0.0,0.0,0.0,0.0,1.8838,0.0,0.0,2.1394,0.0,0.0,0.0,0.0,0.0,0.0,0.0,0.0,0.0,0.0,0.0,0.0,0.0,0.0,0.0,0.0,0.0,0.0,0.0,0.0,0.0,0.0,0.439,0.4577,0.3394,0.2767,0.2695,0.2693,0.2693,0.2692,0.2706,0.3092,0.3799,0.0,0.0,0.0,0.0,0.0,0.0,0.0,0.0,0.0,0.0,0.0,0.0,0.0,0.0,0.0,0.0,0.0,0.0,0.0,0.0,0.0,0.0,0.0,0.0,0.0,0.0,0.7982,0.8347,0.8433,0.0,0.0,0.0,0.0,0.0,0.0,0.0,0.0,0.0,0.7518,0.8586,0.9239,0.9025,1.0099,1.0847,1.062,1.0571,1.0665,1.0946,1.1335,1.1729,0.0,0.0,0.0,0.0,0.0,0.0,0.0,0.0,0.0,0.0,0.0,0.0,0.0,0.0,0.0,0.0,0.0,0.0,0.0,0.0,0.0,0.0,0.0,0.0,0.0,0.0,0.0,1.4557,2.0476,0.0,0.0,0.0,0.0,0.0,0.0,0.0,0.0,0.0,0.0,0.0,1.0304,0.7979,0.0,0.0,0.0,0.0,0.0,0.0,0.0,0.0,0.0,0.0,0.0,0.0,0.4278,0.3788,0.3207,0.2886,0.2813,0.2856,0.2802,0.2829,0.2799,0.3093,0.3848,0.0,0.0,0.0,0.0,0.0,0.0,0.0,0.0,0.0,0.0,0.0,0.0,0.0,0.0,0.0,0.0,0.0,0.0,0.0,0.0,0.0,0.0,0.0,0.0,0.0,0.7671,0.0,0.0,0.0,0.0,0.0,0.0,0.0,0.0,0.0,0.0,0.6012,0.6186,0.7058,0.7809,0.8511,0.9038,0.9704,0.9882,0.0,0.0,0.0,0.0,0.0,0.0,0.0,0.0,0.0,0.0,0.0,0.0,0.0,0.0,1.1347,1.1073,1.1173,1.1404,1.169,0.0,0.0,0.0,0.0,0.0,0.0,0.0,0.0,0.0,0.0,0.0,0.0,0.0,0.0,1.4842,2.2374,2.0371,0.0,0.0,0.0,0.0,0.0,0.0,0.0,0.0,1.4551,1.1377,0.8331,0.6526,0.5273,0.4624,0.4526,0.4651,0.0,0.0,0.0,0.0,0.0,0.0,0.0,0.0,0.3929,0.3434,0.315,0.2962,0.2934,0.2932,0.2923,0.2949,0.2866,0.3074,0.3512,0.3935,0.4299,0.0,0.0,0.0,0.0,0.0,0.0,0.0,0.0,0.0,0.0,0.0,0.0,0.0,0.0,0.0,0.0,0.0,0.0,0.0,0.0,0.0,0.0,0.0,0.7015,0.0,0.0,0.0,0.0,0.0,0.0,0.0,0.0,0.0,0.5469,0.5049,0.5037,0.5767,0.6459,0.7108,0.7712,0.0,0.0,0.0,0.0,0.0,0.0,0.0,0.8854,0.8711,0.8776,0.855,0.7675,0.8005,0.8821,0.9964,0.0,0.0,1.1607,1.1822,1.2043,1.2308,1.2631,1.2871,1.2949,1.3268,1.3592,0.0,0.0,0.0,0.0,0.5973,0.0,0.0,0.0,1.082,1.5918,0.0,1.8355,0.0,0.0,0.0,0.0,2.3441,1.9364,0.0,0.0,0.6714,0.4604,0.6982,0.47,0.3496,0.3495,0.3809,0.3965,0.3995,0.442,0.4723,0.0,0.0,0.0,0.0,0.0,0.3459,0.3464,0.3149,0.2994,0.3013,0.301,0.301,0.3007,0.2953,0.2864,0.283,0.3517,0.3816,0.3728,0.4625,0.0,0.0,0.0,0.0,0.0,0.0,0.0,0.0,0.0,0.0,0.0,0.0,0.0,0.0,0.0,0.0,0.0,0.0,0.0,0.0,0.5241,0.0,0.0,0.0,0.0,0.0,0.0,0.0,0.0,0.0,0.4227,0.4768,0.4047,0.3543,0.3704,0.0,0.0,0.0,0.0,0.6825,0.6785,0.677,0.6762,0.6687,0.668,0.6859,0.733,0.0,0.0,0.6785,0.6688,0.6652,0.6684,0.8611,1.0459,1.1668,1.2019,1.2316,1.2771,1.2769,1.2882,1.3485,1.3571,1.3671,0.5009,0.0,0.0,0.0,0.0,0.5139,0.5132,0.5115,0.5136,0.8969,1.521,1.3222,0.0,0.0,0.0,0.0,0.0,0.0,1.4679,1.1071,0.8662,0.6439,0.4314,0.3587,0.322,0.322,0.3304,0.3359,0.3333,0.3473,0.3811,0.4227,0.0,0.0,0.0,0.0,0.3084,0.3108,0.2732,0.2655,0.3074,0.3074,0.3063,0.2995,0.2977,0.2945,0.2848,0.3089,0.3258,0.3478,0.3949,0.0,0.0,0.0,0.0,0.0,0.0,0.0,0.0,0.0,0.0,0.0,0.0,0.0,0.0,0.0,0.0,0.0,0.0,0.0,0.4749,0.4427,0.4636,0.0,0.0,0.0,0.0,0.0,0.0,0.0,0.0,0.0,0.3698,0.3191,0.2971,0.0,0.0,0.4349,0.4672,0.5262,0.5485,0.4867,0.5259,0.0,0.4823,0.5234,0.569,0.5834,0.5249,0.5237,0.653,0.6218,0.6194,0.7367,0.8231,0.8806,0.9262,1.1195,1.2694,1.3073,1.3279,1.3434,1.3496,1.3908,1.4323,0.4081,0.5528,0.5393,0.4838,0.4107,0.4048,0.3587,0.2834,0.2855,0.5659,1.011,0.76,1.0934,1.8518,1.855,0.0,0.0,0.0,1.1811,0.7213,0.7027,0.5521,0.3154,0.3075,0.3089,0.31,0.3112,0.3133,0.3115,0.3115,0.3194,0.3341,0.0,0.3231,0.2961,0.2575,0.2362,0.2376,0.2144,0.2241,0.2766,0.3005,0.2995,0.2742,0.2872,0.299,0.2953,0.2941,0.3046,0.3257,0.3495,0.3726,0.0,0.0,0.0,0.0,0.0,0.0,0.0,0.0,0.0,0.0,0.0,0.3981,0.438,0.0,0.0,0.0,0.4181,0.4027,0.3869,0.3627,0.0,0.0,0.0,0.0,0.0,0.0,0.0,0.3805,0.3669,0.3459,0.3076,0.2853,0.2761,0.3026,0.3268,0.3599,0.4034,0.0,0.4387,0.4048,0.4409,0.4599,0.4089,0.4301,0.4472,0.4301,0.3854,0.3872,0.4858,0.4755,0.4817,0.5767,0.6586,0.7061,0.7061,0.9272,1.1375,1.2158,1.314,1.3721,1.3559,1.3993,1.4385,0.3205,0.3021,0.2721,0.2657,0.2749,0.2676,0.2719,0.2805,0.2565,0.4566,0.7539,0.2116,0.5592,1.5594,1.7213,0.0,1.0368,1.0169,0.7306,0.2548,0.2572,0.2526,0.2555,0.2532,0.2556,0.2581,0.2604,0.2579,0.2502,0.2503,0.2308,0.1917,0.1819,0.1909,0.2036,0.1599,0.1405,0.1453,0.1393,0.1672,0.2199,0.2728,0.2728,0.2339,0.2699,0.2873,0.2959,0.289,0.2874,0.2867,0.3183,0.3299,0.3223,0.0,0.0,0.0,0.0,0.0,0.0,0.0,0.0,0.0,0.0,0.0,0.0,0.0,0.0,0.3704,0.3234,0.0,0.257,0.2849,0.0,0.0,0.0,0.3711,0.3758,0.3801,0.3702,0.3203,0.0,0.0,0.2875,0.2792,0.276,0.2743,0.2762,0.2968,0.3395,0.3459,0.3577,0.3882,0.4016,0.4018,0.3931,0.3709,0.3401,0.3052,0.2791,0.2879,0.2966,0.2923,0.2834,0.3011,0.4224,0.5309,0.5309,0.6775,0.8463,1.0186,1.1939,1.3268,1.339,1.3446,1.3686,0.2303,0.0844,0.0779,0.0734,0.0699,0.0692,0.0688,0.0537,-0.0972,-0.0238,0.1849,-0.1033,-0.0788,0.18,0.2217,0.1729,0.0503,0.0459,-0.0185,-0.1308,-0.1358,-0.1369,-0.1434,-0.1437,-0.1446,-0.1557,-0.1561,-0.176,-0.2057,-0.2106,-0.1966,-0.1782,-0.2144,-0.1192,0.093,0.0587,0.0538,0.088,0.0537,0.078,0.1659,0.188,0.2071,0.2268,0.2036,0.2068,0.2399,0.203,0.1834,0.1761,0.1902,0.1926,0.1784,0.1494,0.0,0.0,0.0,0.0,0.0,0.0,0.0,0.0,0.0,0.1705,0.1747,0.0,0.0903,0.0,0.1562,0.1838,0.2147,0.2547,0.0,0.0,0.3365,0.3437,0.3503,0.3544,0.3392,0.2959,0.3036,0.303,0.2902,0.2558,0.2347,0.2352,0.261,0.2838,0.2956,0.3021,0.3083,0.3194,0.3262,0.3227,0.32,0.3089,0.303,0.2898,0.2852,0.2898,0.2852,0.2852,0.2852,0.2896,0.3164,0.3518,0.3561,0.5026,0.6308,0.6966,0.8324,0.9951,1.1332,1.1756,1.2295,-0.0404,-0.1657,-0.1652,-0.2212,-0.3041,-0.1852,-0.1336,-0.147,-0.2585,-0.2896,-0.2711,-0.3771,-0.4238,-0.4166,-0.3285,-0.2894,-0.2865,-0.2864,-0.2802,-0.2728,-0.2727,-0.2785,-0.2852,-0.2877,-0.3052,-0.3336,-0.3414,-0.3689,-0.4161,-0.4211,-0.4174,-0.4145,-0.4468,-0.3999,-0.2813,-0.1884,-0.1292,-0.1043,-0.0592,0.0,0.0835,0.1339,0.1482,0.1308,0.1265,0.1111,0.0852,0.0618,0.0379,0.0094,0.0141,0.0094,0.0,-0.0221,-0.0472,0.0,0.0,0.0,0.0,0.0,0.0,0.0,0.0,0.0,0.0,0.0,-0.2218,-0.2165,-0.1676,-0.1278,-0.1018,-0.0746,-0.0482,-0.0221,-0.0308,-0.0308,-0.0178,0.0628,0.1079,0.0851,0.1683,0.2293,0.2278,0.2013,0.1837,0.1883,0.2036,0.2287,0.2524,0.2766,0.2964,0.2934,0.295,0.3003,0.2938,0.2968,0.2959,0.2912,0.2946,0.2893,0.2891,0.2882,0.2919,0.2919,0.2919,0.2919,0.2964,0.368,0.444,0.4568,0.5169,0.6766,0.932,1.0048,1.0717,-0.3755,-0.4412,-0.4346,-0.5571,-0.7411,-0.5028,-0.3814,-0.3512,-0.3768,-0.4831,-0.6438,-0.6418,-0.6368,-0.6279,-0.4575,-0.3788,-0.3785,-0.379,-0.3771,-0.3779,-0.3779,-0.3812,-0.3885,-0.3953,-0.426,-0.4724,-0.4807,-0.5131,-0.5709,-0.5711,-0.5916,-0.6275,-0.627,-0.6645,-0.7259,-0.5109,-0.3874,-0.3575,-0.2136,-0.1134,-0.064,0.0395,0.0491,-0.0243,0.0097,-0.0096,-0.0956,-0.1049,-0.1287,-0.1667,-0.1763,-0.185,-0.1974,-0.2085,-0.2343,0.0,-0.3279,0.0,0.0,0.0,0.0,0.0,0.0,0.0,0.0,-0.4617,-0.5251,-0.571,-0.5218,-0.4866,-0.4771,-0.4738,-0.4688,-0.4687,-0.4816,-0.4795,-0.4568,-0.3142,-0.212,-0.2011,-0.0458,0.0736,0.1018,0.102,0.0974,0.1296,0.1391,0.1531,0.195,0.2504,0.2872,0.292,0.2971,0.3027,0.3022,0.3021,0.302,0.3017,0.2954,0.2934,0.2938,0.2917,0.2944,0.2941,0.2897,0.2939,0.2887,0.2931,0.2979,0.3076,0.3185,0.4276,0.7287,0.8305,0.9021,-0.5573,-0.7169,-0.715,-0.8321,-1.0184,-0.9705,-0.8198,-0.6165,-0.7764,-0.8808,-0.9468,-0.9475,-0.9462,-0.9421,-0.917,-0.8972,-0.891,-0.8984,-0.901,-0.8969,-0.8969,-0.9044,-0.9219,-0.9253,-0.9365,-0.9633,-0.9671,-0.9953,-1.0473,-1.0473,-1.0321,-1.005,-0.9977,-0.9629,-0.9039,0.0,0.0,0.0,-0.4638,-0.3991,-0.3862,-0.2881,-0.2216,-0.2031,-0.226,0.0,-0.2122,-0.2392,-0.2667,-0.281,-0.3145,0.0,0.0,0.0,0.0,0.0,0.0,0.0,0.0,0.0,0.0,0.0,-0.8312,-0.7792,-0.677,-0.6848,-0.6941,-0.6918,-0.6296,-0.5643,-0.5151,-0.482,-0.46,-0.4598,-0.4718,-0.4715,-0.4613,-0.4293,-0.4056,-0.4004,-0.3703,-0.2821,-0.1357,-0.1356,-0.098,0.0465,0.0892,0.0948,0.1042,0.1835,0.2342,0.2437,0.2781,0.3081,0.3083,0.3082,0.3082,0.3082,0.3079,0.3072,0.307,0.3065,0.3052,0.2984,0.2981,0.2971,0.2949,0.2991,0.2949,0.2976,0.2986,0.3666,0.5828,0.6352,0.6941,-0.8818,-1.002,-0.9921,-1.0491,0.0,-1.1323,-1.0489,-0.9247,-1.0015,-1.0403,-1.0492,-1.0383,-1.034,-1.0345,-1.0443,-1.0387,-1.034,-1.0438,-1.0438,-1.0386,-1.0386,-1.0443,-1.0548,-1.0658,-1.0931,-1.1279,-1.1436,-1.181,-1.2305,-1.236,-1.2238,-1.1997,-1.1885,-1.1535,-1.0995,-1.0847,-0.9574,-0.7003,-0.6473,-0.5988,-0.5467,-0.4967,-0.4708,-0.4741,-0.4983,0.0,0.0,0.0,0.0,0.0,0.0,0.0,0.0,-0.7389,-0.7684,-0.796,-0.8327,-0.8746,-0.9288,-0.9572,-0.9926,-1.0499,-1.0794,-1.0566,-0.9536,-0.9759,-0.9929,-0.9879,-0.9373,-0.8987,-0.8707,-0.8551,-0.8453,-0.8447,-0.858,-0.8611,-0.8464,-0.7653,-0.71,-0.6801,-0.606,-0.4979,-0.4061,-0.4124,-0.3418,-0.1609,-0.1197,-0.0771,0.0287,0.124,0.1952,0.2227,0.2768,0.3122,0.3125,0.3089,0.3096,0.3096,0.3132,0.3124,0.3122,0.305,0.3071,0.3009,0.2995,0.2979,0.3013,0.3009,0.2971,0.2999,0.3018,0.331,0.4316,0.4457,0.5008,-1.1893,-1.2286,-1.2193,-1.2151,-1.2191,-1.2004,-1.1868,-1.1847,-1.1401,0.0,0.0,-1.0769,-1.0691,-1.0691,-1.0691,-1.0701,-1.0715,-1.072,-1.072,-1.072,-1.072,-1.073,-1.0755,-1.0936,-1.1269,-1.1764,-1.1999,-1.2331,-1.2825,-1.2825,-1.2835,-1.2841,-1.2732,-1.2629,-1.2488,-1.2439,-1.1168,-0.8656,-0.8367,-0.7827,-0.7,-0.6855,-0.7009,-0.7397,-0.7485,-0.7924,-0.8746,-0.8791,-0.903,-0.9411,-0.9521,-0.9626,-0.972,-0.9672,-0.9681,-0.9767,-1.0006,-1.0408,-1.0848,-1.1226,-1.1699,-1.2194,-1.2345,-1.2197,-1.175,-1.2149,-1.2432,-1.2466,-1.2286,-1.2172,-1.2219,-1.2307,-1.2372,-1.2372,-1.2493,-1.252,-1.2364,-1.1183,-1.0034,-0.9724,-0.8464,-0.7214,-0.6887,-0.6833,-0.6094,-0.4264,-0.3705,-0.3226,-0.1399,0.0241,0.1591,0.2211,0.2662,0.2968,0.3062,0.313,0.3099,0.3089,0.3119,0.3107,0.3099,0.3065,0.3033,0.3029,0.3002,0.3036,0.3027,0.3028,0.299,0.3024,0.305,0.3128,0.311,0.3101,0.3698,-1.2979,-1.3035,-1.3019,-1.3008,-1.3059,-1.2976,-1.2957,-1.2827,-1.2294,-1.1956,-1.1823,-1.1791,-1.178,-1.1774,-1.1774,-1.1833,-1.193,-1.1935,-1.193,-1.193,-1.193,-1.1989,-1.2133,-1.217,-1.2245,-1.2358,-1.2396,-1.2471,-1.2537,-1.2585,-1.2634,-1.271,-1.2618,-1.2499,-1.2488,-1.2472,-1.2272,-1.1796,-1.0915,-1.0374,-1.0228,-0.9318,-0.8927,-0.8964,-0.895,-0.8963,-0.9145,-0.9193,-0.9204,-0.9179,-0.9728,-1.0204,-1.0585,-1.1051,-1.1463,-1.1894,-1.2011,-1.2005,-1.1962,-1.2051,-1.2152,-1.2361,-1.2394,-1.2314,-1.2163,-1.2292,-1.2367,-1.2237,-1.2241,-1.2219,-1.2219,-1.2241,-1.2263,-1.2258,-1.2279,-1.2329,-1.239,-1.2165,-1.194,-1.1885,-1.1852,-1.077,-0.935,-0.9075,-0.8304,-0.6506,-0.5708,-0.569,-0.463,-0.1804,0.102,0.2053,0.2416,0.2668,0.2946,0.3161,0.3116,0.3097,0.3089,0.3133,0.3133,0.3073,0.3104,0.3088,0.3076,0.3112,0.3092,0.3088,0.3061,0.3054,0.3074,0.3095,0.319,0.3197,0.328,-1.3238,-1.3238,-1.3238,-1.3238,-1.3238,-1.3238,-1.3159,-1.314,-1.2873,-1.2607,-1.2379,-1.2314,-1.2286,-1.2286,-1.2286,-1.2314,-1.2368,-1.2303,-1.2303,-1.2357,-1.2279,-1.2285,-1.2394,-1.24,-1.2432,-1.2439,-1.2455,-1.2536,-1.2536,-1.2536,-1.2515,-1.2553,-1.2493,-1.2406,-1.2346,-1.2406,-1.2439,-1.2439,-1.2013,-1.177,-1.1709,-1.128,-1.0993,-1.0984,-1.0989,-1.0994,-1.0994,-1.1047,-1.1047,-1.1052,-1.1338,-1.1642,-1.1942,-1.2092,-1.2298,-1.2542,-1.2487,-1.2401,-1.2329,-1.2318,-1.2345,-1.24,-1.2525,-1.2466,-1.2334,-1.2372,-1.2378,-1.2323,-1.221,-1.2219,-1.2225,-1.2279,-1.2292,-1.2362,-1.2422,-1.2509,-1.2667,-1.2689,-1.264,-1.2634,-1.2629,-1.2231,-1.1339,-1.1241,-1.0455,-0.8436,-0.7234,-0.6467,-0.6498,-0.469,-0.2477,-0.0639,0.0935,0.2071,0.2557,0.271,0.286,0.3045,0.3093,0.3093,0.3093,0.3095,0.3088,0.3126,0.3122,0.3116,0.3103,0.3101,0.3122,0.3152,0.3167,0.3186,0.3219,0.3179,0.3159,-1.3268,-1.3268,-1.3268,-1.3319,-1.3319,-1.3241,-1.323,-1.3224,-1.3192,-1.3029,-1.283,-1.2705,-1.264,-1.2613,-1.2537,-1.252,-1.2509,-1.2449,-1.2449,-1.2461,-1.2341,-1.2308,-1.2438,-1.2395,-1.2395,-1.2406,-1.2493,-1.2536,-1.2536,-1.2536,-1.2499,-1.2515,-1.2509,-1.2476,-1.2335,-1.2476,-1.2525,-1.253,-1.2569,-1.2542,-1.2406,-1.2487,-1.2487,-1.2411,-1.2487,-1.2477,-1.2498,-1.2499,-1.2542,-1.2623,-1.2678,-1.2748,-1.2835,-1.2759,-1.2705,-1.27,-1.2623,-1.252,-1.2411,-1.2443,-1.2395,-1.2449,-1.2558,-1.2591,-1.247,-1.2395,-1.2427,-1.24,-1.2318,-1.2274,-1.2265,-1.2341,-1.2433,-1.2482,-1.2564,-1.2689,-1.2819,-1.2846,-1.283,-1.2754,-1.2748,-1.2748,-1.2748,-1.2748,-1.205,-1.0406,-0.8829,-0.7911,-0.7848,-0.7648,-0.6291,-0.4323,-0.1433,0.0545,0.1334,0.2072,0.2463,0.2899,0.3044,0.3097,0.3101,0.3155,0.3109,0.3112,0.3115,0.3164,0.3113,0.3113,0.3176,0.3202,0.3212,0.322,0.3249,0.3205,0.3178,-1.3569,-1.3569,-1.3564,-1.3569,-1.3548,-1.345,-1.3406,-1.339,-1.3241,-1.317,-1.3172,-1.3069,-1.296,-1.2846,-1.2743,-1.27,-1.2694,-1.2569,-1.2482,-1.2547,-1.2466,-1.2461,-1.2515,-1.2515,-1.2472,-1.2515,-1.2482,-1.2536,-1.2536,-1.2536,-1.2585,-1.2694,-1.2786,-1.2808,-1.2808,-1.2819,-1.283,-1.2841,-1.2852,-1.2748,-1.2488,-1.2531,-1.2531,-1.2472,-1.2482,-1.2482,-1.2443,-1.2574,-1.2596,-1.2476,-1.2596,-1.271,-1.2721,-1.2716,-1.2705,-1.2705,-1.2694,-1.264,-1.2531,-1.2472,-1.2472,-1.2472,-1.2499,-1.2509,-1.2472,-1.252,-1.2471,-1.2384,-1.2394,-1.2379,-1.2434,-1.2509,-1.252,-1.2493,-1.2509,-1.2547,-1.2716,-1.2721,-1.2759,-1.2863,-1.2863,-1.2873,-1.2868,-1.2863,-1.2763,-1.2368,-1.1899,-1.1572,-1.1488,-1.0389,-0.9391,-0.8299,-0.5251,-0.2376,-0.1356,0.0799,0.1584,0.2065,0.2701,0.2855,0.2918,0.3129,0.319,0.3151,0.3219,0.3217,0.3172,0.3172,0.3232,0.3253,0.3264,0.3275,0.3303,0.3256,0.3275,-1.3607,-1.3607,-1.3607,-1.3607,-1.3597,-1.3548,-1.3531,-1.352,-1.3477,-1.3455,-1.345,-1.3406,-1.3276,-1.3091,-1.2971,-1.2955,-1.2999,-1.2754,-1.2721,-1.2819,-1.264,-1.252,-1.2629,-1.2564,-1.2536,-1.2536,-1.2536,-1.2536,-1.2536,-1.2536,-1.2509,-1.2602,-1.2607,-1.2678,-1.2683,-1.2743,-1.2781,-1.2781,-1.2852,-1.2841,-1.2748,-1.2672,-1.2602,-1.2493,-1.2536,-1.2466,-1.2477,-1.2558,-1.2591,-1.2569,-1.2656,-1.2738,-1.2808,-1.2814,-1.2814,-1.2808,-1.2743,-1.2683,-1.2591,-1.2634,-1.2634,-1.2634,-1.2705,-1.2716,-1.2645,-1.2634,-1.2585,-1.2487,-1.2466,-1.2487,-1.2531,-1.2536,-1.2509,-1.2618,-1.2634,-1.2683,-1.2797,-1.2814,-1.2835,-1.2884,-1.295,-1.2999,-1.2982,-1.2933,-1.2928,-1.2955,-1.2944,-1.2873,-1.2829,-1.2185,-1.1822,-1.1318,-0.8858,-0.628,-0.4508,-0.3318,-0.1772,-0.0442,0.0392,0.0934,0.2371,0.303,0.3197,0.3176,0.3245,0.3264,0.323,0.3283,0.329,0.33,0.3302,0.3307,0.332,0.3321,0.33,-1.3656,-1.3651,-1.3618,-1.3607,-1.3607,-1.3607,-1.3607,-1.3607,-1.3607,-1.3586,-1.3558,-1.3591,-1.3466,-1.3203,-1.3183,-1.3167,-1.3113,-1.2906,-1.2879,-1.2988,-1.2748,-1.2678,-1.2743,-1.2672,-1.2629,-1.2629,-1.2591,-1.2634,-1.2585,-1.2634,-1.2634,-1.2634,-1.2634,-1.2585,-1.264,-1.2716,-1.2754,-1.2765,-1.2846,-1.2901,-1.2967,-1.2852,-1.2765,-1.2694,-1.2683,-1.2683,-1.2683,-1.271,-1.2748,-1.2803,-1.2835,-1.289,-1.2977,-1.2982,-1.2982,-1.2977,-1.2901,-1.2852,-1.2852,-1.2852,-1.2835,-1.2814,-1.2868,-1.2868,-1.2814,-1.2776,-1.2754,-1.2748,-1.265,-1.2678,-1.2585,-1.2564,-1.2667,-1.2743,-1.2754,-1.2797,-1.2873,-1.2912,-1.2939,-1.295,-1.3047,-1.3118,-1.3107,-1.3047,-1.3026,-1.3037,-1.2922,-1.2808,-1.2879,-1.296,-1.2959,-1.302,-1.1539,-0.9718,-0.7355,-0.5668,-0.4739,-0.3601,-0.2322,-0.1188,0.0842,0.1749,0.2869,0.2704,0.3023,0.3288,0.3302,0.3314,0.3318,0.3321,0.3325,0.3329,0.3337,0.3339,0.3345,-1.3781,-1.3765,-1.3656,-1.3618,-1.3607,-1.3613,-1.3607,-1.3607,-1.3607,-1.3542,-1.3466,-1.3553,-1.3466,-1.3197,-1.3336,-1.3221,-1.2955,-1.2999,-1.2982,-1.2922,-1.2873,-1.2868,-1.2879,-1.2873,-1.2863,-1.2841,-1.2835,-1.2846,-1.2857,-1.2863,-1.2873,-1.2868,-1.2852,-1.2863,-1.2857,-1.2857,-1.2879,-1.2873,-1.2884,-1.2939,-1.3093,-1.3047,-1.3087,-1.3037,-1.3042,-1.3031,-1.3042,-1.3145,-1.3151,-1.3053,-1.3134,-1.3154,-1.3216,-1.3165,-1.3159,-1.3159,-1.3154,-1.32,-1.3143,-1.3132,-1.3145,-1.3053,-1.296,-1.2939,-1.302,-1.295,-1.2971,-1.3116,-1.3064,-1.2939,-1.277,-1.2786,-1.2841,-1.2863,-1.2873,-1.2873,-1.2884,-1.2971,-1.3047,-1.3064,-1.314,-1.3221,-1.3181,-1.3176,-1.3156,-1.3107,-1.3058,-1.3054,-1.2906,-1.2901,-1.2906,-1.2912,-1.2611,-1.1964,-0.9848,-0.8353,-0.6564,-0.5406,-0.4846,-0.3817,-0.2027,-0.0357,0.0974,0.2266,0.2835,0.3151,0.3265,0.3321,0.3321,0.3326,0.334,0.3348,0.3341,0.3382,0.3386,-1.3949,-1.3944,-1.39,-1.3787,-1.3727,-1.3722,-1.3678,-1.3607,-1.3607,-1.358,-1.3548,-1.3586,-1.3466,-1.3197,-1.3316,-1.3308,-1.3113,-1.3009,-1.2971,-1.2988,-1.2922,-1.289,-1.289,-1.289,-1.289,-1.289,-1.289,-1.289,-1.289,-1.289,-1.289,-1.289,-1.289,-1.289,-1.289,-1.289,-1.289,-1.289,-1.289,-1.2944,-1.3114,-1.3069,-1.314,-1.3281,-1.3216,-1.3178,-1.3178,-1.3165,-1.3165,-1.3178,-1.3165,-1.3238,-1.3238,-1.3238,-1.3238,-1.3238,-1.3238,-1.3238,-1.3238,-1.3238,-1.317,-1.3183,-1.314,-1.3124,-1.3162,-1.314,-1.3151,-1.3211,-1.3211,-1.3124,-1.3053,-1.296,-1.289,-1.289,-1.289,-1.2901,-1.2895,-1.2928,-1.3005,-1.2982,-1.3118,-1.3235,-1.3385,-1.3336,-1.3176,-1.3172,-1.3053,-1.295,-1.2906,-1.289,-1.289,-1.289,-1.289,-1.265,-1.2074,-1.1151,-1.0007,-0.8647,-0.759,-0.6283,-0.4698,-0.248,-0.0965,0.0511,0.154,0.268,0.2732,0.3256,0.3258,0.3262,0.333,0.3335,0.3337,0.3358,0.337,-1.3972,-1.396,-1.3955,-1.3836,-1.3738,-1.3727,-1.3684,-1.3607,-1.3602,-1.358,-1.3558,-1.3586,-1.3471,-1.3235,-1.3311,-1.3352,-1.3227,-1.3037,-1.2971,-1.2999,-1.2922,-1.289,-1.289,-1.289,-1.289,-1.289,-1.289,-1.289,-1.289,-1.289,-1.289,-1.289,-1.289,-1.289,-1.2895,-1.2928,-1.295,-1.295,-1.2982,-1.3064,-1.3162,-1.314,-1.3238,-1.3423,-1.3311,-1.3268,-1.3352,-1.3357,-1.3305,-1.33,-1.3268,-1.3246,-1.3246,-1.3284,-1.3305,-1.3305,-1.3305,-1.3305,-1.3305,-1.3357,-1.3357,-1.3346,-1.323,-1.3208,-1.3284,-1.3287,-1.3224,-1.3325,-1.3262,-1.3246,-1.3219,-1.3151,-1.3064,-1.3053,-1.3026,-1.302,-1.3047,-1.3031,-1.3015,-1.3047,-1.3189,-1.3368,-1.3488,-1.3385,-1.3246,-1.3197,-1.3064,-1.2944,-1.2901,-1.289,-1.289,-1.289,-1.289,-1.289,-1.2606,-1.2139,-1.1929,-1.0818,-1.0112,-0.8851,-0.7239,-0.498,-0.3024,-0.147,0.0102,0.1482,0.246,0.3033,0.3242,0.3244,0.33,0.3306,0.3311,0.3318,0.3333,-1.3999,-1.3819,-1.3792,-1.3743,-1.3645,-1.364,-1.3618,-1.3607,-1.3607,-1.3548,-1.3488,-1.3553,-1.3477,-1.3257,-1.3322,-1.3352,-1.3181,-1.3118,-1.3026,-1.2944,-1.2912,-1.2906,-1.2956,-1.2895,-1.289,-1.289,-1.289,-1.289,-1.289,-1.289,-1.289,-1.289,-1.289,-1.289,-1.289,-1.3033,-1.3098,-1.3058,-1.3129,-1.3265,-1.3333,-1.3241,-1.33,-1.3553,-1.3471,-1.3455,-1.3569,-1.358,-1.3564,-1.3553,-1.3466,-1.3417,-1.3406,-1.3493,-1.358,-1.3558,-1.358,-1.3591,-1.3586,-1.3575,-1.3564,-1.3542,-1.3379,-1.3305,-1.3471,-1.3385,-1.3352,-1.3482,-1.3477,-1.3423,-1.3433,-1.3417,-1.339,-1.3401,-1.3281,-1.3265,-1.333,-1.3298,-1.3186,-1.3186,-1.3284,-1.336,-1.3428,-1.336,-1.3311,-1.3213,-1.314,-1.3065,-1.2933,-1.2906,-1.289,-1.289,-1.289,-1.289,-1.289,-1.289,-1.284,-1.2684,-1.2279,-1.1423,-0.9757,-0.7744,-0.5834,-0.4141,-0.1567,-0.0051,0.2287,0.2852,0.3102,0.3154,0.3214,0.3276,0.3279,0.3287,0.3305,-1.3966,-1.3906,-1.3901,-1.3836,-1.3738,-1.3732,-1.3689,-1.3607,-1.3607,-1.358,-1.3558,-1.3591,-1.3515,-1.3401,-1.3354,-1.3357,-1.3186,-1.3148,-1.3116,-1.3124,-1.3047,-1.3015,-1.3049,-1.2928,-1.289,-1.289,-1.289,-1.289,-1.289,-1.289,-1.289,-1.289,-1.289,-1.289,-1.289,-1.2928,-1.2944,-1.3011,-1.3064,-1.3178,-1.3292,-1.3289,-1.3392,-1.3569,-1.3488,-1.3444,-1.3477,-1.3558,-1.3558,-1.3482,-1.3439,-1.3333,-1.3284,-1.3412,-1.3477,-1.3488,-1.3564,-1.3607,-1.3607,-1.3607,-1.3607,-1.3591,-1.352,-1.3482,-1.3488,-1.3482,-1.3466,-1.3499,-1.3515,-1.3575,-1.3651,-1.3673,-1.3607,-1.3439,-1.3385,-1.3385,-1.3354,-1.3268,-1.3241,-1.33,-1.3395,-1.3455,-1.3504,-1.3488,-1.3417,-1.3305,-1.3205,-1.3104,-1.3015,-1.2939,-1.289,-1.289,-1.289,-1.289,-1.289,-1.289,-1.289,-1.289,-1.284,-1.2784,-1.1423,-1.0312,-0.8446,-0.6235,-0.3673,-0.1159,0.1211,0.2576,0.2827,0.3078,0.3193,0.3197,0.3246,0.3257,0.3276,-1.3988,-1.3949,-1.3949,-1.3825,-1.3727,-1.3722,-1.3678,-1.3607,-1.3607,-1.3607,-1.3602,-1.3607,-1.3564,-1.3499,-1.3488,-1.3444,-1.3327,-1.3374,-1.3322,-1.3346,-1.32,-1.3134,-1.3129,-1.3058,-1.2993,-1.296,-1.2955,-1.2933,-1.289,-1.289,-1.289,-1.289,-1.289,-1.289,-1.2895,-1.2933,-1.2955,-1.2971,-1.308,-1.3189,-1.3287,-1.3336,-1.3412,-1.3499,-1.3417,-1.3336,-1.3303,-1.3406,-1.3433,-1.3316,-1.33,-1.3246,-1.32,-1.3235,-1.3374,-1.3428,-1.3488,-1.3553,-1.3591,-1.3607,-1.3607,-1.3597,-1.352,-1.3461,-1.3417,-1.345,-1.3374,-1.3379,-1.3455,-1.3569,-1.364,-1.3792,-1.376,-1.364,-1.3635,-1.358,-1.3504,-1.3379,-1.3308,-1.3352,-1.339,-1.3455,-1.3493,-1.3537,-1.3488,-1.3455,-1.3287,-1.3134,-1.3102,-1.2988,-1.2933,-1.289,-1.289,-1.289,-1.289,-1.289,-1.289,-1.289,-1.289,-1.289,-1.2279,-1.1723,-1.0412,-0.7747,-0.5183,-0.2569,-0.0151,0.1717,0.2576,0.2827,0.2979,0.3183,0.3238,0.3235,0.3249,-1.3928,-1.3781,-1.3776,-1.3716,-1.3618,-1.3618,-1.3613,-1.3607,-1.3607,-1.3607,-1.3607,-1.3607,-1.3602,-1.3602,-1.3586,-1.3575,-1.3597,-1.3575,-1.3564,-1.3515,-1.3379,-1.3213,-1.317,-1.32,-1.3151,-1.3086,-1.308,-1.3026,-1.295,-1.2928,-1.2901,-1.2917,-1.2901,-1.289,-1.2901,-1.3004,-1.3031,-1.3037,-1.3145,-1.3259,-1.3357,-1.3246,-1.3298,-1.3401,-1.3292,-1.3189,-1.3134,-1.3183,-1.3176,-1.3176,-1.3176,-1.3178,-1.3107,-1.3167,-1.323,-1.3368,-1.3401,-1.3477,-1.3558,-1.3575,-1.3591,-1.3586,-1.3444,-1.3241,-1.3322,-1.3281,-1.3211,-1.3238,-1.3357,-1.3444,-1.352,-1.3727,-1.3949,-1.4015,-1.3977,-1.3836,-1.364,-1.3515,-1.3439,-1.3295,-1.3311,-1.3439,-1.3471,-1.3542,-1.3586,-1.3569,-1.3406,-1.3276,-1.3205,-1.3096,-1.2939,-1.2895,-1.289,-1.289,-1.289,-1.289,-1.289,-1.289,-1.289,-1.289,-1.289,-1.2484,-1.1628,-0.9055,-0.6894,-0.4229,-0.1765,0.0101,0.1717,0.2273,0.2575,0.2979,0.313,0.3029,0.3081,-1.3678,-1.3651,-1.3651,-1.3635,-1.3607,-1.3607,-1.3607,-1.3607,-1.3607,-1.3607,-1.3607,-1.3607,-1.3607,-1.3607,-1.3607,-1.3607,-1.376,-1.3708,-1.3607,-1.3597,-1.3548,-1.3343,-1.3219,-1.3192,-1.3176,-1.32,-1.3348,-1.3127,-1.314,-1.3362,-1.3228,-1.302,-1.3145,-1.3001,-1.2901,-1.2933,-1.2933,-1.2955,-1.3053,-1.3129,-1.3172,-1.3221,-1.3197,-1.3213,-1.3178,-1.3107,-1.3064,-1.3009,-1.3031,-1.3107,-1.3118,-1.3058,-1.2971,-1.3053,-1.314,-1.3183,-1.3249,-1.3289,-1.3439,-1.3471,-1.351,-1.3597,-1.3499,-1.3444,-1.3241,-1.3314,-1.3249,-1.3211,-1.3292,-1.3455,-1.3553,-1.3722,-1.389,-1.4059,-1.4064,-1.3983,-1.3798,-1.3711,-1.3645,-1.3542,-1.3531,-1.3531,-1.3553,-1.3569,-1.3635,-1.3662,-1.3526,-1.3357,-1.3298,-1.314,-1.2955,-1.2906,-1.289,-1.289,-1.289,-1.289,-1.289,-1.289,-1.289,-1.289,-1.289,-1.279,-1.1573,-0.9811,-0.8804,-0.6592,-0.3929,-0.1613,-0.0252,0.0959,0.1616,0.1766,0.2373,0.2576,0.2827,-1.3607,-1.3607,-1.3607,-1.3607,-1.3607,-1.3607,-1.3607,-1.3607,-1.3607,-1.3607,-1.3607,-1.3607,-1.3607,-1.3607,-1.3607,-1.4177,-1.4908,-1.4961,-1.5592,-1.6479,-1.6571,-1.544,-1.3938,-1.339,-1.3316,-1.3417,-1.4289,-1.4659,-1.4912,-1.545,-1.5468,-1.4796,-1.4476,-1.3985,-1.3042,-1.2982,-1.3016,-1.2971,-1.3044,-1.3065,-1.3125,-1.3134,-1.3156,-1.3162,-1.3102,-1.3104,-1.2999,-1.2928,-1.2928,-1.2982,-1.2993,-1.296,-1.2906,-1.295,-1.302,-1.3064,-1.3134,-1.3216,-1.3314,-1.3295,-1.3322,-1.3423,-1.3417,-1.3314,-1.3194,-1.3194,-1.3113,-1.3042,-1.3216,-1.3357,-1.3466,-1.3645,-1.3857,-1.401,-1.4059,-1.4004,-1.3922,-1.3809,-1.3732,-1.3635,-1.3564,-1.3553,-1.3586,-1.3558,-1.3624,-1.3673,-1.3504,-1.3423,-1.3316,-1.3156,-1.2988,-1.2922,-1.289,-1.289,-1.289,-1.289,-1.289,-1.289,-1.289,-1.289,-1.289,-1.289,-1.2284,-1.1173,-1.0312,-0.9005,-0.6391,-0.4028,-0.2569,-0.1411,-0.0353,0.0706,0.1363,0.1616,0.1919,-1.3607,-1.3607,-1.3607,-1.3607,-1.3607,-1.3607,-1.3607,-1.3607,-1.3607,-1.3813,-1.4077,-1.4024,-1.4546,-1.4288,-1.5172,-1.554,-1.7259,-1.7259,-1.835,-1.9238,-1.9446,-1.8008,-1.5286,-1.5117,-1.497,-1.5054,-1.6378,-1.6931,-1.7368,-1.8834,-1.865,-1.7363,-1.6942,-1.5966,-1.5004,-1.4288,-1.3898,-1.4273,-1.4516,-1.4585,-1.4443,-1.4208,-1.3898,-1.379,-1.3199,-1.3044,-1.2928,-1.289,-1.2895,-1.289,-1.289,-1.2895,-1.289,-1.289,-1.2939,-1.3015,-1.3098,-1.3102,-1.3148,-1.317,-1.3186,-1.3197,-1.3178,-1.308,-1.308,-1.3031,-1.2966,-1.2917,-1.3051,-1.3203,-1.3346,-1.3591,-1.3781,-1.3901,-1.3977,-1.4009,-1.3977,-1.3847,-1.3738,-1.3602,-1.3482,-1.3493,-1.3499,-1.3499,-1.3482,-1.3597,-1.3444,-1.3305,-1.3292,-1.3145,-1.2999,-1.2906,-1.289,-1.289,-1.289,-1.289,-1.289,-1.289,-1.289,-1.289,-1.289,-1.289,-1.289,-1.2384,-1.1523,-1.0513,-0.9055,-0.6994,-0.5285,-0.3827,-0.282,-0.1159,0.0252,0.0252,0.0404,-1.3607,-1.3607,-1.3607,-1.3607,-1.3607,-1.3607,-1.3655,-1.3708,-1.3708,-1.4856,-1.5901,-1.6216,-1.7154,-1.8716,-1.8455,-1.9185,-1.955,-1.9655,-1.9967,-2.0123,-2.0279,-1.9967,-1.8872,-1.8872,-1.8745,-1.8752,-1.9176,-1.9516,-1.9764,-2.0055,-1.9895,-1.9478,-1.923,-1.8924,-1.8323,-1.785,-1.8414,-1.8407,-1.8268,-1.8,-1.7596,-1.6435,-1.5688,-1.5581,-1.4039,-1.3128,-1.2951,-1.289,-1.289,-1.289,-1.289,-1.289,-1.289,-1.289,-1.2906,-1.2928,-1.2939,-1.2988,-1.308,-1.3107,-1.3145,-1.3148,-1.3178,-1.3167,-1.3075,-1.3093,-1.2977,-1.2955,-1.3046,-1.3203,-1.3379,-1.3624,-1.3732,-1.3754,-1.3836,-1.396,-1.3895,-1.3803,-1.37,-1.3537,-1.345,-1.3401,-1.3289,-1.3278,-1.3357,-1.3398,-1.3338,-1.3224,-1.3189,-1.3113,-1.302,-1.2917,-1.289,-1.289,-1.289,-1.289,-1.289,-1.289,-1.289,-1.289,-1.289,-1.289,-1.289,-1.284,-1.2634,-1.1573,-1.0513,-0.9811,-0.7998,-0.664,-0.5233,-0.3776,-0.2519,-0.2016,-0.0858,-1.3607,-1.3607,-1.3607,-1.3607,-1.376,-1.4704,-1.5172,-1.5382,-1.6374,-1.7363,-1.8298,-1.8507,-1.9238,-2.0279,-2.0331,-2.0748,-2.1993,-2.2986,-2.34,-2.3503,-2.3503,-2.3451,-2.34,-2.3089,-2.2624,-2.1007,-2.1423,-2.1786,-2.2019,-2.2627,-2.2923,-2.1792,-2.1669,-2.0892,-2.0219,-2.0161,-1.9865,-1.9782,-1.992,-1.9887,-1.961,-1.8796,-1.8036,-1.761,-1.5944,-1.4869,-1.6064,-1.3857,-1.3684,-1.3828,-1.3484,-1.294,-1.294,-1.289,-1.289,-1.289,-1.289,-1.2912,-1.2971,-1.2988,-1.3009,-1.3069,-1.3075,-1.3042,-1.2999,-1.3038,-1.3011,-1.2944,-1.3053,-1.3221,-1.3406,-1.3575,-1.364,-1.3651,-1.3711,-1.376,-1.3727,-1.3749,-1.3722,-1.3548,-1.3466,-1.3354,-1.3295,-1.3197,-1.3186,-1.3273,-1.3265,-1.3156,-1.3127,-1.3107,-1.3037,-1.2955,-1.2912,-1.289,-1.289,-1.289,-1.289,-1.289,-1.289,-1.289,-1.289,-1.289,-1.289,-1.284,-1.279,-1.2634,-1.1723,-1.1118,-1.0417,-0.8854,-0.7396,-0.6391,-0.5135,-0.3778,-0.2419,-1.413,-1.413,-1.444,-1.4598,-1.4908,-1.663,-1.7416,-1.7723,-1.9446,-2.0123,-2.08,-2.08,-2.1163,-2.1423,-2.163,-2.2572,-2.408,-2.5594,-2.6118,-2.617,-2.6118,-2.6118,-2.6221,-2.5902,-2.4863,-2.1786,-2.3193,-2.4029,-2.4606,-2.5697,-2.5286,-2.4277,-2.4071,-2.3437,-2.1819,-2.1277,-2.1695,-2.1831,-2.1827,-2.1654,-2.1324,-2.0874,-2.0275,-1.9181,-1.8094,-1.7616,-1.8081,-1.6392,-1.4757,-1.5834,-1.4333,-1.3534,-1.3334,-1.299,-1.289,-1.289,-1.289,-1.2895,-1.2906,-1.2901,-1.2906,-1.289,-1.2895,-1.2901,-1.2901,-1.2906,-1.2901,-1.2944,-1.3037,-1.3194,-1.3322,-1.3537,-1.3591,-1.3586,-1.3586,-1.3607,-1.3624,-1.37,-1.3673,-1.3569,-1.3428,-1.3284,-1.3276,-1.32,-1.3143,-1.3127,-1.3113,-1.3086,-1.3107,-1.3107,-1.3042,-1.2988,-1.2939,-1.2895,-1.289,-1.289,-1.289,-1.289,-1.289,-1.289,-1.289,-1.289,-1.289,-1.289,-1.284,-1.2684,-1.2684,-1.2229,-1.1423,-1.0417,-0.9811,-0.9005,-0.7396,-0.5436,-0.413,-1.6367,-1.6525,-1.8402,-1.9185,-1.9185,-1.9602,-1.9759,-1.9811,-2.0331,-2.1423,-2.2934,-2.3089,-2.408,-2.5121,-2.5748,-2.6067,-2.617,-2.6745,-2.6899,-2.6899,-2.6899,-2.6899,-2.6899,-2.6847,-2.6272,-2.617,-2.6118,-2.6005,-2.617,-2.6694,-2.6529,-2.6272,-2.617,-2.5645,-2.5481,-2.5707,-2.5082,-2.4867,-2.4909,-2.4991,-2.4706,-2.3568,-2.2097,-2.0765,-1.9786,-1.9796,-1.9856,-1.9131,-1.7886,-1.6476,-1.5817,-1.5565,-1.5267,-1.4133,-1.3484,-1.3484,-1.3534,-1.3684,-1.3334,-1.309,-1.299,-1.289,-1.289,-1.289,-1.289,-1.289,-1.289,-1.2939,-1.3064,-1.3176,-1.3213,-1.3461,-1.3531,-1.3515,-1.3548,-1.3602,-1.3613,-1.3635,-1.3618,-1.352,-1.3385,-1.3208,-1.3216,-1.3145,-1.308,-1.308,-1.3075,-1.308,-1.3118,-1.3113,-1.3069,-1.3015,-1.2955,-1.2917,-1.289,-1.289,-1.289,-1.289,-1.289,-1.289,-1.289,-1.289,-1.289,-1.289,-1.289,-1.284,-1.284,-1.289,-1.2584,-1.1678,-1.1573,-1.1523,-0.9761,-0.7801,-0.6243,-1.8664,-1.8768,-1.9863,-2.0279,-2.0488,-2.1578,-2.1993,-2.2201,-2.3193,-2.4287,-2.5069,-2.5378,-2.5851,-2.6694,-2.6899,-2.6899,-2.6899,-2.6899,-2.6899,-2.6899,-2.6899,-2.6899,-2.6899,-2.6899,-2.6899,-2.6847,-2.6847,-2.6899,-2.6899,-2.6847,-2.6899,-2.6847,-2.6899,-2.6899,-2.6899,-2.6683,-2.6899,-2.6899,-2.6899,-2.6899,-2.6899,-2.5563,-2.4421,-2.3619,-2.2369,-2.2323,-2.2843,-2.0561,-1.9966,-1.9631,-1.8594,-1.8018,-1.7483,-1.6942,-1.6155,-1.6155,-1.6006,-1.5509,-1.4763,-1.447,-1.4121,-1.304,-1.294,-1.289,-1.289,-1.289,-1.289,-1.2928,-1.3026,-1.3178,-1.3186,-1.3412,-1.3488,-1.3531,-1.3569,-1.3597,-1.3618,-1.3656,-1.3607,-1.352,-1.3433,-1.333,-1.3194,-1.3107,-1.2982,-1.2971,-1.3015,-1.3069,-1.3129,-1.3124,-1.3096,-1.3042,-1.2982,-1.2917,-1.289,-1.289,-1.289,-1.289,-1.289,-1.289,-1.289,-1.289,-1.289,-1.289,-1.289,-1.289,-1.289,-1.289,-1.289,-1.289,-1.2534,-1.2079,-1.1423,-1.0212,-0.8503,-2.0955,-2.0955,-2.1423,-2.163,-2.195,-2.3451,-2.4287,-2.4657,-2.6005,-2.6632,-2.6899,-2.6847,-2.6796,-2.6899,-2.6899,-2.6899,-2.6899,-2.6899,-2.6899,-2.6899,-2.6899,-2.6899,-2.6899,-2.6899,-2.6899,-2.6899,-2.6899,-2.6899,-2.6899,-2.6899,-2.6899,-2.6899,-2.6899,-2.6899,-2.6899,-2.6899,-2.6899,-2.6899,-2.6899,-2.6899,-2.6899,-2.6899,-2.6899,-2.6837,-2.5052,-2.49,-2.5602,-2.3507,-2.2191,-2.2076,-2.1356,-2.0258,-2.0208,-2.0031,-2.0095,-2.0258,-1.9758,-1.827,-1.7182,-1.5893,-1.5111,-1.4027,-1.3184,-1.299,-1.289,-1.289,-1.289,-1.2912,-1.3004,-1.3129,-1.3181,-1.3352,-1.3471,-1.3564,-1.3597,-1.3607,-1.3624,-1.3656,-1.3684,-1.3607,-1.3515,-1.3395,-1.3254,-1.3058,-1.2933,-1.2982,-1.3026,-1.3086,-1.314,-1.3151,-1.3129,-1.3069,-1.3004,-1.2922,-1.289,-1.289,-1.289,-1.289,-1.289,-1.289,-1.289,-1.289,-1.289,-1.289,-1.289,-1.289,-1.289,-1.289,-1.289,-1.289,-1.289,-1.2634,-1.2079,-1.1473,-1.0266,-2.3193,-2.34,-2.5275,-2.6118,-2.6016,-2.6221,-2.6426,-2.6426,-2.6745,-2.6899,-2.6899,-2.6899,-2.6899,-2.6899,-2.6899,-2.6899,-2.6899,-2.6899,-2.6899,-2.6899,-2.6899,-2.6899,-2.6899,-2.6899,-2.6899,-2.6899,-2.6899,-2.6899,-2.6899,-2.6899,-2.6899,-2.6899,-2.6899,-2.6899,-2.6899,-2.6899,-2.6899,-2.6899,-2.6899,-2.6899,-2.6899,-2.6899,-2.6899,-2.6785,-2.6548,-2.6352,-2.6729,-2.5409,-2.4952,-2.3441,-2.3068,-2.2569,-2.241,-2.2354,-2.3267,-2.3111,-2.1673,-1.9117,-1.8673,-1.7627,-1.6439,-1.5503,-1.4221,-1.3184,-1.289,-1.289,-1.289,-1.2895,-1.2993,-1.3113,-1.3176,-1.3341,-1.3466,-1.3553,-1.3607,-1.3607,-1.3618,-1.3678,-1.3705,-1.3711,-1.3629,-1.3466,-1.3257,-1.3086,-1.2906,-1.2977,-1.3042,-1.3107,-1.314,-1.3151,-1.3096,-1.302,-1.2988,-1.2912,-1.289,-1.289,-1.289,-1.289,-1.289,-1.289,-1.289,-1.289,-1.289,-1.289,-1.289,-1.289,-1.289,-1.289,-1.289,-1.289,-1.289,-1.289,-1.284,-1.2229,-1.1573,-2.5491,-2.5543,-2.6478,-2.6899,-2.6899,-2.6899,-2.6899,-2.6899,-2.6899,-2.6899,-2.6899,-2.6899,-2.6899,-2.6899,-2.6899,-2.6899,-2.6899,-2.6899,-2.6899,-2.6899,-2.6899,-2.6899,-2.6899,-2.6899,-2.6899,-2.6899,-2.6899,-2.6899,-2.6899,-2.6899,-2.6899,-2.6899,-2.6899,-2.6899,-2.6899,-2.6899,-2.6899,-2.6899,-2.6899,-2.6899,-2.6899,-2.6899,-2.6899,-2.6899,-2.6899,-2.6899,-2.6866,-2.6823,-2.6432,-2.5349,-2.5175,-2.5072,-2.4858,-2.4734,-2.4963,-2.5243,-2.405,-2.2368,-2.1134,-2.0053,-1.8961,-1.7528,-1.585,-1.4321,-1.3384,-1.289,-1.289,-1.289,-1.2933,-1.3047,-1.3143,-1.3281,-1.3423,-1.3531,-1.3602,-1.3607,-1.3624,-1.3694,-1.3738,-1.3743,-1.3738,-1.3586,-1.3439,-1.3276,-1.3096,-1.3042,-1.3113,-1.3178,-1.3172,-1.3134,-1.3047,-1.2928,-1.2912,-1.2895,-1.289,-1.289,-1.289,-1.289,-1.289,-1.289,-1.289,-1.289,-1.289,-1.289,-1.289,-1.289,-1.289,-1.289,-1.289,-1.289,-1.289,-1.289,-1.289,-1.284,-1.2179,-2.6899,-2.6899,-2.6899,-2.6899,-2.6899,-2.6899,-2.6899,-2.6899,-2.6899,-2.6899,-2.6899,-2.6899,-2.6899,-2.6899,-2.6899,-2.6899,-2.6899,-2.6899,-2.6899,-2.6899,-2.6899,-2.6899,-2.6899,-2.6899,-2.6899,-2.6899,-2.6899,-2.6899,-2.6899,-2.6899,-2.6899,-2.6899,-2.6899,-2.6899,-2.6899,-2.6899,-2.6899,-2.6899,-2.6899,-2.6899,-2.6899,-2.6899,-2.6899,-2.6899,-2.6899,-2.6899,-2.6899,-2.6888,-2.6837,-2.6743,-2.6523,-2.6323,-2.6246,-2.5972,-2.5819,-2.5899,-2.5166,-2.46,-2.3385,-2.2366,-2.1535,-1.9798,-1.743,-1.5211,-1.4121,-1.3434,-1.289,-1.289,-1.2895,-1.302,-1.3121,-1.3192,-1.3379,-1.351,-1.3607,-1.3607,-1.3613,-1.3667,-1.3732,-1.3776,-1.3781,-1.377,-1.3629,-1.3488,-1.3336,-1.3178,-1.3183,-1.3208,-1.3154,-1.314,-1.3015,-1.2895,-1.289,-1.289,-1.289,-1.289,-1.289,-1.289,-1.289,-1.289,-1.289,-1.289,-1.289,-1.289,-1.289,-1.289,-1.289,-1.289,-1.289,-1.289,-1.289,-1.289,-1.289,-1.289,-1.279,-2.6899,-2.6899,-2.6899,-2.6899,-2.6899,-2.6899,-2.6899,-2.6899,-2.6899,-2.6899,-2.6899,-2.6899,-2.6899,-2.6899,-2.6899,-2.6899,-2.6899,-2.6899,-2.6899,-2.6899,-2.6899,-2.6899,-2.6899,-2.6899,-2.6899,-2.6899,-2.6899,-2.6899,-2.6899,-2.6899,-2.6899,-2.6899,-2.6899,-2.6899,-2.6899,-2.6899,-2.6899,-2.6899,-2.6899,-2.6899,-2.6899,-2.6899,-2.6899,-2.6899,-2.6899,-2.6899,-2.6899,-2.6899,-2.6899,-2.6899,-2.6845,-2.6799,-2.6648,-2.6498,-2.6347,-2.6196,-2.5981,-2.5546,-2.4931,-2.3738,-2.2525,-2.1085,-1.906,-1.6637,-1.585,-1.3928,-1.3184,-1.3184,-1.3184,-1.3004,-1.31,-1.3265,-1.3357,-1.351,-1.3607,-1.3607,-1.3607,-1.3607,-1.3684,-1.3776,-1.3809,-1.3803,-1.3798,-1.3656,-1.3542,-1.339,-1.3325,-1.3338,-1.3176,-1.3134,-1.2993,-1.2895,-1.289,-1.289,-1.289,-1.289,-1.289,-1.289,-1.289,-1.289,-1.289,-1.289,-1.289,-1.289,-1.289,-1.289,-1.289,-1.289,-1.289,-1.289,-1.289,-1.289,-1.289,-1.289,-1.289,-2.6899,-2.6899,-2.6899,-2.6899,-2.6899,-2.6899,-2.6899,-2.6899,-2.6899,-2.6899,-2.6899,-2.6899,-2.6899,-2.6899,-2.6899,-2.6899,-2.6899,-2.6899,-2.6899,-2.6899,-2.6899,-2.6899,-2.6899,-2.6899,-2.6899,-2.6899,-2.6899,-2.6899,-2.6899,-2.6899,-2.6899,-2.6899,-2.6899,-2.6899,-2.6899,-2.6899,-2.6899,-2.6899,-2.6899,-2.6899,-2.6899,-2.6899,-2.6899,-2.6899,-2.6899,-2.6899,-2.6899,-2.6899,-2.6899,-2.6899,-2.6899,-2.6823,-2.6788,-2.667,-2.6562,-2.6444,-2.6218,-2.6056,-2.5873,-2.4789,-2.3853,-2.2368,-2.079,-1.9355,-1.8023,-1.5999,-1.5061,-1.457,-1.3634,-1.329,-1.3138,-1.3197,-1.3273,-1.3515,-1.3607,-1.3607,-1.3607,-1.3607,-1.364,-1.3738,-1.3803,-1.383,-1.383,-1.3819,-1.3716,-1.3613,-1.3558,-1.3477,-1.3314,-1.3162,-1.3031,-1.2933,-1.2922,-1.2895,-1.2895,-1.289,-1.289,-1.289,-1.289,-1.289,-1.289,-1.289,-1.289,-1.289,-1.289,-1.289,-1.289,-1.289,-1.289,-1.289,-1.289,-1.289,-1.289,-1.289,-1.289,-2.6899,-2.6899,-2.6899,-2.6899,-2.6899,-2.6899,-2.6899,-2.6899,-2.6899,-2.6899,-2.6899,-2.6899,-2.6899,-2.6899,-2.6899,-2.6899,-2.6899,-2.6899,-2.6899,-2.6899,-2.6899,-2.6899,-2.6899,-2.6899,-2.6899,-2.6899,-2.6899,-2.6899,-2.6899,-2.6899,-2.6899,-2.6899,-2.6899,-2.6899,-2.6899,-2.6899,-2.6899,-2.6899,-2.6899,-2.6899,-2.6899,-2.6899,-2.6899,-2.6899,-2.6899,-2.6899,-2.6899,-2.6899,-2.6899,-2.6899,-2.6899,-2.6899,-2.6834,-2.6759,-2.6713,-2.6616,-2.6465,-2.625,-2.6056,-2.5576,-2.4859,-2.3697,-2.2515,-2.1379,-2.0094,-1.8171,-1.6885,-1.5701,-1.4576,-1.3681,-1.3558,-1.3197,-1.3295,-1.3537,-1.3597,-1.3607,-1.3607,-1.3607,-1.3645,-1.37,-1.376,-1.3825,-1.3874,-1.3868,-1.3803,-1.3694,-1.3597,-1.3515,-1.339,-1.3243,-1.3102,-1.302,-1.2971,-1.2933,-1.2895,-1.2901,-1.2895,-1.289,-1.289,-1.289,-1.289,-1.289,-1.289,-1.289,-1.289,-1.289,-1.289,-1.289,-1.289,-1.289,-1.289,-1.289,-1.289,-1.289,-1.289,-2.6899,-2.6899,-2.6899,-2.6899,-2.6899,-2.6899,-2.6899,-2.6899,-2.6899,-2.6899,-2.6899,-2.6899,-2.6899,-2.6899,-2.6899,-2.6899,-2.6899,-2.6899,-2.6899,-2.6899,-2.6899,-2.6899,-2.6899,-2.6899,-2.6899,-2.6899,-2.6899,-2.6899,-2.6899,-2.6899,-2.6899,-2.6899,-2.6899,-2.6899,-2.6899,-2.6899,-2.6899,-2.6899,-2.6899,-2.6899,-2.6899,-2.6899,-2.6899,-2.6899,-2.6899,-2.6899,-2.6899,-2.6899,-2.6899,-2.6899,-2.6899,-2.6899,-2.6877,-2.6866,-2.6834,-2.6823,-2.6692,-2.6573,-2.6508,-2.5895,-2.5382,-2.4945,-2.3746,-2.276,-2.2026,-2.0389,-1.8616,-1.7677,-1.6026,-1.4906,-1.4102,-1.3265,-1.3406,-1.3515,-1.358,-1.3607,-1.3607,-1.3607,-1.364,-1.3656,-1.3722,-1.3798,-1.3874,-1.3906,-1.3857,-1.3765,-1.3651,-1.3553,-1.3471,-1.3336,-1.32,-1.3118,-1.3058,-1.3009,-1.2971,-1.2922,-1.2956,-1.2895,-1.289,-1.289,-1.289,-1.289,-1.289,-1.289,-1.289,-1.289,-1.289,-1.289,-1.289,-1.289,-1.289,-1.289,-1.289,-1.289,-1.289,-2.6899,-2.6899,-2.6899,-2.6899,-2.6899,-2.6899,-2.6899,-2.6899,-2.6899,-2.6899,-2.6899,-2.6899,-2.6899,-2.6899,-2.6899,-2.6899,-2.6899,-2.6899,-2.6899,-2.6899,-2.6899,-2.6899,-2.6899,-2.6899,-2.6899,-2.6899,-2.6899,-2.6899,-2.6899,-2.6899,-2.6899,-2.6899,-2.6899,-2.6899,-2.6899,-2.6899,-2.6899,-2.6899,-2.6899,-2.6899,-2.6899,-2.6899,-2.6899,-2.6899,-2.6899,-2.6899,-2.6899,-2.6899,-2.6899,-2.6899,-2.6899,-2.6899,-2.6899,-2.6899,-2.6899,-2.6899,-2.677,-2.6745,-2.6573,-2.6175,-2.5841,-2.5376,-2.4918,-2.4284,-2.4194,-2.2515,-2.1134,-1.9701,-1.7804,-1.6552,-1.5488,-1.3985,-1.3653,-1.36,-1.3607,-1.3607,-1.3607,-1.3607,-1.3618,-1.3618,-1.3662,-1.3678,-1.3732,-1.3885,-1.3885,-1.3857,-1.3754,-1.3722,-1.3656,-1.3477,-1.3268,-1.3186,-1.3116,-1.3107,-1.3058,-1.302,-1.2955,-1.2922,-1.2906,-1.289,-1.289,-1.289,-1.289,-1.289,-1.289,-1.289,-1.289,-1.289,-1.289,-1.289,-1.289,-1.289,-1.289,-1.289,-1.289,-2.6899,-2.6899,-2.6899,-2.6899,-2.6899,-2.6899,-2.6899,-2.6899,-2.6899,-2.6899,-2.6899,-2.6899,-2.6899,-2.6899,-2.6899,-2.6899,-2.6899,-2.6899,-2.6899,-2.6899,-2.6899,-2.6899,-2.6899,-2.6899,-2.6899,-2.6899,-2.6899,-2.6899,-2.6899,-2.6899,-2.6899,-2.6899,-2.6899,-2.6899,-2.6899,-2.6899,-2.6899,-2.6899,-2.6899,-2.6899,-2.6899,-2.6899,-2.6899,-2.6899,-2.6899,-2.6899,-2.6899,-2.6899,-2.6899,-2.6899,-2.6899,-2.6899,-2.6899,-2.6899,-2.6899,-2.6899,-2.6877,-2.681,-2.6584,-2.6465,-2.6142,-2.5764,-2.5776,-2.5766,-2.5619,-2.4421,-2.3316,-2.1858,-1.9758,-1.8131,-1.6762,-1.5154,-1.4354,-1.4353,-1.3655,-1.366,-1.3607,-1.3607,-1.3607,-1.3607,-1.3607,-1.3607,-1.3624,-1.3787,-1.3912,-1.389,-1.3922,-1.3889,-1.3798,-1.3607,-1.3433,-1.3305,-1.3235,-1.3232,-1.3183,-1.314,-1.3064,-1.2966,-1.295,-1.295,-1.289,-1.289,-1.289,-1.289,-1.289,-1.289,-1.289,-1.289,-1.289,-1.289,-1.289,-1.289,-1.289,-1.289,-1.289,-2.6899,-2.6899,-2.6899,-2.6899,-2.6899,-2.6899,-2.6899,-2.6899,-2.6899,-2.6899,-2.6899,-2.6899,-2.6899,-2.6899,-2.6899,-2.6899,-2.6899,-2.6899,-2.6899,-2.6899,-2.6899,-2.6899,-2.6899,-2.6899,-2.6899,-2.6899,-2.6899,-2.6899,-2.6899,-2.6899,-2.6899,-2.6899,-2.6899,-2.6899,-2.6899,-2.6899,-2.6899,-2.6899,-2.6899,-2.6899,-2.6899,-2.6899,-2.6899,-2.6899,-2.6899,-2.6899,-2.6899,-2.6899,-2.6899,-2.6899,-2.6899,-2.6899,-2.6899,-2.6899,-2.6899,-2.6899,-2.6899,-2.681,-2.6692,-2.6605,-2.6519,-2.6232,-2.6211,-2.62,-2.6015,-2.5642,-2.4865,-2.3888,-2.2191,-2.0036,-1.813,-1.6903,-1.5722,-1.4907,-1.386,-1.3708,-1.3607,-1.3607,-1.3607,-1.3607,-1.3607,-1.3607,-1.3624,-1.3749,-1.3874,-1.3874,-1.39,-1.3819,-1.377,-1.3678,-1.3531,-1.3466,-1.3406,-1.3311,-1.3262,-1.3254,-1.3183,-1.3091,-1.3069,-1.3053,-1.2977,-1.2912,-1.2912,-1.2917,-1.2895,-1.289,-1.289,-1.289,-1.289,-1.289,-1.289,-1.289,-1.289,-1.289,-1.289,-2.6899,-2.6899,-2.6899,-2.6899,-2.6899,-2.6899,-2.6899,-2.6899,-2.6899,-2.6899,-2.6899,-2.6899,-2.6899,-2.6899,-2.6899,-2.6899,-2.6899,-2.6899,-2.6899,-2.6899,-2.6899,-2.6899,-2.6899,-2.6899,-2.6899,-2.6899,-2.6899,-2.6899,-2.6899,-2.6899,-2.6899,-2.6899,-2.6899,-2.6899,-2.6899,-2.6899,-2.6899,-2.6899,-2.6899,-2.6899,-2.6899,-2.6899,-2.6899,-2.6899,-2.6899,-2.6899,-2.6899,-2.6899,-2.6899,-2.6899,-2.6899,-2.6899,-2.6899,-2.6899,-2.6899,-2.6899,-2.6899,-2.6856,-2.6802,-2.6791,-2.6727,-2.6662,-2.6652,-2.6447,-2.6318,-2.6122,-2.5882,-2.5081,-2.4133,-2.2103,-2.0163,-1.8773,-1.7273,-1.5863,-1.4651,-1.3655,-1.3607,-1.3607,-1.3607,-1.3607,-1.3607,-1.3607,-1.3629,-1.3694,-1.3803,-1.3814,-1.3814,-1.3787,-1.3749,-1.3667,-1.3607,-1.3537,-1.351,-1.3466,-1.3423,-1.3368,-1.3241,-1.3176,-1.32,-1.3156,-1.3069,-1.3009,-1.2971,-1.2933,-1.2901,-1.289,-1.289,-1.289,-1.289,-1.289,-1.289,-1.289,-1.289,-1.289,-1.289,-2.6899,-2.6899,-2.6899,-2.6899,-2.6899,-2.6899,-2.6899,-2.6899,-2.6899,-2.6899,-2.6899,-2.6899,-2.6899,-2.6899,-2.6899,-2.6899,-2.6899,-2.6899,-2.6899,-2.6899,-2.6899,-2.6899,-2.6899,-2.6899,-2.6899,-2.6899,-2.6899,-2.6899,-2.6899,-2.6899,-2.6899,-2.6899,-2.6899,-2.6899,-2.6899,-2.6899,-2.6899,-2.6899,-2.6899,-2.6899,-2.6899,-2.6899,-2.6899,-2.6899,-2.6899,-2.6899,-2.6899,-2.6899,-2.6899,-2.6899,-2.6899,-2.6899,-2.6899,-2.6899,-2.6899,-2.6899,-2.6899,-2.6899,-2.6866,-2.6877,-2.6888,-2.6899,-2.6899,-2.6759,-2.6619,-2.6483,-2.6472,-2.6139,-2.5277,-2.4153,-2.2334,-2.0561,-1.873,-1.6944,-1.5329,-1.376,-1.3607,-1.3607,-1.3607,-1.3607,-1.3607,-1.3607,-1.3635,-1.3694,-1.3738,-1.3765,-1.377,-1.3743,-1.3716,-1.3673,-1.3624,-1.358,-1.3575,-1.3558,-1.3515,-1.3471,-1.3412,-1.33,-1.3273,-1.3265,-1.3172,-1.3075,-1.3015,-1.295,-1.2895,-1.289,-1.2895,-1.289,-1.289,-1.289,-1.289,-1.289,-1.289,-1.289,-1.289,-2.6899,-2.6899,-2.6899,-2.6899,-2.6899,-2.6899,-2.6899,-2.6899,-2.6899,-2.6899,-2.6899,-2.6899,-2.6899,-2.6899,-2.6899,-2.6899,-2.6899,-2.6899,-2.6899,-2.6899,-2.6899,-2.6899,-2.6899,-2.6899,-2.6899,-2.6899,-2.6899,-2.6899,-2.6899,-2.6899,-2.6899,-2.6899,-2.6899,-2.6899,-2.6899,-2.6899,-2.6899,-2.6899,-2.6899,-2.6899,-2.6899,-2.6899,-2.6899,-2.6899,-2.6899,-2.6899,-2.6899,-2.6899,-2.6899,-2.6899,-2.6899,-2.6899,-2.6899,-2.6899,-2.6899,-2.6899,-2.6899,-2.6899,-2.6899,-2.6899,-2.6899,-2.6899,-2.6899,-2.6856,-2.678,-2.6748,-2.6727,-2.6727,-2.5952,-2.5543,-2.4074,-2.2156,-2.0315,-1.8246,-1.6374,-1.4704,-1.3655,-1.3655,-1.3607,-1.3607,-1.3607,-1.3607,-1.3607,-1.3662,-1.3678,-1.3716,-1.3716,-1.3689,-1.3673,-1.3651,-1.3635,-1.3607,-1.3602,-1.3597,-1.3586,-1.3542,-1.352,-1.3482,-1.3444,-1.3327,-1.3281,-1.3167,-1.3047,-1.2999,-1.2955,-1.2912,-1.2901,-1.2895,-1.289,-1.289,-1.289,-1.289,-1.289,-1.289,-1.289,-2.6899,-2.6899,-2.6899,-2.6899,-2.6899,-2.6899,-2.6899,-2.6899,-2.6899,-2.6899,-2.6899,-2.6899,-2.6899,-2.6899,-2.6899,-2.6899,-2.6899,-2.6899,-2.6899,-2.6899,-2.6899,-2.6899,-2.6899,-2.6899,-2.6899,-2.6899,-2.6899,-2.6899,-2.6899,-2.6899,-2.6899,-2.6899,-2.6899,-2.6899,-2.6899,-2.6888,-2.6856,-2.6845,-2.6813,-2.6813,-2.6823,-2.6877,-2.6899,-2.6899,-2.6899,-2.6899,-2.6899,-2.6899,-2.6899,-2.6899,-2.6899,-2.6899,-2.6899,-2.6899,-2.6899,-2.6899,-2.6888,-2.6866,-2.6888,-2.6877,-2.6866,-2.6888,-2.6899,-2.6899,-2.6888,-2.6899,-2.6899,-2.6899,-2.6745,-2.6375,-2.5594,-2.3709,-2.1734,-1.9498,-1.7311,-1.554,-1.3813,-1.3655,-1.3607,-1.3607,-1.3607,-1.3607,-1.3607,-1.3613,-1.3624,-1.3629,-1.3635,-1.3624,-1.3635,-1.3618,-1.3624,-1.3607,-1.3607,-1.3602,-1.3607,-1.3602,-1.3569,-1.3564,-1.3537,-1.3466,-1.3338,-1.3281,-1.3167,-1.3086,-1.3082,-1.2982,-1.2933,-1.289,-1.289,-1.289,-1.289,-1.289,-1.289,-1.289,-1.289,-2.6899,-2.6899,-2.6899,-2.6899,-2.6899,-2.6899,-2.6899,-2.6899,-2.6899,-2.6899,-2.6899,-2.6899,-2.6899,-2.6899,-2.6899,-2.6899,-2.6899,-2.6899,-2.6899,-2.6899,-2.6899,-2.6899,-2.6899,-2.6899,-2.6899,-2.6899,-2.6899,-2.6899,-2.6899,-2.6899,-2.6899,-2.6899,-2.6899,-2.6888,-2.6877,-2.6813,-2.6799,-2.6778,-2.6662,-2.6609,-2.6652,-2.6748,-2.6877,-2.6899,-2.6888,-2.6888,-2.6899,-2.6899,-2.6899,-2.6899,-2.6899,-2.6899,-2.6899,-2.6899,-2.6899,-2.6856,-2.6823,-2.678,-2.6823,-2.6813,-2.6842,-2.6834,-2.6888,-2.6888,-2.6899,-2.6899,-2.6899,-2.6899,-2.6899,-2.658,-2.6005,-2.4441,-2.2304,-2.0071,-1.7827,-1.5849,-1.444,-1.3655,-1.3607,-1.3607,-1.3607,-1.3607,-1.3607,-1.3607,-1.3613,-1.3613,-1.3607,-1.3607,-1.3607,-1.3607,-1.3607,-1.3607,-1.3607,-1.3607,-1.3607,-1.3607,-1.3597,-1.3602,-1.3607,-1.352,-1.3428,-1.3368,-1.3292,-1.32,-1.3113,-1.3042,-1.2993,-1.295,-1.2901,-1.289,-1.289,-1.289,-1.289,-1.289,-1.289,-2.6899,-2.6899,-2.6899,-2.6899,-2.6899,-2.6899,-2.6899,-2.6899,-2.6899,-2.6899,-2.6899,-2.6899,-2.6899,-2.6899,-2.6899,-2.6899,-2.6899,-2.6899,-2.6899,-2.6899,-2.6899,-2.6899,-2.6899,-2.6899,-2.6899,-2.6899,-2.6899,-2.6899,-2.6899,-2.6899,-2.6899,-2.6899,-2.6888,-2.6877,-2.6791,-2.6724,-2.6605,-2.6519,-2.6372,-2.6243,-2.6372,-2.6566,-2.6694,-2.677,-2.6813,-2.6823,-2.6834,-2.6845,-2.6845,-2.6899,-2.6899,-2.6899,-2.6899,-2.6899,-2.6834,-2.6791,-2.6713,-2.6713,-2.6724,-2.6627,-2.6713,-2.6759,-2.6834,-2.6877,-2.6877,-2.6899,-2.6899,-2.6899,-2.6899,-2.6694,-2.6118,-2.5388,-2.3193,-2.08,-1.8559,-1.6111,-1.4803,-1.3708,-1.3607,-1.3607,-1.3607,-1.3607,-1.3607,-1.3607,-1.3607,-1.3607,-1.3607,-1.3607,-1.3607,-1.3607,-1.3607,-1.3607,-1.3607,-1.3607,-1.3607,-1.3607,-1.3607,-1.3607,-1.3597,-1.3537,-1.3482,-1.3455,-1.3395,-1.3292,-1.3211,-1.3156,-1.3075,-1.3015,-1.2966,-1.2922,-1.289,-1.289,-1.289,-1.289,-1.289,-2.6899,-2.6899,-2.6899,-2.6899,-2.6899,-2.6899,-2.6899,-2.6899,-2.6899,-2.6899,-2.695,-2.6899,-2.6899,-2.6899,-2.6899,-2.6899,-2.6899,-2.695,-2.6899,-2.6899,-2.7001,-2.695,-2.6899,-2.6899,-2.6899,-2.6899,-2.6899,-2.6899,-2.6899,-2.6899,-2.6899,-2.6899,-2.6877,-2.6791,-2.6659,-2.6541,-2.6433,-2.6315,-2.6239,-2.6093,-2.6125,-2.6254,-2.6286,-2.6318,-2.6318,-2.6487,-2.6584,-2.6648,-2.6727,-2.6834,-2.6899,-2.6899,-2.6877,-2.6866,-2.6791,-2.6735,-2.6605,-2.6519,-2.6487,-2.6422,-2.6458,-2.6681,-2.6745,-2.6832,-2.6813,-2.6899,-2.6899,-2.6899,-2.6899,-2.6899,-2.6529,-2.6529,-2.4966,-2.2149,-1.9655,-1.6787,-1.4598,-1.3971,-1.3607,-1.3607,-1.3607,-1.3607,-1.3607,-1.3607,-1.3607,-1.3607,-1.3607,-1.3607,-1.3607,-1.3607,-1.3607,-1.3607,-1.3607,-1.3607,-1.3607,-1.3607,-1.3607,-1.3607,-1.3602,-1.3564,-1.3553,-1.3575,-1.351,-1.3406,-1.3352,-1.3308,-1.3221,-1.3113,-1.3053,-1.3054,-1.2922,-1.289,-1.289,-1.289,-1.289]},{"header":{"parameterUnit":"m.s-1","parameterCategory":1,"la1":31.0,"la2":29.5877,"lo1":-88.7671,"lo2":-86.6584,"dx":0.0162,"dy":0.0185,"nx":115,"ny":88,"refTime":"2022-11-09T18:00:00:Z","depth":0,"parameterNumber":3,"parameterNumberName":"V-component_of_WINDS"},"data":[0.0,0.0,0.0,0.0,0.0,0.0,0.0,0.0,0.0,0.0,0.0,0.0,0.0,0.0,0.0,0.0,0.0,0.0,0.0,0.0,0.0,0.0,0.0,0.0,0.0,0.0,0.0,0.0,0.0,0.0,0.0,0.0,0.0,0.0,0.0,0.0,0.0,0.0,0.0,0.0,0.0,0.0,0.0,0.0,0.0,0.0,0.0,0.0,0.0,0.0,0.0,0.0,0.0,0.0,0.0,0.0,0.0,0.0,0.0,0.0,0.0,0.0,0.0,0.0,0.0,0.0,0.0,0.0,0.0,0.0,0.0,0.0,0.0,0.0,0.0,0.0,0.0,0.0,0.0,0.0,0.0,0.0,0.0,0.0,0.0,0.0,0.0,0.0,0.0,0.0,0.0,0.0,0.0,0.0,0.0,0.0,0.0,0.0,0.0,0.0,0.0,0.0,0.0,0.0,0.0,0.0,0.0,0.0,0.0,0.0,0.0,0.0,0.0,0.0,0.0,0.0,0.0,0.0,0.0,0.0,0.0,0.0,0.0,0.0,0.0,0.0,0.0,0.0,0.0,0.0,0.0,0.0,0.0,0.0,0.0,0.0,0.0,0.0,0.0,0.0,0.0,0.0,0.0,0.0,0.0,0.0,0.0,0.0,0.0,0.0,0.0,0.0,0.0,0.0,0.0,0.0,0.0,0.0,0.0,0.0,0.0,0.0,0.0,0.0,0.0,0.0,0.0,0.0,0.0,0.0,0.0,0.0,0.0,0.0,0.0,0.0,0.0,0.0,0.0,0.0,0.0,0.0,0.0,0.0,0.0,0.0,0.0,0.0,0.0,0.0,0.0,0.0,0.0,0.0,0.0,0.0,0.0,0.0,0.0,0.0,0.0,0.0,0.0,0.0,0.0,0.0,0.0,0.0,0.0,0.0,0.0,0.0,0.0,0.0,0.0,0.0,0.0,0.0,0.0,0.0,0.0,0.0,0.0,0.0,0.0,0.0,0.0,0.0,0.0,0.0,0.0,0.0,0.0,0.0,0.0,0.0,0.0,0.0,0.0,0.0,0.0,0.0,0.0,0.0,0.0,0.0,0.0,0.0,0.0,0.0,0.0,0.0,0.0,0.0,0.0,0.0,0.0,0.0,0.0,0.0,0.0,0.0,0.0,0.0,0.0,0.0,0.0,0.0,0.0,0.0,0.0,0.0,0.0,0.0,0.0,0.0,0.0,0.0,0.0,0.0,0.0,0.0,0.0,0.0,0.0,0.0,0.0,0.0,0.0,0.0,0.0,0.0,0.0,0.0,0.0,0.0,0.0,0.0,0.0,0.0,0.0,0.0,0.0,0.0,0.0,0.0,0.0,0.0,0.0,0.0,0.0,0.0,0.0,0.0,0.0,0.0,0.0,0.0,0.0,0.0,0.0,0.0,0.0,0.0,0.0,0.0,0.0,0.0,0.0,0.0,0.0,0.0,0.0,0.0,0.0,0.0,0.0,0.0,0.0,0.0,0.0,0.0,0.0,0.0,0.0,0.0,0.0,0.0,0.0,0.0,0.0,0.0,0.0,0.0,0.0,0.0,0.0,0.0,0.0,0.0,0.0,0.0,0.0,0.0,0.0,0.0,0.0,0.0,0.0,0.0,0.0,0.0,0.0,0.0,0.0,0.0,0.0,0.0,0.0,0.0,0.0,0.0,0.0,0.0,0.0,0.0,0.0,0.0,0.0,0.0,0.0,0.0,0.0,0.0,0.0,0.0,0.0,0.0,0.0,0.0,0.0,0.0,0.0,0.0,0.0,0.0,0.0,0.0,0.0,0.0,0.0,0.0,0.0,0.0,0.0,0.0,0.0,0.0,0.0,0.0,0.0,0.0,0.0,0.0,0.0,0.0,0.0,0.0,0.0,0.0,0.0,0.0,0.0,0.0,0.0,0.0,0.0,0.0,0.0,0.0,0.0,0.0,0.0,0.0,0.0,0.0,0.0,0.0,0.0,0.0,0.0,0.0,0.0,0.0,0.0,0.0,0.0,0.0,0.0,0.0,0.0,0.0,0.0,0.0,0.0,0.0,0.0,0.0,0.0,0.0,0.0,0.0,0.0,0.0,0.0,0.0,0.0,0.0,0.0,0.0,0.0,0.0,0.0,0.0,0.0,0.0,0.0,0.0,0.0,0.0,0.0,0.0,0.0,0.0,0.0,0.0,0.0,0.0,0.0,0.0,0.0,0.0,0.0,0.0,0.0,0.0,0.0,0.0,0.0,0.0,0.0,0.0,0.0,0.0,0.0,0.0,0.0,0.0,0.0,0.0,0.0,0.0,0.0,0.0,0.0,0.0,0.0,0.0,0.0,0.0,0.0,0.0,0.0,0.0,0.0,0.0,0.0,0.0,0.0,0.0,0.0,0.0,0.0,0.0,0.0,0.0,0.0,0.0,0.0,0.0,0.0,0.0,0.0,0.0,0.0,0.0,0.0,0.0,0.0,0.0,0.0,0.0,0.0,0.0,0.0,0.0,0.0,0.0,0.0,0.0,0.0,0.0,0.0,0.0,0.0,0.0,0.0,0.0,0.0,0.0,0.0,0.0,0.0,0.0,0.0,0.0,0.0,0.0,0.0,0.0,0.0,0.0,0.0,0.0,0.0,0.0,0.0,0.0,0.0,0.0,0.0,0.0,0.0,0.0,0.0,0.0,0.0,0.0,0.0,0.0,0.0,0.0,0.0,0.0,0.0,0.0,0.0,0.0,0.0,0.0,0.0,0.0,0.0,0.0,0.0,0.0,0.0,0.0,0.0,0.0,0.0,0.0,0.0,0.0,0.0,0.0,0.0,0.0,0.0,0.0,0.0,0.0,0.0,0.0,0.0,0.0,0.0,0.0,0.0,0.0,0.0,0.0,0.0,0.0,0.0,0.0,0.0,0.0,0.0,0.0,0.0,0.0,0.0,0.0,0.0,0.0,0.0,0.0,0.0,0.0,0.0,0.0,0.0,0.0,0.0,0.0,0.0,0.0,0.0,0.0,0.0,0.0,0.0,0.0,0.0,0.0,0.0,0.0,0.0,0.0,0.0,0.0,0.0,0.0,0.0,0.0,0.0,0.0,0.0,0.0,0.0,0.0,0.0,0.0,0.0,0.0,0.0,0.0,0.0,0.0,0.0,0.0,0.0,0.0,0.0,0.0,0.0,0.0,0.0,0.0,0.0,0.0,0.0,0.0,0.0,0.0,0.0,0.0,0.0,0.0,0.0,0.0,0.0,0.0,0.0,0.0,0.0,0.0,0.0,0.0,0.0,0.0,0.0,0.0,0.0,0.0,0.0,0.0,0.0,0.0,0.0,0.0,0.0,0.0,0.0,0.0,0.0,0.0,0.0,0.0,0.0,0.0,0.0,0.0,0.0,0.0,0.0,0.0,0.0,0.0,0.0,0.0,0.0,0.0,0.0,0.0,0.0,0.0,0.0,0.0,0.0,0.0,0.0,0.0,0.0,0.0,0.0,0.0,0.0,0.0,0.0,0.0,0.0,0.0,0.0,0.0,0.0,0.0,0.0,0.0,0.0,0.0,0.0,0.0,0.0,0.0,0.0,0.0,0.0,0.0,0.0,0.0,0.0,0.0,0.0,0.0,0.0,0.0,0.0,0.0,0.0,0.0,0.0,0.0,0.0,0.0,0.0,0.0,0.0,0.0,0.0,0.0,0.0,0.0,0.0,0.0,0.0,0.0,0.0,0.0,0.0,0.0,0.0,0.0,0.0,0.0,0.0,0.0,0.0,0.0,0.0,0.0,0.0,0.0,0.0,0.0,0.0,0.0,0.0,0.0,0.0,0.0,0.0,0.0,0.0,0.0,0.0,0.0,0.0,0.0,0.0,0.0,0.0,0.0,0.0,0.0,0.0,0.0,0.0,0.0,0.0,0.0,0.0,0.0,0.0,0.0,0.0,0.0,0.0,0.0,0.0,0.0,0.0,0.0,0.0,0.0,0.0,0.0,0.0,0.0,0.0,0.0,0.0,0.0,0.0,0.0,0.0,0.0,0.0,0.0,0.0,0.0,0.0,0.0,0.0,0.0,0.0,0.0,0.0,0.0,0.0,0.0,0.0,0.0,0.0,0.0,0.0,0.0,0.0,0.0,0.0,0.0,0.0,0.0,0.0,0.0,0.0,0.0,0.0,0.0,0.0,0.0,0.0,0.0,0.0,0.0,0.0,0.0,0.0,0.0,0.0,0.0,0.0,0.0,0.0,0.0,0.0,0.0,0.0,0.0,0.0,0.0,2.8987,0.0,0.0,0.0,2.8987,0.0,0.0,0.0,0.0,0.0,0.0,0.0,0.0,0.0,0.0,0.0,0.0,0.0,0.0,0.0,0.0,0.0,0.0,0.0,0.0,0.0,0.0,0.0,0.0,0.0,0.0,0.0,0.0,0.0,0.0,0.0,0.0,0.0,0.0,0.0,0.0,0.0,0.0,0.0,0.0,0.0,0.0,0.0,0.0,0.0,0.0,0.0,0.0,0.0,0.0,0.0,0.0,0.0,0.0,0.0,0.0,0.0,0.0,0.0,0.0,0.0,0.0,0.0,0.0,0.0,0.0,0.0,0.0,0.0,0.0,0.0,0.0,0.0,0.0,0.0,0.0,0.0,0.0,0.0,0.0,0.0,0.0,0.0,0.0,0.0,0.0,0.0,0.0,0.0,0.0,0.0,0.0,0.0,0.0,0.0,0.0,0.0,0.0,0.0,0.0,0.0,0.0,0.0,0.0,0.0,0.0,0.0,0.0,0.0,0.0,2.8987,2.8987,2.8987,2.9041,2.9038,0.0,0.0,0.0,0.0,0.0,0.0,0.0,0.0,0.0,0.0,0.0,0.0,0.0,0.0,0.0,0.0,0.0,0.0,0.0,0.0,0.0,0.0,0.0,0.0,0.0,0.0,0.0,0.0,0.0,0.0,0.0,0.0,0.0,0.0,0.0,0.0,0.0,0.0,0.0,0.0,0.0,0.0,0.0,0.0,0.0,0.0,0.0,0.0,0.0,0.0,0.0,0.0,0.0,0.0,0.0,0.0,0.0,0.0,0.0,0.0,0.0,0.0,0.0,0.0,0.0,0.0,0.0,0.0,0.0,0.0,0.0,0.0,0.0,0.0,0.0,0.0,0.0,0.0,0.0,0.0,0.0,0.0,0.0,0.0,0.0,0.0,0.0,0.0,0.0,0.0,0.0,0.0,0.0,0.0,0.0,0.0,0.0,0.0,0.0,0.0,0.0,0.0,0.0,0.0,0.0,0.0,0.0,0.0,0.0,0.0,0.0,0.0,2.8987,2.9015,2.9095,0.0,0.0,0.0,0.0,0.0,0.0,0.0,0.0,0.0,0.0,0.0,0.0,0.0,0.0,0.0,0.0,0.0,0.0,0.0,0.0,0.0,0.0,0.0,0.0,0.0,0.0,0.0,0.0,0.0,0.0,0.0,0.0,0.0,0.0,0.0,0.0,0.0,0.0,0.0,0.0,0.0,0.0,0.0,0.0,0.0,0.0,0.0,0.0,0.0,0.0,0.0,0.0,0.0,0.0,0.0,0.0,0.0,0.0,0.0,0.0,0.0,0.0,0.0,0.0,0.0,0.0,0.0,0.0,0.0,0.0,0.0,0.0,0.0,0.0,0.0,0.0,0.0,0.0,0.0,0.0,0.0,0.0,0.0,0.0,0.0,0.0,0.0,0.0,0.0,0.0,0.0,0.0,0.0,0.0,0.0,0.0,0.0,0.0,0.0,0.0,0.0,0.0,0.0,0.0,0.0,0.0,0.0,0.0,0.0,0.0,2.8987,2.8987,2.8987,0.0,2.9089,0.0,0.0,0.0,0.0,0.0,0.0,0.0,0.0,0.0,0.0,0.0,0.0,0.0,0.0,0.0,0.0,0.0,0.0,0.0,0.0,0.0,0.0,0.0,0.0,0.0,0.0,0.0,0.0,0.0,0.0,0.0,0.0,0.0,0.0,0.0,0.0,0.0,0.0,0.0,0.0,0.0,0.0,0.0,0.0,0.0,0.0,0.0,0.0,0.0,0.0,0.0,0.0,0.0,0.0,0.0,0.0,0.0,0.0,0.0,0.0,0.0,0.0,0.0,0.0,0.0,0.0,0.0,0.0,0.0,0.0,0.0,0.0,0.0,0.0,0.0,0.0,0.0,0.0,0.0,0.0,0.0,0.0,0.0,0.0,0.0,0.0,0.0,0.0,0.0,0.0,0.0,0.0,0.0,0.0,0.0,0.0,0.0,0.0,0.0,0.0,0.0,0.0,0.0,0.0,0.0,0.0,0.0,0.0,0.0,0.0,2.8987,2.8987,2.9067,2.9123,0.0,0.0,0.0,0.0,0.0,0.0,0.0,0.0,0.0,0.0,0.0,0.0,0.0,0.0,0.0,0.0,0.0,0.0,0.0,0.0,0.0,0.0,0.0,0.0,0.0,0.0,0.0,0.0,0.0,0.0,0.0,0.0,0.0,0.0,0.0,0.0,0.0,0.0,0.0,0.0,0.0,0.0,0.0,0.0,0.0,0.0,0.0,0.0,0.0,0.0,0.0,0.0,0.0,0.0,0.0,0.0,0.0,0.0,0.0,0.0,0.0,0.0,0.0,0.0,0.0,0.0,0.0,0.0,0.0,0.0,0.0,0.0,0.0,0.0,0.0,0.0,0.0,0.0,0.0,0.0,0.0,0.0,0.0,0.0,0.0,0.0,0.0,0.0,0.0,0.0,0.0,0.0,0.0,0.0,0.0,0.0,0.0,0.0,0.0,0.0,0.0,0.0,0.0,0.0,0.0,0.0,0.0,0.0,0.0,0.0,2.8987,2.9035,2.9015,2.9134,2.92,2.9253,0.0,0.0,0.0,0.0,0.0,0.0,0.0,0.0,0.0,0.0,0.0,0.0,0.0,0.0,0.0,0.0,0.0,0.0,0.0,0.0,0.0,0.0,0.0,0.0,0.0,0.0,0.0,0.0,0.0,0.0,0.0,0.0,0.0,0.0,0.0,0.0,0.0,0.0,0.0,0.0,0.0,0.0,0.0,0.0,0.0,0.0,0.0,0.0,0.0,0.0,0.0,0.0,0.0,0.0,0.0,0.0,0.0,0.0,0.0,0.0,0.0,0.0,0.0,0.0,0.0,0.0,0.0,0.0,0.0,0.0,0.0,0.0,0.0,0.0,0.0,0.0,0.0,0.0,0.0,0.0,0.0,0.0,0.0,0.0,0.0,0.0,0.0,0.0,0.0,0.0,0.0,0.0,0.0,0.0,0.0,0.0,0.0,0.0,0.0,0.0,0.0,0.0,0.0,0.0,0.0,0.0,0.0,0.0,2.9023,2.9023,2.9058,2.912,2.9198,2.9253,0.0,0.0,0.0,0.0,0.0,0.0,0.0,0.0,0.0,0.0,0.0,0.0,0.0,0.0,0.0,0.0,0.0,0.0,0.0,0.0,0.0,0.0,0.0,0.0,0.0,0.0,0.0,0.0,0.0,0.0,0.0,0.0,0.0,0.0,0.0,0.0,0.0,0.0,0.0,0.0,0.0,0.0,0.0,0.0,0.0,0.0,0.0,0.0,0.0,0.0,0.0,0.0,0.0,0.0,0.0,0.0,0.0,0.0,0.0,0.0,0.0,0.0,0.0,0.0,0.0,0.0,0.0,0.0,0.0,0.0,0.0,0.0,0.0,0.0,0.0,0.0,0.0,0.0,0.0,0.0,0.0,0.0,0.0,0.0,0.0,0.0,0.0,0.0,0.0,0.0,0.0,0.0,0.0,0.0,0.0,0.0,0.0,0.0,0.0,0.0,0.0,0.0,0.0,0.0,0.0,0.0,0.0,0.0,0.0,3.0575,3.0653,3.043,2.9974,2.9987,2.9804,0.0,0.0,0.0,0.0,0.0,0.0,0.0,0.0,0.0,0.0,0.0,0.0,0.0,0.0,0.0,0.0,0.0,0.0,0.0,0.0,0.0,0.0,0.0,0.0,0.0,0.0,0.0,0.0,0.0,0.0,0.0,0.0,0.0,0.0,0.0,0.0,0.0,0.0,0.0,0.0,0.0,0.0,0.0,0.0,0.0,0.0,0.0,0.0,0.0,0.0,0.0,0.0,0.0,0.0,0.0,0.0,0.0,0.0,0.0,0.0,0.0,0.0,0.0,0.0,0.0,0.0,0.0,0.0,0.0,0.0,0.0,0.0,0.0,0.0,0.0,0.0,0.0,0.0,0.0,0.0,0.0,0.0,0.0,0.0,0.0,0.0,0.0,0.0,0.0,0.0,0.0,0.0,0.0,0.0,0.0,0.0,0.0,0.0,0.0,0.0,0.0,0.0,0.0,0.0,0.0,0.0,0.0,0.0,0.0,3.15,3.1602,3.1384,3.0883,3.0934,3.059,0.0,0.0,0.0,0.0,0.0,0.0,0.0,0.0,0.0,0.0,0.0,0.0,0.0,0.0,0.0,0.0,0.0,0.0,0.0,0.0,0.0,0.0,0.0,0.0,0.0,0.0,0.0,0.0,0.0,0.0,0.0,0.0,0.0,0.0,0.0,0.0,0.0,0.0,0.0,0.0,0.0,0.0,0.0,0.0,0.0,0.0,0.0,0.0,0.0,0.0,0.0,0.0,0.0,0.0,0.0,0.0,0.0,0.0,0.0,0.0,0.0,0.0,0.0,0.0,0.0,0.0,0.0,0.0,0.0,0.0,0.0,0.0,0.0,0.0,0.0,0.0,0.0,0.0,0.0,0.0,0.0,0.0,0.0,0.0,0.0,0.0,0.0,0.0,0.0,0.0,0.0,0.0,0.0,0.0,0.0,0.0,0.0,0.0,0.0,0.0,0.0,0.0,0.0,0.0,0.0,0.0,0.0,0.0,3.1731,3.1725,3.1826,3.2007,3.1855,3.1953,3.1539,0.0,0.0,0.0,0.0,0.0,0.0,0.0,0.0,0.0,0.0,0.0,0.0,0.0,0.0,0.0,0.0,0.0,0.0,0.0,0.0,0.0,0.0,0.0,0.0,0.0,0.0,0.0,0.0,0.0,0.0,0.0,0.0,0.0,0.0,0.0,0.0,0.0,0.0,0.0,0.0,0.0,0.0,0.0,0.0,0.0,0.0,0.0,0.0,0.0,0.0,0.0,0.0,0.0,0.0,0.0,0.0,0.0,0.0,0.0,0.0,0.0,0.0,0.0,0.0,0.0,0.0,0.0,0.0,0.0,0.0,0.0,0.0,0.0,0.0,0.0,0.0,0.0,0.0,0.0,0.0,0.0,0.0,0.0,0.0,0.0,0.0,0.0,0.0,0.0,0.0,0.0,0.0,0.0,0.0,0.0,0.0,0.0,0.0,0.0,0.0,0.0,0.0,0.0,0.0,0.0,0.0,0.0,0.0,0.0,3.5364,3.5911,3.5684,3.4667,3.404,3.3312,0.0,0.0,0.0,0.0,0.0,0.0,0.0,0.0,0.0,0.0,0.0,0.0,0.0,0.0,0.0,0.0,0.0,0.0,0.0,0.0,0.0,0.0,0.0,0.0,0.0,0.0,0.0,0.0,0.0,0.0,0.0,0.0,0.0,0.0,0.0,0.0,0.0,0.0,0.0,0.0,0.0,0.0,0.0,0.0,0.0,0.0,0.0,0.0,0.0,0.0,0.0,0.0,0.0,0.0,0.0,0.0,0.0,0.0,0.0,0.0,0.0,0.0,0.0,0.0,0.0,0.0,0.0,0.0,0.0,0.0,0.0,0.0,0.0,0.0,0.0,0.0,0.0,0.0,0.0,0.0,0.0,0.0,0.0,0.0,0.0,0.0,0.0,0.0,0.0,0.0,0.0,0.0,0.0,0.0,0.0,0.0,0.0,0.0,0.0,0.0,0.0,0.0,0.0,0.0,0.0,0.0,0.0,0.0,0.0,4.0094,3.9835,3.9157,3.791,3.6998,3.5851,3.4352,0.0,0.0,0.0,0.0,0.0,0.0,0.0,0.0,0.0,0.0,0.0,0.0,0.0,0.0,0.0,0.0,0.0,0.0,0.0,0.0,0.0,0.0,0.0,0.0,0.0,0.0,0.0,0.0,0.0,0.0,0.0,0.0,0.0,0.0,0.0,0.0,0.0,0.0,0.0,0.0,0.0,0.0,0.0,0.0,0.0,0.0,0.0,0.0,0.0,0.0,0.0,0.0,0.0,0.0,0.0,0.0,0.0,0.0,0.0,0.0,0.0,0.0,0.0,0.0,0.0,0.0,0.0,0.0,0.0,0.0,0.0,0.0,0.0,0.0,0.0,0.0,0.0,0.0,0.0,0.0,0.0,0.0,0.0,0.0,0.0,0.0,0.0,0.0,0.0,0.0,0.0,0.0,0.0,0.0,0.0,0.0,0.0,0.0,0.0,0.0,0.0,0.0,0.0,0.0,0.0,0.0,0.0,0.0,4.5393,4.385,4.2583,4.1456,4.0523,3.8882,0.0,0.0,0.0,0.0,0.0,0.0,0.0,0.0,0.0,0.0,0.0,0.0,0.0,0.0,0.0,0.0,0.0,0.0,0.0,0.0,0.0,0.0,0.0,0.0,0.0,0.0,0.0,0.0,0.0,0.0,0.0,0.0,0.0,0.0,0.0,0.0,0.0,0.0,0.0,0.0,0.0,0.0,0.0,0.0,0.0,0.0,0.0,0.0,0.0,0.0,0.0,0.0,0.0,0.0,0.0,0.0,0.0,0.0,0.0,0.0,0.0,0.0,0.0,0.0,0.0,0.0,0.0,0.0,0.0,0.0,0.0,0.0,0.0,0.0,0.0,0.0,0.0,0.0,0.0,0.0,0.0,0.0,0.0,0.0,0.0,0.0,0.0,0.0,0.0,0.0,0.0,0.0,0.0,0.0,0.0,0.0,0.0,0.0,0.0,0.0,0.0,0.0,0.0,0.0,0.0,0.0,0.0,0.0,0.0,4.9034,5.0428,4.8947,4.4411,4.2158,4.0395,0.0,0.0,0.0,0.0,0.0,0.0,0.0,0.0,0.0,0.0,0.0,0.0,0.0,0.0,0.0,0.0,0.0,0.0,0.0,0.0,0.0,0.0,0.0,0.0,0.0,0.0,0.0,0.0,0.0,0.0,0.0,0.0,0.0,0.0,0.0,0.0,0.0,0.0,0.0,0.0,0.0,0.0,0.0,0.0,0.0,0.0,0.0,0.0,0.0,0.0,0.0,0.0,0.0,0.0,0.0,0.0,0.0,0.0,0.0,0.0,0.0,0.0,0.0,0.0,0.0,0.0,0.0,0.0,0.0,0.0,0.0,0.0,0.0,0.0,0.0,0.0,0.0,0.0,0.0,0.0,0.0,0.0,0.0,0.0,0.0,0.0,0.0,0.0,0.0,0.0,0.0,0.0,0.0,0.0,0.0,0.0,0.0,0.0,0.0,0.0,0.0,0.0,0.0,0.0,0.0,0.0,0.0,0.0,5.0829,5.2083,5.3936,5.3053,4.925,4.6253,4.3746,0.0,0.0,0.0,0.0,0.0,0.0,0.0,0.0,0.0,0.0,0.0,0.0,0.0,0.0,0.0,0.0,0.0,0.0,0.0,0.0,0.0,0.0,0.0,0.0,0.0,0.0,0.0,0.0,0.0,0.0,0.0,0.0,0.0,0.0,0.0,0.0,0.0,0.0,0.0,0.0,0.0,0.0,0.0,0.0,0.0,0.0,0.0,0.0,0.0,0.0,0.0,0.0,0.0,0.0,0.0,0.0,0.0,0.0,0.0,0.0,0.0,0.0,0.0,0.0,0.0,0.0,0.0,0.0,0.0,0.0,0.0,0.0,0.0,0.0,0.0,0.0,0.0,0.0,0.0,0.0,0.0,0.0,0.0,0.0,0.0,0.0,0.0,0.0,0.0,0.0,0.0,0.0,0.0,0.0,0.0,0.0,0.0,0.0,0.0,0.0,0.0,0.0,0.0,0.0,0.0,0.0,0.0,0.0,5.3278,5.5012,5.5835,5.5824,5.4934,5.1343,4.7689,0.0,0.0,0.0,0.0,0.0,0.0,0.0,0.0,0.0,0.0,0.0,0.0,0.0,0.0,0.0,0.0,0.0,0.0,0.0,0.0,0.0,0.0,0.0,0.0,0.0,0.0,0.0,0.0,0.0,0.0,0.0,0.0,0.0,0.0,0.0,0.0,0.0,0.0,0.0,0.0,0.0,0.0,0.0,0.0,0.0,0.0,0.0,0.0,0.0,0.0,0.0,0.0,0.0,0.0,0.0,0.0,0.0,0.0,0.0,0.0,0.0,0.0,0.0,0.0,0.0,0.0,0.0,0.0,0.0,0.0,0.0,0.0,0.0,0.0,0.0,0.0,0.0,0.0,0.0,0.0,0.0,0.0,0.0,0.0,0.0,0.0,0.0,0.0,0.0,0.0,0.0,0.0,0.0,0.0,0.0,0.0,0.0,0.0,0.0,0.0,0.0,0.0,0.0,0.0,0.0,0.0,0.0,0.0,5.6977,5.9276,5.9598,5.9319,5.8434,5.314,4.8685,0.0,0.0,0.0,0.0,0.0,0.0,0.0,0.0,0.0,0.0,0.0,0.0,0.0,0.0,0.0,0.0,0.0,0.0,0.0,0.0,0.0,0.0,0.0,0.0,0.0,0.0,0.0,0.0,0.0,0.0,0.0,0.0,0.0,0.0,0.0,0.0,0.0,0.0,0.0,0.0,0.0,0.0,0.0,0.0,0.0,0.0,0.0,0.0,3.7728,0.0,0.0,0.0,0.0,0.0,0.0,0.0,0.0,0.0,0.0,0.0,0.0,0.0,0.0,0.0,0.0,0.0,0.0,0.0,0.0,0.0,0.0,0.0,0.0,0.0,0.0,0.0,0.0,0.0,0.0,0.0,0.0,0.0,0.0,0.0,0.0,0.0,0.0,0.0,0.0,0.0,0.0,0.0,0.0,0.0,0.0,0.0,0.0,0.0,0.0,0.0,0.0,0.0,0.0,0.0,0.0,0.0,0.0,0.0,5.9169,6.1278,6.1385,6.0979,6.0012,5.6643,5.2602,0.0,0.0,0.0,0.0,0.0,0.0,0.0,0.0,0.0,0.0,0.0,0.0,0.0,0.0,0.0,0.0,0.0,0.0,0.0,0.0,0.0,0.0,0.0,0.0,0.0,0.0,0.0,0.0,0.0,0.0,0.0,0.0,0.0,0.0,0.0,0.0,0.0,0.0,0.0,0.0,0.0,0.0,0.0,0.0,0.0,0.0,0.0,0.0,0.0,0.0,0.0,0.0,0.0,0.0,0.0,0.0,0.0,0.0,0.0,0.0,0.0,0.0,0.0,0.0,0.0,0.0,0.0,0.0,0.0,0.0,0.0,0.0,0.0,0.0,0.0,0.0,0.0,0.0,0.0,0.0,0.0,0.0,0.0,0.0,0.0,0.0,0.0,0.0,0.0,0.0,0.0,0.0,0.0,0.0,0.0,0.0,0.0,0.0,0.0,0.0,0.0,0.0,0.0,0.0,0.0,0.0,0.0,5.8319,6.0798,6.2595,6.2557,6.2133,6.1396,6.0281,5.7071,5.157,0.0,0.0,0.0,0.0,0.0,0.0,0.0,0.0,0.0,0.0,0.0,0.0,0.0,0.0,0.0,0.0,0.0,0.0,0.0,0.0,0.0,0.0,0.0,0.0,0.0,0.0,0.0,0.0,0.0,0.0,0.0,0.0,0.0,0.0,0.0,0.0,0.0,0.0,3.2632,3.5751,0.0,0.0,0.0,0.0,0.0,0.0,0.0,0.0,4.288,0.0,0.0,0.0,0.0,0.0,0.0,0.0,0.0,0.0,0.0,0.0,0.0,0.0,0.0,0.0,0.0,0.0,0.0,0.0,0.0,0.0,0.0,0.0,0.0,0.0,0.0,0.0,0.0,0.0,0.0,0.0,0.0,0.0,0.0,0.0,0.0,0.0,0.0,0.0,0.0,0.0,0.0,0.0,0.0,0.0,0.0,0.0,0.0,0.0,0.0,0.0,0.0,0.0,0.0,0.0,0.0,5.8688,6.0746,6.2881,6.5173,6.4551,6.4128,6.3935,6.1781,5.8781,5.4923,0.0,0.0,0.0,0.0,0.0,0.0,0.0,0.0,0.0,0.0,0.0,0.0,0.0,0.0,0.0,0.0,0.0,0.0,0.0,0.0,0.0,0.0,0.0,0.0,0.0,0.0,0.0,0.0,0.0,0.0,0.0,0.0,0.0,0.0,0.0,0.0,0.0,0.0,0.0,4.0521,4.2972,0.0,0.0,0.0,0.0,0.0,0.0,0.0,0.0,4.6156,0.0,0.0,0.0,0.0,0.0,0.0,0.0,0.0,0.0,0.0,0.0,0.0,0.0,0.0,0.0,0.0,0.0,0.0,0.0,0.0,0.0,0.0,0.0,0.0,0.0,0.0,0.0,0.0,0.0,0.0,0.0,0.0,0.0,0.0,0.0,0.0,0.0,0.0,0.0,0.0,0.0,0.0,0.0,0.0,0.0,0.0,0.0,0.0,0.0,0.0,0.0,0.0,0.0,0.0,0.0,6.0287,6.2495,6.4337,6.5903,6.5086,6.4622,6.4583,6.2974,6.0319,0.0,0.0,0.0,0.0,0.0,0.0,0.0,0.0,0.0,0.0,0.0,0.0,0.0,0.0,0.0,0.0,0.0,0.0,0.0,0.0,0.0,0.0,0.0,0.0,0.0,0.0,0.0,0.0,0.0,0.0,0.0,0.0,0.0,0.0,0.0,0.0,0.0,0.0,0.0,0.0,4.3954,4.6272,4.894,0.0,0.0,0.0,0.0,0.0,0.0,5.0513,4.9531,0.0,0.0,0.0,0.0,0.0,0.0,0.0,0.0,0.0,0.0,0.0,0.0,0.0,0.0,0.0,0.0,0.0,0.0,0.0,0.0,0.0,0.0,0.0,0.0,0.0,0.0,0.0,0.0,0.0,0.0,0.0,0.0,0.0,0.0,0.0,0.0,0.0,0.0,0.0,0.0,0.0,0.0,0.0,0.0,0.0,0.0,0.0,0.0,0.0,0.0,0.0,0.0,0.0,0.0,0.0,6.1683,6.4149,6.5813,6.6598,6.5843,6.5329,6.5137,6.4132,6.1683,0.0,0.0,0.0,0.0,0.0,0.0,0.0,0.0,0.0,0.0,0.0,0.0,0.0,0.0,0.0,0.0,0.0,0.0,0.0,0.0,0.0,0.0,0.0,0.0,0.0,0.0,0.0,0.0,0.0,0.0,0.0,0.0,0.0,0.0,0.0,0.0,0.0,0.0,0.0,0.0,0.0,4.9257,5.2759,5.262,0.0,0.0,0.0,0.0,5.3287,5.3228,0.0,0.0,0.0,0.0,0.0,0.0,0.0,0.0,0.0,0.0,0.0,0.0,0.0,0.0,0.0,0.0,0.0,0.0,0.0,0.0,0.0,0.0,0.0,0.0,0.0,0.0,0.0,0.0,0.0,0.0,0.0,0.0,0.0,0.0,0.0,0.0,0.0,0.0,0.0,0.0,0.0,0.0,0.0,0.0,0.0,0.0,0.0,0.0,0.0,0.0,0.0,0.0,0.0,0.0,0.0,0.0,6.3472,6.6125,6.7808,6.8513,6.836,6.7861,6.7098,6.5423,6.2897,0.0,0.0,0.0,0.0,0.0,0.0,0.0,0.0,0.0,0.0,0.0,0.0,0.0,0.0,0.0,0.0,0.0,0.0,0.0,0.0,0.0,0.0,0.0,0.0,0.0,0.0,0.0,0.0,0.0,0.0,0.0,0.0,0.0,0.0,0.0,0.0,0.0,0.0,0.0,0.0,0.0,5.1975,5.5394,5.5774,5.5669,0.0,0.0,5.5957,5.5964,5.6006,0.0,0.0,0.0,0.0,0.0,0.0,0.0,0.0,0.0,0.0,0.0,0.0,0.0,0.0,0.0,0.0,0.0,0.0,0.0,0.0,0.0,0.0,0.0,0.0,0.0,0.0,0.0,0.0,0.0,0.0,0.0,0.0,0.0,0.0,0.0,0.0,0.0,0.0,0.0,0.0,0.0,0.0,0.0,0.0,0.0,0.0,0.0,0.0,0.0,0.0,0.0,0.0,0.0,0.0,0.0,6.2391,6.5381,6.7052,6.7993,6.8313,6.8163,6.7881,6.7532,6.6254,6.4445,0.0,0.0,0.0,0.0,0.0,0.0,0.0,0.0,0.0,0.0,0.0,0.0,0.0,0.0,0.0,0.0,0.0,0.0,0.0,0.0,0.0,0.0,0.0,0.0,0.0,0.0,0.0,0.0,0.0,0.0,0.0,0.0,0.0,0.0,0.0,0.0,0.0,0.0,0.0,0.0,0.0,0.0,5.6902,5.8408,0.0,0.0,0.0,5.8282,5.736,0.0,0.0,0.0,0.0,0.0,0.0,0.0,0.0,0.0,0.0,0.0,0.0,0.0,0.0,0.0,0.0,0.0,0.0,0.0,0.0,0.0,0.0,0.0,0.0,0.0,0.0,0.0,0.0,0.0,0.0,0.0,0.0,0.0,0.0,0.0,0.0,0.0,0.0,0.0,0.0,0.0,0.0,0.0,0.0,0.0,0.0,0.0,0.0,0.0,0.0,0.0,0.0,0.0,0.0,0.0,0.0,0.0,6.7574,6.869,6.9248,6.9248,6.9062,6.8833,6.8642,6.7779,0.0,0.0,0.0,0.0,0.0,0.0,0.0,0.0,0.0,0.0,0.0,0.0,0.0,0.0,0.0,0.0,0.0,0.0,0.0,0.0,0.0,0.0,0.0,0.0,0.0,0.0,0.0,3.4913,0.0,0.0,0.0,0.0,0.0,0.0,0.0,0.0,0.0,0.0,0.0,0.0,0.0,0.0,5.6773,5.8962,6.1002,6.1854,0.0,0.0,6.055,5.93,5.9064,5.8172,0.0,0.0,0.0,0.0,0.0,0.0,0.0,0.0,0.0,0.0,0.0,0.0,0.0,0.0,0.0,0.0,0.0,0.0,0.0,0.0,0.0,0.0,0.0,0.0,0.0,0.0,0.0,0.0,0.0,0.0,0.0,0.0,0.0,0.0,0.0,0.0,0.0,0.0,0.0,0.0,0.0,0.0,0.0,0.0,0.0,0.0,0.0,0.0,0.0,0.0,0.0,0.0,0.0,0.0,6.7561,7.0191,7.2028,7.2915,7.2915,7.272,7.224,7.143,7.0522,6.8839,0.0,0.0,0.0,0.0,0.0,0.0,0.0,0.0,0.0,0.0,0.0,0.0,0.0,0.0,0.0,0.0,0.0,0.0,0.0,0.0,0.0,0.0,0.0,0.0,0.0,0.0,0.0,0.0,0.0,0.0,0.0,0.0,0.0,0.0,0.0,0.0,0.0,0.0,0.0,0.0,0.0,5.8974,6.2223,6.3542,6.413,0.0,6.3305,6.2779,6.2586,6.2533,6.1678,5.9057,0.0,0.0,0.0,0.0,0.0,0.0,0.0,0.0,0.0,0.0,0.0,0.0,0.0,0.0,0.0,0.0,0.0,0.0,0.0,0.0,0.0,0.0,0.0,0.0,0.0,0.0,0.0,0.0,0.0,0.0,0.0,0.0,0.0,0.0,0.0,0.0,0.0,0.0,0.0,0.0,0.0,0.0,0.0,0.0,0.0,0.0,0.0,0.0,0.0,0.0,0.0,0.0,0.0,6.9258,7.1344,7.3639,7.4564,7.4094,7.3953,7.3784,7.3435,7.2564,7.1113,0.0,0.0,0.0,0.0,0.0,0.0,0.0,0.0,0.0,0.0,0.0,0.0,0.0,0.0,0.0,0.0,0.0,0.0,0.0,0.0,0.0,0.0,0.0,0.0,0.0,0.0,0.0,0.0,4.7224,4.8537,4.9325,0.0,0.0,0.0,0.0,0.0,0.0,0.0,0.0,0.0,0.0,6.1383,6.3675,6.5159,0.0,0.0,6.3754,6.3681,6.3117,6.2578,6.1715,6.0243,5.8565,0.0,0.0,0.0,0.0,0.0,0.0,0.0,0.0,0.0,0.0,0.0,0.0,0.0,0.0,0.0,0.0,0.0,0.0,0.0,0.0,0.0,0.0,0.0,0.0,0.0,0.0,0.0,0.0,0.0,0.0,0.0,0.0,0.0,0.0,0.0,0.0,0.0,0.0,0.0,0.0,0.0,0.0,0.0,0.0,0.0,0.0,0.0,0.0,0.0,0.0,0.0,0.0,7.1697,7.3422,7.575,7.6556,7.5657,7.5657,7.5657,7.5657,7.4817,7.3661,0.0,0.0,0.0,0.0,0.0,0.0,0.0,0.0,0.0,0.0,0.0,0.0,0.0,0.0,0.0,0.0,0.0,0.0,0.0,0.0,0.0,0.0,0.0,0.0,0.0,0.0,0.0,0.0,5.1634,5.2105,5.0795,0.0,0.0,0.0,0.0,0.0,0.0,0.0,0.0,0.0,0.0,6.4226,6.567,6.6807,6.6776,6.4743,6.4699,6.4661,6.4033,6.3392,6.2822,6.2241,0.0,0.0,0.0,0.0,0.0,0.0,0.0,0.0,0.0,0.0,0.0,0.0,0.0,0.0,0.0,0.0,0.0,0.0,0.0,0.0,0.0,0.0,0.0,0.0,0.0,0.0,0.0,3.5198,0.0,0.0,2.6656,0.0,0.0,0.0,0.0,0.0,0.0,0.0,0.0,0.0,0.0,0.0,0.0,0.0,0.0,0.0,0.0,0.0,0.0,0.0,0.0,0.0,0.0,7.5145,7.6895,7.8716,7.9248,7.8391,7.8352,7.8352,7.8313,7.7492,7.6578,7.5647,0.0,0.0,0.0,0.0,0.0,0.0,0.0,0.0,0.0,0.0,0.0,0.0,0.0,0.0,0.0,0.0,0.0,0.0,0.0,0.0,0.0,0.0,0.0,0.0,0.0,0.0,5.422,5.6062,5.6009,0.0,0.0,0.0,0.0,0.0,0.0,0.0,0.0,0.0,6.3226,6.577,6.7614,6.8549,6.8596,6.8245,6.7292,6.6509,6.594,6.5854,6.5749,6.568,0.0,0.0,0.0,0.0,0.0,0.0,0.0,0.0,0.0,0.0,0.0,0.0,0.0,0.0,0.0,0.0,0.0,0.0,0.0,0.0,0.0,0.0,0.0,0.0,0.0,0.0,0.0,4.4064,3.742,0.0,0.0,0.0,0.0,0.0,0.0,0.0,0.0,0.0,0.0,0.0,6.5286,6.7735,0.0,0.0,0.0,0.0,0.0,0.0,0.0,0.0,0.0,0.0,0.0,0.0,7.7577,7.8854,8.1617,8.2645,8.1826,8.1786,8.1514,8.1005,8.0146,7.8728,7.6622,0.0,0.0,0.0,0.0,0.0,0.0,0.0,0.0,0.0,0.0,0.0,0.0,0.0,0.0,0.0,0.0,0.0,0.0,0.0,0.0,0.0,0.0,0.0,0.0,0.0,5.5685,0.0,0.0,0.0,0.0,0.0,0.0,0.0,0.0,0.0,0.0,6.0365,6.3881,6.6109,6.7558,6.8693,6.9532,6.96,6.922,0.0,0.0,0.0,0.0,0.0,0.0,0.0,0.0,0.0,0.0,0.0,0.0,0.0,0.0,6.1977,5.7975,5.8155,5.9185,5.9965,0.0,0.0,0.0,0.0,0.0,0.0,0.0,0.0,0.0,0.0,0.0,0.0,0.0,0.0,4.9217,4.1101,4.2174,0.0,0.0,0.0,0.0,0.0,0.0,0.0,0.0,6.3029,6.8911,7.2767,7.4127,7.4814,7.4935,7.4667,7.2781,0.0,0.0,0.0,0.0,0.0,0.0,0.0,0.0,7.9981,8.0669,8.3651,8.4831,8.4011,8.3972,8.3699,8.3151,8.2059,8.0488,7.8476,7.5874,7.3585,0.0,0.0,0.0,0.0,0.0,0.0,0.0,0.0,0.0,0.0,0.0,0.0,0.0,0.0,0.0,0.0,0.0,0.0,0.0,0.0,0.0,0.0,0.0,6.0689,0.0,0.0,0.0,0.0,0.0,0.0,0.0,0.0,0.0,6.1358,6.4608,6.7782,6.9409,7.029,7.0973,7.1499,0.0,0.0,0.0,0.0,0.0,0.0,0.0,6.9595,6.9377,6.929,6.9318,6.9381,6.958,6.9639,6.9524,0.0,0.0,6.3399,6.3399,6.4391,6.5216,6.5552,6.6023,6.7201,6.6701,6.6436,0.0,0.0,0.0,0.0,6.5392,0.0,0.0,0.0,6.1755,5.574,0.0,5.2013,0.0,0.0,0.0,0.0,4.3855,5.2312,0.0,0.0,7.6738,8.108,7.9302,8.0449,8.1096,8.1057,8.0222,7.9823,7.9548,7.5652,7.3912,0.0,0.0,0.0,0.0,0.0,8.231,8.2427,8.4863,8.5729,8.4946,8.4868,8.4868,8.479,8.3268,8.202,8.1044,7.8593,7.6819,7.5885,7.1765,0.0,0.0,0.0,0.0,0.0,0.0,0.0,0.0,0.0,0.0,0.0,0.0,0.0,0.0,0.0,0.0,0.0,0.0,0.0,0.0,6.3495,0.0,0.0,0.0,0.0,0.0,0.0,0.0,0.0,0.0,6.8502,6.6117,6.8631,7.1318,7.2953,0.0,0.0,0.0,0.0,7.2963,7.2966,7.2379,7.187,7.1916,7.1838,7.2057,7.2796,0.0,0.0,7.2966,7.2348,7.1959,7.1877,7.2419,7.186,6.9258,6.8603,6.8749,6.954,6.9104,6.9083,7.04,7.0224,6.9926,7.7064,0.0,0.0,0.0,0.0,7.2357,7.2827,7.3729,7.3453,6.9895,6.428,6.5355,0.0,0.0,0.0,0.0,0.0,0.0,6.6044,7.1926,7.7525,8.1817,8.4969,8.5354,8.5525,8.5525,8.5287,8.5481,8.6029,8.4851,8.2138,7.8206,0.0,0.0,0.0,0.0,8.4358,8.5021,8.6324,8.6912,8.6664,8.6664,8.6352,8.5768,8.526,8.4323,8.2842,8.2051,8.0676,7.8673,7.6147,0.0,0.0,0.0,0.0,0.0,0.0,0.0,0.0,0.0,0.0,0.0,0.0,0.0,0.0,0.0,0.0,0.0,0.0,0.0,6.6354,6.8685,6.9572,0.0,0.0,0.0,0.0,0.0,0.0,0.0,0.0,0.0,7.2836,7.3094,7.3573,0.0,0.0,7.4443,7.4385,7.4658,7.4916,7.4881,7.5207,0.0,7.5471,7.5443,7.545,7.5713,7.6265,7.6696,7.6558,7.6858,7.7095,7.6953,7.7101,7.6919,7.6118,7.3804,7.2451,7.2979,7.2981,7.3151,7.4173,7.4136,7.4336,8.6935,8.3645,7.9622,7.8405,7.919,7.888,8.0154,8.2451,8.1747,7.8468,7.3684,7.5478,7.1038,6.2143,6.1032,0.0,0.0,0.0,7.2521,7.8497,8.0828,8.3529,8.627,8.6703,8.7093,8.7406,8.7757,8.8343,8.9203,8.9203,8.7363,8.3879,0.0,8.4587,8.4792,8.5821,8.6608,8.7116,8.7317,8.7393,8.7417,8.7409,8.7136,8.6636,8.628,8.5612,8.4558,8.4206,8.3304,8.1771,8.0041,7.7567,0.0,0.0,0.0,0.0,0.0,0.0,0.0,0.0,0.0,0.0,0.0,5.6931,5.8077,0.0,0.0,0.0,6.6,6.828,7.1575,7.2214,0.0,0.0,0.0,0.0,0.0,0.0,0.0,7.2596,7.4675,7.6367,7.7204,7.69,7.6669,7.7011,7.6766,7.6673,7.6965,0.0,7.7258,7.7238,7.7648,7.7989,7.8018,7.8006,7.7997,7.8006,7.846,7.8811,7.8717,7.9154,7.9463,7.9361,7.9258,7.9217,7.9217,7.7258,7.5831,7.6224,7.6219,7.6355,7.6899,7.6901,7.7147,9.475,9.3857,8.4526,8.2535,8.5385,8.4567,8.5933,8.8627,8.7071,8.2804,7.7407,8.2512,7.7533,6.5112,6.4379,0.0,7.4359,7.5332,7.9038,8.4923,8.5703,8.5744,8.5157,8.5939,8.6759,8.7618,8.8399,8.9181,8.9926,8.9965,9.0009,9.0097,9.0138,8.9745,8.8844,8.8814,8.8817,8.8777,8.8036,8.7601,8.7628,8.7731,8.7731,8.7508,8.6794,8.6319,8.6082,8.542,8.4951,8.4756,8.3337,8.1691,7.9818,0.0,0.0,0.0,0.0,0.0,0.0,0.0,0.0,0.0,0.0,0.0,0.0,0.0,0.0,6.9941,7.2271,0.0,7.5972,7.4594,0.0,0.0,0.0,7.3891,7.4827,7.5686,7.6199,7.6222,0.0,0.0,7.9831,7.9951,8.0304,8.1086,8.0343,7.9984,8.0788,8.0238,7.992,7.9906,7.9977,8.0016,8.002,7.9953,7.9888,7.9902,7.9912,7.9948,7.9945,7.9946,7.9911,7.9982,7.9771,7.9667,7.9667,7.9438,7.9276,7.9034,7.8709,7.8496,7.8435,7.8505,7.8622,9.1768,9.0972,8.9215,8.9684,9.1481,9.0661,9.0036,8.9568,8.9135,8.7304,8.4745,8.6048,8.5035,8.248,8.2939,8.3419,8.3905,8.4139,8.4726,8.5615,8.5848,8.6551,8.7605,8.784,8.8386,8.9205,8.9439,8.9631,8.9781,8.978,9.0096,9.0764,9.142,9.1047,8.9761,8.9685,8.9686,8.9683,8.949,8.9371,8.9438,9.0683,9.0406,8.8447,8.8844,8.814,8.6216,8.6538,8.6191,8.4943,8.5057,8.4079,8.1777,7.8228,0.0,0.0,0.0,0.0,0.0,0.0,0.0,0.0,0.0,6.7947,6.9626,0.0,7.5268,0.0,7.7406,7.8338,7.8721,7.781,0.0,0.0,7.7075,7.6798,7.8281,7.9178,7.9693,7.975,8.1819,8.2874,8.1823,8.2265,8.274,8.2896,8.1091,8.0028,8.0844,8.1428,8.1895,8.2438,8.3022,8.3297,8.2594,8.2051,8.1662,8.1706,8.1669,8.1706,8.1669,8.1669,8.1669,8.1667,8.1657,8.1604,8.1563,8.1446,8.1279,8.1147,8.0037,7.8906,7.8759,7.925,7.988,9.2577,9.2055,9.1782,9.2161,9.288,9.1739,9.0732,8.9832,8.9416,8.8468,8.7184,8.6363,8.6263,8.6736,8.7243,8.6944,8.6085,8.6046,8.5579,8.4761,8.4722,8.5071,8.5695,8.6436,8.7407,8.8609,8.9388,9.012,9.0764,9.0762,9.1037,9.1508,9.1962,9.1592,9.0464,9.0879,9.1123,9.1088,9.0388,9.0,9.0035,9.0927,9.0535,8.8818,8.9171,8.8548,8.6753,8.7146,8.6952,8.6054,8.6406,8.582,8.4023,8.1132,7.8709,0.0,0.0,0.0,0.0,0.0,0.0,0.0,0.0,0.0,0.0,0.0,7.9735,8.0987,8.0842,8.081,8.1165,8.0465,8.0311,8.1132,8.0702,8.0741,8.1679,8.2263,8.2415,8.2105,8.3381,8.407,8.3523,8.3882,8.4199,8.4197,8.2944,8.2195,8.2618,8.3118,8.358,8.4011,8.448,8.4673,8.4128,8.3697,8.3424,8.3386,8.3073,8.284,8.2801,8.2528,8.2292,8.2292,8.2292,8.2292,8.229,8.2222,8.2146,8.2021,8.1594,8.0889,8.0242,8.0744,8.1407,9.4261,9.3998,9.2593,9.1901,9.1615,9.029,8.9606,8.9384,8.8513,8.7601,8.6636,8.511,8.4448,8.4493,8.4642,8.4642,8.4564,8.4681,8.4251,8.343,8.343,8.3155,8.276,8.4204,8.5753,8.7411,8.8932,9.0362,9.1697,9.1736,9.1802,9.1895,9.1817,9.1438,9.0961,9.1733,9.2184,9.2274,9.1068,9.0422,9.031,9.0429,9.0038,8.9062,8.8906,8.8437,8.7612,8.7454,8.7373,8.7328,8.7326,8.6972,8.6149,8.3099,8.1021,0.0,7.7039,0.0,0.0,0.0,0.0,0.0,0.0,0.0,0.0,8.1314,8.2881,8.4299,8.3078,8.2513,8.3223,8.2638,8.2562,8.3345,8.4002,8.4434,8.4525,8.4668,8.4465,8.3765,8.3905,8.4333,8.4877,8.5033,8.5033,8.4873,8.5027,8.5064,8.5095,8.5002,8.4912,8.495,8.5065,8.5337,8.522,8.5181,8.5142,8.5064,8.4597,8.4011,8.4128,8.3543,8.2995,8.2916,8.2957,8.2877,8.2684,8.2643,8.272,8.2912,8.3377,8.3328,8.2256,8.2473,8.2791,9.1119,9.0458,9.0852,9.0556,8.9815,8.9514,8.8684,8.7478,8.6566,8.5602,8.4746,8.4391,8.4275,8.4319,8.5015,8.4918,8.4335,8.5034,8.4835,8.4015,8.4015,8.4714,8.5913,8.6224,8.7272,8.8854,8.9204,8.9526,8.9742,8.9742,9.0153,9.0852,9.0192,9.019,9.0762,0.0,0.0,0.0,9.2344,9.257,9.1911,9.265,9.2317,9.0797,9.005,0.0,8.8412,8.7702,8.7303,8.7298,8.7326,0.0,0.0,0.0,0.0,0.0,0.0,0.0,0.0,0.0,0.0,0.0,8.1648,8.1385,8.1477,8.296,8.4089,8.4365,8.41,8.399,8.4217,8.408,8.4249,8.5071,8.4712,8.4673,8.5344,8.5478,8.5411,8.5297,8.5897,8.6165,8.577,8.5692,8.5541,8.5194,8.6089,8.687,8.6869,8.6269,8.5866,8.5903,8.64,8.6859,8.6937,8.6898,8.6898,8.6898,8.682,8.6625,8.6547,8.643,8.6039,8.5456,8.5377,8.5065,8.4441,8.4322,8.4441,8.5221,8.5495,8.5038,8.3351,8.3626,8.4089,9.1058,9.058,9.0591,9.033,0.0,8.9009,8.8206,8.752,8.7475,8.6682,8.5452,8.456,8.4211,8.425,8.4671,8.4599,8.4211,8.4632,8.4632,8.4205,8.4205,8.4671,8.5524,8.6415,8.7444,8.866,8.9507,9.0088,9.0416,9.0448,9.0662,9.1128,9.0275,8.9888,8.9955,8.9147,8.9214,9.0236,9.1137,9.1366,9.1008,9.1897,9.1754,9.0462,9.037,0.0,0.0,0.0,0.0,0.0,0.0,0.0,0.0,8.6638,8.5672,8.5607,8.361,8.2781,8.3548,8.3201,8.3474,8.4743,8.5217,8.5285,8.4935,8.5657,8.6306,8.6704,8.6014,8.5505,8.5534,8.5864,8.6306,8.6738,8.7117,8.7428,8.7403,8.7478,8.7172,8.6412,8.6663,8.6849,8.6506,8.6855,8.7003,8.6782,8.7765,8.8317,8.7617,8.7452,8.7283,8.6846,8.7456,8.803,8.8108,8.8461,8.8657,8.8657,8.8304,8.8069,8.803,8.7329,8.6586,8.6158,8.5768,8.5299,8.4946,8.4829,8.5065,8.5885,8.6431,8.6655,8.5946,8.5939,8.5713,9.2283,9.2153,9.1456,9.1146,9.1062,8.9669,8.9017,8.8862,8.8842,0.0,0.0,8.5024,8.4404,8.4404,8.4404,8.4481,8.4597,8.4636,8.4636,8.4636,8.4636,8.4714,8.4907,8.6341,8.7441,8.8242,8.963,9.061,9.1251,9.1251,9.1329,9.1367,9.0594,8.9859,8.9208,8.8505,8.8556,8.9386,8.9453,8.9463,8.957,9.0248,9.0314,8.9617,9.008,9.0003,8.9299,8.9255,8.9192,8.9074,8.9181,8.9248,8.9198,8.7868,8.708,8.6992,8.5746,8.5147,8.5644,8.5634,8.5965,8.6764,8.7493,8.7829,8.7771,8.7835,8.8111,8.8698,8.7422,8.661,8.6603,8.7222,8.7686,8.7686,8.8892,8.944,8.9028,8.9066,8.8495,8.7469,8.7403,8.7398,8.7503,8.8055,8.854,8.8765,8.9337,8.959,8.8465,8.8437,8.8384,8.8097,8.871,8.9169,8.9088,8.9633,9.0142,8.9869,8.932,8.8969,8.8735,8.7759,8.6861,8.6744,8.5963,8.561,8.5337,8.5376,8.5612,8.6588,8.7329,8.8187,8.9047,8.8813,8.8008,9.3833,9.3865,9.3749,9.3671,9.3664,9.3439,9.2929,9.2,8.8525,8.6442,8.5475,8.5243,8.5166,8.5127,8.5127,8.5552,8.6249,8.6288,8.6249,8.6249,8.6249,8.6675,8.7365,8.7635,8.8177,8.899,8.926,8.9447,8.9556,8.9549,8.9898,9.0439,8.9782,8.9285,8.9208,8.9092,8.908,8.9223,8.9296,8.9321,8.9338,8.9595,8.9634,8.9513,8.8886,8.8532,8.8395,8.839,8.8036,8.7331,8.794,8.8279,8.8195,8.802,8.7809,8.7752,8.7539,8.7146,8.6481,8.6429,8.681,8.7609,8.7841,8.7615,8.6887,8.7461,8.7647,8.7074,8.6758,8.6603,8.6603,8.6758,8.6912,8.6874,8.7028,8.7377,8.8157,8.8306,8.8455,8.8778,8.8901,8.892,8.8963,8.9148,8.9302,8.9529,9.0093,9.0603,9.0233,8.9396,8.9056,8.9586,9.0397,9.0546,8.9991,9.0531,9.0649,9.0103,8.9869,8.9711,8.9711,8.94,8.8891,8.8422,8.8071,8.7757,8.7172,8.7054,8.7642,8.8854,8.9439,9.0025,9.135,9.1546,9.1074,9.4191,9.4191,9.4191,9.4191,9.4191,9.4191,9.4005,9.3495,9.16,8.9704,8.8079,8.7615,8.7422,8.7422,8.7422,8.7615,8.8002,8.7538,8.7538,8.7925,8.7028,8.7067,8.7841,8.7879,8.8111,8.8505,8.8976,8.9201,8.9201,8.9201,8.9402,8.9672,8.8892,8.8273,8.7847,8.8273,8.8505,8.8505,8.8997,8.903,8.8565,8.9054,8.9129,8.8658,8.8697,8.8735,8.8735,8.8768,8.8768,8.8807,8.9125,8.9559,8.9953,8.9578,8.9274,8.924,8.8853,8.8234,8.7377,8.7299,8.7493,8.7879,8.8769,8.8698,8.7415,8.7686,8.7725,8.7338,8.688,8.6603,8.6642,8.7028,8.7461,8.7963,8.8389,8.9008,8.9775,8.9929,8.9936,8.9898,8.9859,8.9874,8.9913,8.9925,9.002,9.0192,9.0649,9.1059,9.1488,9.1403,9.0825,9.0154,9.0268,9.0406,9.012,9.0311,9.0384,9.0026,8.9986,8.9986,8.9986,9.0025,8.983,8.9516,8.9398,8.9242,8.8852,8.8813,8.9398,9.0257,9.0687,9.1233,9.217,9.2484,9.1899,9.4779,9.4779,9.4779,9.4772,9.4772,9.4585,9.4508,9.4469,9.4237,9.3077,9.129,9.04,8.9936,8.9743,8.9556,8.944,8.9363,8.8582,8.8582,8.9015,8.7809,8.7577,8.815,8.8196,8.8196,8.8273,8.8892,8.9201,8.9201,8.9201,8.9285,8.9402,8.9008,8.8421,8.777,8.8421,8.8769,8.8808,8.9433,8.924,8.8273,8.8853,8.8853,8.8312,8.8853,8.9131,8.8931,8.9285,8.9595,8.982,9.0207,9.071,9.1329,9.0787,9.04,9.0362,8.982,8.9085,8.8312,8.8189,8.8196,8.8227,8.9356,8.9588,8.8382,8.8196,8.8073,8.7879,8.7299,8.699,8.7267,8.7809,8.8466,8.9169,8.975,9.0284,9.1213,9.1406,9.129,9.0749,9.071,9.071,9.071,9.071,9.0766,9.089,9.1175,9.1573,9.2009,9.2653,9.2129,9.103,9.0574,9.0818,9.0576,9.0445,9.0279,9.007,8.9987,9.0103,9.022,9.0335,9.0454,9.0532,9.061,9.0609,9.0571,9.0571,9.096,9.1702,9.1975,9.2209,9.3029,9.3226,9.2445,9.6551,9.6551,9.6512,9.6551,9.6396,9.57,9.539,9.5274,9.4585,9.4082,9.3727,9.2992,9.2218,9.1406,9.0671,9.0362,9.0323,8.9433,8.9169,8.9279,8.9053,8.9015,8.9047,8.9047,8.9092,8.9047,8.9169,8.9201,8.9201,8.9201,8.9549,9.0323,9.0981,9.1135,9.1135,9.1213,9.129,9.1367,9.1445,9.071,8.9208,8.9163,8.9163,8.9092,8.9169,8.8814,8.8189,8.9472,8.9627,8.8421,8.9627,9.0439,9.0516,9.0478,9.04,9.04,9.0323,8.9936,8.9163,8.9092,8.9092,8.9092,8.9285,8.9363,8.9092,8.9085,8.8737,8.8118,8.7841,8.8079,8.8821,8.9008,8.9085,8.9247,8.9363,8.9634,9.0478,9.0516,9.0787,9.1522,9.1522,9.16,9.1561,9.1522,9.1536,9.163,9.1928,9.2167,9.1902,9.2072,9.2257,9.197,9.2468,9.2665,9.206,9.152,9.0728,9.0132,8.9998,9.0228,9.0656,9.104,9.135,9.1664,9.217,9.2131,9.2289,9.2289,9.2561,9.3146,9.3458,9.3771,9.4591,9.4709,9.3771,9.6822,9.6822,9.6822,9.6822,9.6744,9.6396,9.628,9.6203,9.5893,9.5739,9.57,9.539,9.4462,9.3147,9.2296,9.218,9.2489,9.0749,9.0516,9.1213,8.9936,8.944,8.9859,8.9395,8.9201,8.9201,8.9201,8.9201,8.9201,8.9201,8.9363,8.9665,9.0059,9.0207,9.0246,9.0671,9.0942,9.0942,9.1445,9.1367,9.071,9.0168,8.9665,8.9247,8.9201,8.9053,8.8776,8.9356,8.9588,8.9433,9.0052,9.0633,9.1135,9.1174,9.1174,9.1135,9.0671,9.0246,8.9943,8.9898,8.9898,8.9898,9.04,9.0478,8.9975,8.9898,8.9549,8.8853,8.8698,8.8853,8.9163,8.9201,8.9363,8.9782,8.9898,9.0246,9.1058,9.1174,9.1329,9.1677,9.2141,9.2489,9.2373,9.2025,9.1986,9.218,9.2102,9.16,9.1645,9.2167,9.2529,9.2592,9.3056,9.2717,9.1764,9.0759,9.0256,8.9999,8.9882,9.0112,9.0555,9.1043,9.1546,9.2406,9.2912,9.3458,9.3968,9.4005,9.42,9.4512,9.4552,9.4708,9.5059,9.5098,9.4512,9.717,9.7131,9.6899,9.6822,9.6822,9.6822,9.6822,9.6822,9.6822,9.6667,9.6474,9.6706,9.5816,9.4315,9.3804,9.3688,9.3302,9.1832,9.1638,9.2412,9.071,9.0207,9.0671,9.0168,8.9859,8.9859,8.9943,8.9898,8.9904,8.9898,8.9898,8.9898,8.9898,8.9904,8.9936,9.0478,9.0749,9.0826,9.1406,9.1793,9.1902,9.1445,9.0826,9.0323,9.0246,9.0246,9.0246,9.0439,9.071,9.1097,9.1329,9.1716,9.2335,9.2373,9.2373,9.2335,9.1793,9.1445,9.1445,9.1445,9.1329,9.1174,9.1561,9.1561,9.1174,9.0903,9.0749,9.071,9.0369,9.0207,8.9549,8.975,9.013,9.0671,9.0749,9.1058,9.16,9.187,9.2064,9.2141,9.2837,9.334,9.3263,9.2837,9.2683,9.276,9.1948,9.1135,9.1638,9.2218,9.2574,9.2644,9.2722,9.2459,9.1541,9.1034,9.0423,9.0397,9.0556,9.0734,9.0855,9.1624,9.226,9.3515,9.3896,9.4161,9.4552,9.4903,9.502,9.5098,9.5215,9.5332,9.5567,9.5606,9.5801,9.806,9.7943,9.717,9.6899,9.6822,9.686,9.6822,9.6822,9.6822,9.6358,9.5816,9.6435,9.5816,9.4276,9.4888,9.4075,9.218,9.2489,9.2373,9.1948,9.16,9.1561,9.1638,9.16,9.1522,9.1367,9.1329,9.1406,9.1484,9.1522,9.16,9.1561,9.1445,9.1522,9.1484,9.1484,9.1638,9.16,9.1677,9.2064,9.2792,9.2837,9.2753,9.276,9.2799,9.2721,9.2799,9.3534,9.3572,9.2876,9.3456,9.3966,9.4037,9.4044,9.4005,9.4005,9.3966,9.3921,9.3889,9.3812,9.3534,9.2876,9.2218,9.2064,9.2644,9.2141,9.2296,9.3696,9.2953,9.2064,9.0865,9.0981,9.1367,9.1522,9.16,9.16,9.1677,9.2296,9.2837,9.2953,9.3495,9.4075,9.416,9.4121,9.3611,9.3263,9.2915,9.2521,9.1832,9.1793,9.1832,9.187,9.1912,9.2038,9.2721,9.2004,9.1718,9.1676,9.1512,9.203,9.2907,9.3593,9.3979,9.4387,9.4489,9.4674,9.4983,9.5098,9.5098,9.5254,9.5645,9.5879,9.5684,9.6855,9.6972,9.8864,9.8826,9.8516,9.8098,9.7673,9.7634,9.7325,9.6822,9.6822,9.6628,9.6396,9.6667,9.5816,9.4276,9.5127,9.4694,9.3302,9.2567,9.2296,9.2412,9.1948,9.1716,9.1716,9.1716,9.1716,9.1716,9.1716,9.1716,9.1716,9.1716,9.1716,9.1716,9.1716,9.1716,9.1716,9.1716,9.1716,9.1716,9.1716,9.2102,9.2946,9.2992,9.3495,9.4501,9.4037,9.3766,9.3766,9.4044,9.4044,9.3766,9.4044,9.4191,9.4191,9.4191,9.4191,9.4191,9.4191,9.4191,9.4191,9.4191,9.4082,9.3804,9.3495,9.3379,9.365,9.3495,9.3572,9.3998,9.3998,9.3379,9.2876,9.2218,9.1716,9.1716,9.1716,9.1793,9.1754,9.1986,9.2173,9.2373,9.334,9.4547,9.5236,9.4888,9.4121,9.3727,9.2876,9.2141,9.1832,9.1716,9.1716,9.1716,9.1716,9.1828,9.2102,9.2061,9.1839,9.1899,9.1953,9.2012,9.2537,9.2779,9.3081,9.367,9.4128,9.4454,9.4492,9.4709,9.4788,9.4905,9.5371,9.5488,9.5567,9.6152,9.6503,9.9413,9.8942,9.8903,9.8446,9.775,9.7673,9.7363,9.6822,9.6783,9.6628,9.6474,9.6667,9.5855,9.4547,9.5088,9.5004,9.4114,9.276,9.2296,9.2489,9.1948,9.1716,9.1716,9.1716,9.1716,9.1716,9.1716,9.1716,9.1716,9.1716,9.1716,9.1716,9.1716,9.1716,9.1754,9.1986,9.2141,9.2141,9.2373,9.2953,9.365,9.3495,9.4191,9.5506,9.5088,9.4779,9.5004,9.5042,9.505,9.5011,9.4779,9.4624,9.4624,9.4895,9.505,9.505,9.505,9.505,9.505,9.5042,9.5042,9.4965,9.4508,9.4353,9.4895,9.4539,9.4469,9.481,9.474,9.4624,9.4431,9.3572,9.2953,9.2876,9.2683,9.2644,9.2837,9.2721,9.2605,9.2837,9.3843,9.512,9.5971,9.5236,9.4624,9.4276,9.2953,9.2102,9.1793,9.1716,9.1716,9.1716,9.1716,9.1716,9.1873,9.1818,9.1767,9.1826,9.1867,9.1918,9.1981,9.2131,9.2372,9.2957,9.3398,9.3699,9.3952,9.4209,9.4319,9.4358,9.4512,9.4669,9.4825,9.502,9.5449,9.9607,9.833,9.8137,9.7789,9.7092,9.7054,9.6899,9.6822,9.6822,9.6396,9.5971,9.6435,9.5893,9.4701,9.5166,9.5004,9.416,9.334,9.2683,9.2102,9.187,9.1832,9.1825,9.1754,9.1716,9.1716,9.1716,9.1716,9.1716,9.1716,9.1716,9.1716,9.1716,9.1716,9.1716,9.2366,9.283,9.2915,9.3418,9.4385,9.5243,9.4585,9.5011,9.6435,9.5855,9.5739,9.6551,9.6628,9.6512,9.6435,9.5816,9.5468,9.539,9.6009,9.6628,9.6474,9.6628,9.6706,9.6667,9.659,9.6512,9.6358,9.5197,9.505,9.5855,9.5236,9.5004,9.5932,9.5893,9.5506,9.5584,9.5468,9.5274,9.5352,9.4501,9.4385,9.4849,9.4617,9.4199,9.4199,9.4895,9.5436,9.5545,9.5436,9.5088,9.4392,9.3495,9.2598,9.2025,9.1832,9.1716,9.1716,9.1716,9.1716,9.1716,9.1716,9.1723,9.1705,9.1721,9.1792,9.1866,9.1979,9.2081,9.2524,9.2682,9.2969,9.3175,9.3355,9.319,9.3228,9.3499,9.381,9.3888,9.4122,9.463,9.9375,9.8949,9.8911,9.8446,9.775,9.7711,9.7402,9.6822,9.6822,9.6628,9.6474,9.6706,9.6164,9.5352,9.5398,9.5042,9.4199,9.3928,9.3696,9.3379,9.2837,9.2605,9.2482,9.1986,9.1716,9.1716,9.1716,9.1716,9.1716,9.1716,9.1716,9.1716,9.1716,9.1716,9.1716,9.1986,9.2102,9.2211,9.2953,9.3766,9.4578,9.4934,9.5669,9.6551,9.5971,9.5661,9.5893,9.6474,9.6474,9.5932,9.5623,9.5243,9.4895,9.5429,9.5893,9.5971,9.6512,9.6822,9.6822,9.6822,9.6822,9.6706,9.6203,9.5932,9.5971,9.5932,9.5816,9.6048,9.6164,9.659,9.7131,9.7286,9.6822,9.5623,9.5236,9.5236,9.5398,9.4779,9.4585,9.5011,9.5313,9.5739,9.6087,9.5971,9.5468,9.505,9.3959,9.2869,9.2605,9.2064,9.1716,9.1716,9.1716,9.1716,9.1716,9.1716,9.1716,9.1716,9.1723,9.1691,9.1792,9.1845,9.1917,9.2054,9.2192,9.2375,9.2531,9.2581,9.2535,9.2488,9.2875,9.2992,9.2951,9.3263,9.381,9.9135,9.8864,9.8864,9.8369,9.7673,9.7634,9.7325,9.6822,9.6822,9.6822,9.6783,9.6822,9.6512,9.6048,9.5971,9.5661,9.5204,9.5158,9.5166,9.4965,9.3921,9.3456,9.3418,9.2915,9.2451,9.2218,9.218,9.2025,9.1716,9.1716,9.1716,9.1716,9.1716,9.1716,9.1754,9.2025,9.218,9.2296,9.307,9.3843,9.4539,9.4888,9.5429,9.6048,9.5468,9.4888,9.4655,9.539,9.5584,9.5127,9.5011,9.4624,9.3921,9.4547,9.5158,9.5545,9.5971,9.6435,9.6706,9.6822,9.6822,9.6744,9.6203,9.5777,9.5468,9.57,9.5158,9.5197,9.5739,9.6551,9.7054,9.8137,9.7905,9.7054,9.7015,9.6628,9.6087,9.5197,9.4694,9.5004,9.5274,9.5739,9.6009,9.6319,9.5971,9.5739,9.4539,9.3456,9.3224,9.2412,9.2025,9.1716,9.1716,9.1716,9.1716,9.1716,9.1716,9.1716,9.1716,9.1716,9.1721,9.1754,9.1833,9.2018,9.2159,9.2347,9.25,9.2562,9.2581,9.2535,9.253,9.2601,9.2717,9.2639,9.3029,9.871,9.806,9.8021,9.7595,9.6899,9.6899,9.686,9.6822,9.6822,9.6822,9.6822,9.6822,9.6783,9.6783,9.6667,9.659,9.6744,9.659,9.6512,9.6164,9.5197,9.4392,9.4082,9.3921,9.3572,9.3108,9.307,9.2683,9.2141,9.1986,9.1793,9.1909,9.1793,9.1716,9.1793,9.2528,9.2721,9.276,9.3534,9.4346,9.5042,9.4624,9.4617,9.5352,9.4578,9.3843,9.3456,9.3804,9.4121,9.4121,9.4121,9.3766,9.3263,9.3688,9.4508,9.512,9.5352,9.5893,9.6474,9.659,9.6706,9.6667,9.5661,9.4585,9.5166,9.4501,9.3998,9.4191,9.5042,9.5661,9.6203,9.7673,9.8864,9.9328,9.9058,9.8446,9.7054,9.6164,9.5623,9.4972,9.5088,9.5623,9.5855,9.6358,9.6667,9.6551,9.539,9.4462,9.3959,9.3186,9.2064,9.1754,9.1716,9.1716,9.1716,9.1716,9.1716,9.1716,9.1716,9.1716,9.1716,9.1732,9.1805,9.1938,9.2086,9.2247,9.2444,9.25,9.2562,9.2589,9.2542,9.253,9.2525,9.2528,9.2566,9.7325,9.7131,9.7131,9.7015,9.6822,9.6822,9.6822,9.6822,9.6822,9.6822,9.6822,9.6822,9.6822,9.6822,9.6822,9.6822,9.6761,9.6768,9.6822,9.6744,9.6396,9.532,9.4431,9.4237,9.4121,9.3921,9.386,9.3773,9.3495,9.2872,9.2654,9.2644,9.2074,9.1779,9.1793,9.2025,9.2025,9.218,9.2876,9.3418,9.3727,9.4075,9.4276,9.4392,9.3766,9.3263,9.2953,9.2567,9.2721,9.3263,9.334,9.2915,9.2296,9.2876,9.3495,9.3804,9.4269,9.4934,9.5623,9.5855,9.6125,9.6744,9.6048,9.5661,9.4585,9.4733,9.4269,9.3998,9.4578,9.5739,9.6435,9.7634,9.8833,10.0032,10.0071,9.9491,9.8176,9.7557,9.7092,9.6358,9.628,9.628,9.6435,9.6551,9.7015,9.7209,9.6241,9.5042,9.4617,9.3495,9.218,9.1832,9.1716,9.1716,9.1716,9.1716,9.1716,9.1716,9.1716,9.1716,9.1716,9.173,9.1773,9.1899,9.1962,9.2108,9.2299,9.2408,9.2499,9.2534,9.2564,9.2522,9.2547,9.2581,9.2535,9.6822,9.6822,9.6822,9.6822,9.6822,9.6822,9.6822,9.6822,9.6822,9.6822,9.6822,9.6822,9.6822,9.6822,9.6822,9.6661,9.6511,9.6503,9.6403,9.6216,9.6121,9.5795,9.5393,9.5274,9.5127,9.4718,9.4551,9.4218,9.3822,9.326,9.3059,9.3089,9.2705,9.2543,9.2799,9.2373,9.225,9.2296,9.2443,9.2598,9.3024,9.3456,9.3611,9.365,9.3224,9.2869,9.2489,9.1986,9.1986,9.2373,9.2451,9.2218,9.1832,9.2141,9.2644,9.2953,9.3456,9.4037,9.4733,9.4972,9.5166,9.5506,9.5468,9.4733,9.3882,9.3882,9.3302,9.2799,9.4037,9.5042,9.5816,9.7092,9.8601,9.9684,10.0032,9.9645,9.8671,9.8253,9.7711,9.7015,9.6512,9.6435,9.6667,9.6474,9.6938,9.7286,9.6087,9.5506,9.5127,9.3611,9.2412,9.1948,9.1716,9.1716,9.1716,9.1716,9.1716,9.1716,9.1716,9.1716,9.1716,9.1716,9.1759,9.1823,9.1845,9.1943,9.2122,9.2256,9.2347,9.2411,9.246,9.2497,9.2529,9.2564,9.2558,9.6822,9.6822,9.6822,9.6822,9.6822,9.6822,9.6822,9.6822,9.6822,9.6753,9.6715,9.6723,9.6606,9.6684,9.647,9.6412,9.604,9.604,9.5797,9.5623,9.5581,9.5703,9.6175,9.6123,9.5869,9.5382,9.5005,9.4511,9.3995,9.3353,9.3231,9.34,9.3398,9.353,9.3412,9.3168,9.299,9.2736,9.2303,9.2411,9.2828,9.2983,9.299,9.2967,9.2816,9.2443,9.1986,9.1716,9.1754,9.1716,9.1716,9.1754,9.1716,9.1716,9.2064,9.2605,9.283,9.3224,9.3928,9.4082,9.4199,9.4276,9.3766,9.307,9.307,9.2721,9.2257,9.1909,9.3231,9.4315,9.4965,9.6706,9.806,9.8911,9.9058,9.929,9.9058,9.8524,9.775,9.6783,9.5932,9.6009,9.6048,9.6048,9.5932,9.6744,9.5661,9.505,9.4578,9.3534,9.2489,9.1832,9.1716,9.1716,9.1716,9.1716,9.1716,9.1716,9.1716,9.1716,9.1716,9.1716,9.1716,9.1746,9.1779,9.1822,9.1938,9.2078,9.2192,9.2264,9.23,9.2414,9.2499,9.2499,9.2499,9.6822,9.6822,9.6822,9.6822,9.6822,9.6822,9.6776,9.6768,9.6768,9.6519,9.6313,9.6261,9.6058,9.5726,9.5777,9.5633,9.5559,9.5538,9.5473,9.544,9.5407,9.5473,9.5696,9.5696,9.5601,9.5361,9.5317,9.5128,9.4758,9.4097,9.3852,9.3899,9.3472,9.3016,9.3176,9.3188,9.284,9.2801,9.263,9.2603,9.268,9.2615,9.2507,9.2486,9.2218,9.1958,9.1786,9.1716,9.1716,9.1716,9.1716,9.1716,9.1716,9.1716,9.1832,9.1986,9.2064,9.2412,9.307,9.3263,9.3534,9.3928,9.3766,9.3688,9.3031,9.2792,9.2335,9.218,9.3193,9.4315,9.5197,9.6938,9.7711,9.7866,9.8446,9.8942,9.8477,9.8214,9.7479,9.6319,9.57,9.5352,9.4934,9.4856,9.5042,9.5707,9.5282,9.4469,9.3843,9.3302,9.2644,9.1909,9.1716,9.1716,9.1716,9.1716,9.1716,9.1716,9.1716,9.1716,9.1716,9.1716,9.1716,9.1723,9.1712,9.1773,9.1822,9.1899,9.1997,9.2065,9.2156,9.2266,9.2348,9.24,9.2496,9.6822,9.6822,9.6822,9.6822,9.6761,9.6582,9.647,9.6437,9.6234,9.6021,9.5807,9.5767,9.5623,9.5407,9.5396,9.5307,9.5027,9.4832,9.4731,9.4705,9.4705,9.4718,9.4731,9.4807,9.4919,9.525,9.5157,9.5075,9.4901,9.4476,9.4124,9.4392,9.3859,9.3995,9.3862,9.3595,9.3459,9.3317,9.2968,9.2815,9.2754,9.2644,9.2516,9.2479,9.2186,9.193,9.1689,9.1693,9.1561,9.15,9.1591,9.1709,9.1709,9.1716,9.1716,9.1716,9.1716,9.187,9.2296,9.2412,9.2567,9.2992,9.3031,9.2799,9.2489,9.2405,9.2211,9.2102,9.2876,9.4075,9.539,9.659,9.7054,9.7131,9.7557,9.7905,9.7673,9.7827,9.7634,9.6396,9.5816,9.5398,9.4972,9.4276,9.4199,9.4817,9.4385,9.3611,9.3773,9.3263,9.276,9.218,9.187,9.1716,9.1716,9.1716,9.1716,9.1716,9.1716,9.1716,9.1716,9.1716,9.1716,9.1723,9.173,9.1712,9.1754,9.179,9.1872,9.1957,9.2047,9.2122,9.2201,9.2305,9.239,9.6707,9.6707,9.6622,9.6598,9.6511,9.615,9.6011,9.5915,9.5581,9.544,9.5295,9.5295,9.5215,9.5157,9.511,9.4931,9.46,9.4283,9.418,9.4165,9.418,9.418,9.4151,9.4199,9.4438,9.5075,9.4782,9.4613,9.4505,9.4255,9.4164,9.451,9.4562,9.444,9.4746,9.4509,9.3973,9.3861,9.3381,9.3101,9.3057,9.2958,9.2891,9.2724,9.2544,9.2239,9.195,9.179,9.1553,9.1253,9.1462,9.1583,9.1613,9.1702,9.1716,9.1716,9.1716,9.1754,9.1832,9.1793,9.1832,9.1716,9.1754,9.1793,9.1793,9.1832,9.1793,9.2102,9.276,9.3882,9.5166,9.6319,9.6706,9.6667,9.6667,9.6822,9.6938,9.7479,9.7286,9.6551,9.5545,9.4895,9.4462,9.3921,9.3889,9.3773,9.3302,9.3108,9.3263,9.3263,9.2799,9.2412,9.2064,9.1754,9.1716,9.1716,9.1716,9.1716,9.1716,9.1716,9.1716,9.1716,9.1716,9.1716,9.1723,9.1705,9.1705,9.1727,9.1792,9.1872,9.1899,9.1943,9.2047,9.2183,9.229,9.6195,9.6168,9.5787,9.5633,9.5633,9.5549,9.5517,9.5506,9.5396,9.5157,9.4844,9.4807,9.46,9.437,9.4241,9.4194,9.4165,9.4044,9.4,9.4,9.4,9.4,9.4,9.4015,9.4137,9.4165,9.418,9.417,9.4165,9.4059,9.4065,9.4137,9.4165,9.4269,9.4273,9.409,9.4016,9.4033,9.3779,9.3677,9.3631,9.3441,9.3157,9.2943,9.2837,9.2635,9.2422,9.1977,9.1749,9.1973,9.1455,9.1181,9.1231,9.1493,9.1591,9.1591,9.1583,9.1561,9.1613,9.1687,9.1702,9.1716,9.1716,9.1716,9.1716,9.1716,9.1716,9.2064,9.2953,9.4121,9.4392,9.5777,9.628,9.6164,9.6396,9.6783,9.686,9.7015,9.6899,9.6203,9.5236,9.4353,9.4037,9.3534,9.307,9.307,9.3031,9.307,9.334,9.3302,9.2992,9.2605,9.218,9.1909,9.1716,9.1716,9.1716,9.1716,9.1716,9.1716,9.1716,9.1716,9.1716,9.1716,9.1716,9.1723,9.1723,9.1716,9.1719,9.1799,9.1773,9.1779,9.1905,9.2053,9.2171,9.5737,9.5716,9.5495,9.5407,9.5363,9.5122,9.5027,9.4979,9.4782,9.4547,9.4383,9.4301,9.4213,9.4059,9.4,9.4,9.4,9.4,9.4,9.4,9.4,9.4,9.4,9.4,9.4,9.4015,9.4015,9.4,9.4,9.4015,9.4,9.4015,9.4,9.4,9.4,9.4021,9.4,9.4,9.4,9.4,9.4,9.3765,9.3585,9.3428,9.3173,9.2983,9.2695,9.2508,9.2199,9.2111,9.1648,9.1365,9.127,9.1134,9.1038,9.1038,9.1065,9.1151,9.1275,9.1361,9.1416,9.1694,9.1709,9.1716,9.1716,9.1716,9.1716,9.1986,9.2683,9.3766,9.4199,9.5429,9.5971,9.628,9.6551,9.6744,9.6899,9.717,9.6822,9.6203,9.5584,9.4849,9.3882,9.3263,9.2373,9.2296,9.2605,9.2992,9.3418,9.3379,9.3186,9.2799,9.2373,9.1909,9.1716,9.1716,9.1716,9.1716,9.1716,9.1716,9.1716,9.1716,9.1716,9.1716,9.1716,9.1716,9.1716,9.1716,9.1716,9.1716,9.1725,9.1747,9.1792,9.1856,9.199,9.5261,9.5261,9.5157,9.511,9.5077,9.4718,9.4547,9.4492,9.417,9.4036,9.4,9.4015,9.403,9.4,9.4,9.4,9.4,9.4,9.4,9.4,9.4,9.4,9.4,9.4,9.4,9.4,9.4,9.4,9.4,9.4,9.4,9.4,9.4,9.4,9.4,9.4,9.4,9.4,9.4,9.4,9.4,9.4,9.4,9.3977,9.3701,9.3337,9.3106,9.2771,9.2653,9.2399,9.2047,9.1615,9.1386,9.0825,9.0411,9.0214,9.0285,9.0558,9.0771,9.1005,9.1218,9.147,9.1634,9.1702,9.1716,9.1716,9.1716,9.187,9.2528,9.3418,9.416,9.5004,9.5855,9.6512,9.6744,9.6822,9.6938,9.717,9.7363,9.6822,9.6164,9.5313,9.4307,9.2915,9.2025,9.2373,9.2683,9.3108,9.3495,9.3572,9.3418,9.2992,9.2528,9.1948,9.1716,9.1716,9.1716,9.1716,9.1716,9.1716,9.1716,9.1716,9.1716,9.1716,9.1716,9.1716,9.1716,9.1716,9.1716,9.1716,9.1716,9.1712,9.1747,9.1785,9.1889,9.4782,9.4731,9.4328,9.418,9.4208,9.4151,9.4094,9.4094,9.4044,9.4,9.4,9.4,9.4,9.4,9.4,9.4,9.4,9.4,9.4,9.4,9.4,9.4,9.4,9.4,9.4,9.4,9.4,9.4,9.4,9.4,9.4,9.4,9.4,9.4,9.4,9.4,9.4,9.4,9.4,9.4,9.4,9.4,9.4,9.3992,9.3937,9.383,9.3602,9.32,9.2919,9.315,9.2519,9.1797,9.1153,9.0925,9.0171,8.9768,8.9844,9.0423,9.0516,9.0685,9.0908,9.1112,9.14,9.1634,9.1716,9.1716,9.1716,9.1754,9.2451,9.3302,9.4121,9.4926,9.5816,9.6435,9.6822,9.6822,9.6899,9.7325,9.7518,9.7557,9.6976,9.5816,9.4701,9.3108,9.1832,9.2335,9.2799,9.3263,9.3495,9.3572,9.3186,9.2644,9.2412,9.187,9.1716,9.1716,9.1716,9.1716,9.1716,9.1716,9.1716,9.1716,9.1716,9.1716,9.1716,9.1716,9.1716,9.1716,9.1716,9.1716,9.1716,9.1716,9.1723,9.1727,9.1773,9.4311,9.4297,9.4079,9.4,9.4,9.4,9.4,9.4,9.4,9.4,9.4,9.4,9.4,9.4,9.4,9.4,9.4,9.4,9.4,9.4,9.4,9.4,9.4,9.4,9.4,9.4,9.4,9.4,9.4,9.4,9.4,9.4,9.4,9.4,9.4,9.4,9.4,9.4,9.4,9.4,9.4,9.4,9.4,9.4,9.4,9.4,9.3888,9.3737,9.3524,9.3581,9.294,9.236,9.1771,9.1116,9.0203,8.9882,8.9561,8.9714,8.9973,9.022,9.0416,9.0704,9.1052,9.1385,9.1605,9.1716,9.1716,9.1716,9.2025,9.2837,9.3889,9.4501,9.5506,9.628,9.6783,9.6822,9.6938,9.7441,9.775,9.7789,9.775,9.6667,9.5623,9.4462,9.3186,9.2799,9.3302,9.3766,9.3727,9.3456,9.2837,9.1986,9.187,9.1754,9.1716,9.1716,9.1716,9.1716,9.1716,9.1716,9.1716,9.1716,9.1716,9.1716,9.1716,9.1716,9.1716,9.1716,9.1716,9.1716,9.1716,9.1716,9.1716,9.1723,9.1734,9.4,9.4,9.4,9.4,9.4,9.4,9.4,9.4,9.4,9.4,9.4,9.4,9.4,9.4,9.4,9.4,9.4,9.4,9.4,9.4,9.4,9.4,9.4,9.4,9.4,9.4,9.4,9.4,9.4,9.4,9.4,9.4,9.4,9.4,9.4,9.4,9.4,9.4,9.4,9.4,9.4,9.4,9.4,9.4,9.4,9.4,9.4,9.3963,9.3977,9.3842,9.3458,9.2946,9.248,9.1706,9.0977,9.0508,8.9984,8.9655,8.9818,8.9916,8.9918,9.0236,9.0724,9.1201,9.1416,9.1598,9.1716,9.1716,9.1754,9.2644,9.3734,9.4237,9.5197,9.6125,9.6822,9.6822,9.686,9.7247,9.7711,9.8021,9.806,9.7982,9.6976,9.5971,9.4888,9.3766,9.3804,9.4353,9.3966,9.3495,9.2605,9.1754,9.1716,9.1716,9.1716,9.1716,9.1716,9.1716,9.1716,9.1716,9.1716,9.1716,9.1716,9.1716,9.1716,9.1716,9.1716,9.1716,9.1716,9.1716,9.1716,9.1716,9.1716,9.1716,9.173,9.4,9.4,9.4,9.4,9.4,9.4,9.4,9.4,9.4,9.4,9.4,9.4,9.4,9.4,9.4,9.4,9.4,9.4,9.4,9.4,9.4,9.4,9.4,9.4,9.4,9.4,9.4,9.4,9.4,9.4,9.4,9.4,9.4,9.4,9.4,9.4,9.4,9.4,9.4,9.4,9.4,9.4,9.4,9.4,9.4,9.4,9.4,9.4,9.4,9.4,9.3813,9.346,9.2934,9.2409,9.1883,9.1357,9.0606,9.0202,9.009,8.9766,8.9715,8.9984,9.0395,9.0872,9.1052,9.1485,9.1634,9.1634,9.1634,9.2528,9.358,9.4385,9.5042,9.6125,9.6822,9.6822,9.6822,9.6822,9.7363,9.8021,9.8253,9.8214,9.8176,9.717,9.6358,9.5274,9.481,9.5282,9.4121,9.3456,9.2451,9.1754,9.1716,9.1716,9.1716,9.1716,9.1716,9.1716,9.1716,9.1716,9.1716,9.1716,9.1716,9.1716,9.1716,9.1716,9.1716,9.1716,9.1716,9.1716,9.1716,9.1716,9.1716,9.1716,9.1716,9.4,9.4,9.4,9.4,9.4,9.4,9.4,9.4,9.4,9.4,9.4,9.4,9.4,9.4,9.4,9.4,9.4,9.4,9.4,9.4,9.4,9.4,9.4,9.4,9.4,9.4,9.4,9.4,9.4,9.4,9.4,9.4,9.4,9.4,9.4,9.4,9.4,9.4,9.4,9.4,9.4,9.4,9.4,9.4,9.4,9.4,9.4,9.4,9.4,9.4,9.4,9.3737,9.3422,9.3009,9.2634,9.2221,9.1432,9.0869,9.0231,8.9765,8.9412,8.9714,9.0053,9.0332,9.0607,9.1026,9.1226,9.1345,9.1568,9.2369,9.385,9.4276,9.4817,9.6164,9.6822,9.6822,9.6822,9.6822,9.7054,9.775,9.8214,9.8408,9.8408,9.833,9.7595,9.686,9.6474,9.5893,9.4733,9.365,9.2721,9.2025,9.1948,9.1754,9.1754,9.1716,9.1716,9.1716,9.1716,9.1716,9.1716,9.1716,9.1716,9.1716,9.1716,9.1716,9.1716,9.1716,9.1716,9.1716,9.1716,9.1716,9.1716,9.1716,9.1716,9.4,9.4,9.4,9.4,9.4,9.4,9.4,9.4,9.4,9.4,9.4,9.4,9.4,9.4,9.4,9.4,9.4,9.4,9.4,9.4,9.4,9.4,9.4,9.4,9.4,9.4,9.4,9.4,9.4,9.4,9.4,9.4,9.4,9.4,9.4,9.4,9.4,9.4,9.4,9.4,9.4,9.4,9.4,9.4,9.4,9.4,9.4,9.4,9.4,9.4,9.4,9.4,9.3775,9.3512,9.316,9.2822,9.2296,9.1545,9.0869,8.9747,8.9259,8.9413,8.9678,8.9915,9.0171,9.0578,9.0826,9.1078,9.1384,9.2233,9.3869,9.4276,9.4972,9.6319,9.6744,9.6822,9.6822,9.6822,9.7092,9.7479,9.7905,9.8369,9.8717,9.8678,9.8214,9.7441,9.6744,9.6164,9.5274,9.423,9.3224,9.2644,9.2296,9.2025,9.1754,9.1793,9.1754,9.1716,9.1716,9.1716,9.1716,9.1716,9.1716,9.1716,9.1716,9.1716,9.1716,9.1716,9.1716,9.1716,9.1716,9.1716,9.1716,9.1716,9.1716,9.4,9.4,9.4,9.4,9.4,9.4,9.4,9.4,9.4,9.4,9.4,9.4,9.4,9.4,9.4,9.4,9.4,9.4,9.4,9.4,9.4,9.4,9.4,9.4,9.4,9.4,9.4,9.4,9.4,9.4,9.4,9.4,9.4,9.4,9.4,9.4,9.4,9.4,9.4,9.4,9.4,9.4,9.4,9.4,9.4,9.4,9.4,9.4,9.4,9.4,9.4,9.4,9.3925,9.3888,9.3775,9.3737,9.3084,9.2671,9.2446,9.0306,8.9437,8.9194,8.94,8.9616,8.9799,9.0105,9.0488,9.0676,9.118,9.2161,9.3315,9.4385,9.539,9.6164,9.6628,9.6822,9.6822,9.6822,9.7054,9.717,9.7634,9.8176,9.8717,9.8949,9.8601,9.7943,9.7131,9.6435,9.5855,9.4888,9.3921,9.334,9.2915,9.2567,9.2296,9.1948,9.1825,9.1754,9.1716,9.1716,9.1716,9.1716,9.1716,9.1716,9.1716,9.1716,9.1716,9.1716,9.1716,9.1716,9.1716,9.1716,9.1716,9.1716,9.1716,9.4,9.4,9.4,9.4,9.4,9.4,9.4,9.4,9.4,9.4,9.4,9.4,9.4,9.4,9.4,9.4,9.4,9.4,9.4,9.4,9.4,9.4,9.4,9.4,9.4,9.4,9.4,9.4,9.4,9.4,9.4,9.4,9.4,9.4,9.4,9.4,9.4,9.4,9.4,9.4,9.4,9.4,9.4,9.4,9.4,9.4,9.4,9.4,9.4,9.4,9.4,9.4,9.4,9.4,9.4,9.4,9.355,9.3272,9.2671,9.1282,9.0118,8.9601,8.9283,8.9458,8.932,8.9678,8.9973,9.0497,9.1327,9.2396,9.3491,9.4636,9.5632,9.6389,9.6822,9.6822,9.6822,9.6822,9.6899,9.6899,9.7209,9.7325,9.7711,9.8794,9.8794,9.8601,9.7866,9.7634,9.717,9.5893,9.4779,9.4199,9.3696,9.3263,9.2915,9.2644,9.218,9.1948,9.1832,9.1716,9.1716,9.1716,9.1716,9.1716,9.1716,9.1716,9.1716,9.1716,9.1716,9.1716,9.1716,9.1716,9.1716,9.1716,9.1716,9.4,9.4,9.4,9.4,9.4,9.4,9.4,9.4,9.4,9.4,9.4,9.4,9.4,9.4,9.4,9.4,9.4,9.4,9.4,9.4,9.4,9.4,9.4,9.4,9.4,9.4,9.4,9.4,9.4,9.4,9.4,9.4,9.4,9.4,9.4,9.4,9.4,9.4,9.4,9.4,9.4,9.4,9.4,9.4,9.4,9.4,9.4,9.4,9.4,9.4,9.4,9.4,9.4,9.4,9.4,9.4,9.3925,9.3498,9.2709,9.2296,9.1169,9.0221,8.9893,8.9855,8.9897,9.0351,9.0562,9.1046,9.1724,9.2736,9.3866,9.501,9.5687,9.6398,9.6776,9.6814,9.6822,9.6822,9.6822,9.6822,9.6822,9.6822,9.6938,9.8098,9.8988,9.8833,9.8671,9.8439,9.8176,9.6822,9.5584,9.505,9.4547,9.4153,9.3804,9.3495,9.2953,9.2257,9.2141,9.2141,9.1716,9.1716,9.1716,9.1716,9.1716,9.1716,9.1716,9.1716,9.1716,9.1716,9.1716,9.1716,9.1716,9.1716,9.1716,9.4,9.4,9.4,9.4,9.4,9.4,9.4,9.4,9.4,9.4,9.4,9.4,9.4,9.4,9.4,9.4,9.4,9.4,9.4,9.4,9.4,9.4,9.4,9.4,9.4,9.4,9.4,9.4,9.4,9.4,9.4,9.4,9.4,9.4,9.4,9.4,9.4,9.4,9.4,9.4,9.4,9.4,9.4,9.4,9.4,9.4,9.4,9.4,9.4,9.4,9.4,9.4,9.4,9.4,9.4,9.4,9.4,9.3498,9.3084,9.2784,9.2484,9.1672,9.1597,9.1559,9.1287,9.1109,9.1202,9.1544,9.2211,9.3262,9.4368,9.4952,9.5551,9.6156,9.6707,9.6768,9.6822,9.6822,9.6822,9.6822,9.6822,9.6822,9.6938,9.7827,9.8717,9.8717,9.8516,9.833,9.7982,9.7325,9.628,9.5816,9.539,9.5088,9.474,9.4307,9.3804,9.3147,9.2992,9.2876,9.2335,9.187,9.187,9.1909,9.1754,9.1716,9.1716,9.1716,9.1716,9.1716,9.1716,9.1716,9.1716,9.1716,9.1716,9.4,9.4,9.4,9.4,9.4,9.4,9.4,9.4,9.4,9.4,9.4,9.4,9.4,9.4,9.4,9.4,9.4,9.4,9.4,9.4,9.4,9.4,9.4,9.4,9.4,9.4,9.4,9.4,9.4,9.4,9.4,9.4,9.4,9.4,9.4,9.4,9.4,9.4,9.4,9.4,9.4,9.4,9.4,9.4,9.4,9.4,9.4,9.4,9.4,9.4,9.4,9.4,9.4,9.4,9.4,9.4,9.4,9.385,9.3662,9.3625,9.3399,9.3174,9.3137,9.2423,9.1972,9.1663,9.1771,9.2196,9.2691,9.3637,9.4354,9.4919,9.5521,9.6082,9.659,9.6776,9.6822,9.6822,9.6822,9.6822,9.6822,9.6822,9.6976,9.7441,9.8214,9.8292,9.8292,9.8098,9.7827,9.7247,9.6822,9.6319,9.6125,9.5816,9.5506,9.512,9.4585,9.4121,9.3921,9.3611,9.2992,9.2567,9.2296,9.2025,9.1793,9.1716,9.1716,9.1716,9.1716,9.1716,9.1716,9.1716,9.1716,9.1716,9.1716,9.4,9.4,9.4,9.4,9.4,9.4,9.4,9.4,9.4,9.4,9.4,9.4,9.4,9.4,9.4,9.4,9.4,9.4,9.4,9.4,9.4,9.4,9.4,9.4,9.4,9.4,9.4,9.4,9.4,9.4,9.4,9.4,9.4,9.4,9.4,9.4,9.4,9.4,9.4,9.4,9.4,9.4,9.4,9.4,9.4,9.4,9.4,9.4,9.4,9.4,9.4,9.4,9.4,9.4,9.4,9.4,9.4,9.4,9.3888,9.3925,9.3963,9.4,9.4,9.3512,9.3024,9.2738,9.27,9.2876,9.3317,9.3815,9.4386,9.4947,9.5525,9.6095,9.6445,9.6761,9.6822,9.6822,9.6822,9.6822,9.6822,9.6822,9.7015,9.7441,9.775,9.7943,9.7982,9.7789,9.7595,9.7286,9.6938,9.6628,9.659,9.6474,9.6164,9.5855,9.5429,9.5011,9.4817,9.4385,9.3727,9.3031,9.2605,9.2141,9.1754,9.1716,9.1754,9.1716,9.1716,9.1716,9.1716,9.1716,9.1716,9.1716,9.1716,9.4,9.4,9.4,9.4,9.4,9.4,9.4,9.4,9.4,9.4,9.4,9.4,9.4,9.4,9.4,9.4,9.4,9.4,9.4,9.4,9.4,9.4,9.4,9.4,9.4,9.4,9.4,9.4,9.4,9.4,9.4,9.4,9.4,9.4,9.4,9.4,9.4,9.4,9.4,9.4,9.4,9.4,9.4,9.4,9.4,9.4,9.4,9.4,9.4,9.4,9.4,9.4,9.4,9.4,9.4,9.4,9.4,9.4,9.4,9.4,9.4,9.4,9.4,9.385,9.3587,9.3475,9.3399,9.3399,9.378,9.3892,9.436,9.4789,9.532,9.5817,9.6234,9.6582,9.6776,9.6776,9.6822,9.6822,9.6822,9.6822,9.6822,9.7209,9.7325,9.7595,9.7595,9.7402,9.7286,9.7131,9.7015,9.6822,9.6783,9.6744,9.6667,9.6358,9.6203,9.5932,9.5661,9.5204,9.4501,9.3688,9.2837,9.2489,9.218,9.187,9.1793,9.1754,9.1716,9.1716,9.1716,9.1716,9.1716,9.1716,9.1716,9.4,9.4,9.4,9.4,9.4,9.4,9.4,9.4,9.4,9.4,9.4,9.4,9.4,9.4,9.4,9.4,9.4,9.4,9.4,9.4,9.4,9.4,9.4,9.4,9.4,9.4,9.4,9.4,9.4,9.4,9.4,9.4,9.4,9.4,9.4,9.3963,9.385,9.3813,9.37,9.37,9.3737,9.3925,9.4,9.4,9.4,9.4,9.4,9.4,9.4,9.4,9.4,9.4,9.4,9.4,9.4,9.4,9.3963,9.3888,9.3963,9.3925,9.3888,9.3963,9.4,9.4,9.3963,9.4,9.4,9.4,9.4044,9.4108,9.4283,9.4654,9.5087,9.557,9.603,9.6412,9.6753,9.6776,9.6822,9.6822,9.6822,9.6822,9.6822,9.686,9.6938,9.6976,9.7015,9.6938,9.7015,9.6899,9.6938,9.6822,9.6822,9.6783,9.6822,9.6783,9.6551,9.6512,9.6319,9.5816,9.5282,9.4501,9.3688,9.3108,9.2714,9.2373,9.2025,9.1716,9.1716,9.1716,9.1716,9.1716,9.1716,9.1716,9.1716,9.4,9.4,9.4,9.4,9.4,9.4,9.4,9.4,9.4,9.4,9.4,9.4,9.4,9.4,9.4,9.4,9.4,9.4,9.4,9.4,9.4,9.4,9.4,9.4,9.4,9.4,9.4,9.4,9.4,9.4,9.4,9.4,9.4,9.3963,9.3925,9.37,9.346,9.3385,9.3174,9.2986,9.3137,9.3475,9.3925,9.4,9.3963,9.3963,9.4,9.4,9.4,9.4,9.4,9.4,9.4,9.4,9.4,9.385,9.3737,9.3587,9.3737,9.37,9.361,9.3775,9.3963,9.3963,9.4,9.4,9.4,9.4,9.4,9.405,9.417,9.4508,9.4954,9.5451,9.5896,9.6322,9.6622,9.6776,9.6822,9.6822,9.6822,9.6822,9.6822,9.6822,9.686,9.686,9.6822,9.6822,9.6822,9.6822,9.6822,9.6822,9.6822,9.6822,9.6822,9.6822,9.6744,9.6783,9.6822,9.6203,9.5545,9.512,9.4578,9.3921,9.3302,9.2799,9.2451,9.2141,9.1793,9.1716,9.1716,9.1716,9.1716,9.1716,9.1716,9.4,9.4,9.4,9.4,9.4,9.4,9.4,9.4,9.4,9.4,9.4,9.4,9.4,9.4,9.4,9.4,9.4,9.4,9.4,9.4,9.4,9.4,9.4,9.4,9.4,9.4,9.4,9.4,9.4,9.4,9.4,9.4,9.3963,9.3925,9.3625,9.3197,9.2784,9.2484,9.216,9.1709,9.216,9.2836,9.3287,9.355,9.37,9.3737,9.3775,9.3813,9.3813,9.4,9.4,9.4,9.4,9.4,9.3775,9.3625,9.316,9.316,9.3197,9.2859,9.316,9.3512,9.3775,9.3925,9.3925,9.4,9.4,9.4,9.4,9.4059,9.418,9.4339,9.4782,9.5295,9.5757,9.6278,9.6528,9.6768,9.6822,9.6822,9.6822,9.6822,9.6822,9.6822,9.6822,9.6822,9.6822,9.6822,9.6822,9.6822,9.6822,9.6822,9.6822,9.6822,9.6822,9.6822,9.6822,9.6822,9.6744,9.6319,9.5932,9.5739,9.5313,9.4578,9.3998,9.3611,9.3031,9.2605,9.2257,9.1948,9.1716,9.1716,9.1716,9.1716,9.1716,9.4,9.4,9.4,9.4,9.4,9.4,9.4,9.4,9.4,9.4,9.3986,9.4,9.4,9.4,9.4,9.4,9.4,9.3986,9.4,9.4,9.3971,9.3986,9.4,9.4,9.4,9.4,9.4,9.4,9.4,9.4,9.4,9.4,9.3925,9.3625,9.2972,9.2559,9.2183,9.177,9.1507,9.1184,9.1296,9.1747,9.186,9.1972,9.1972,9.2371,9.2709,9.2934,9.3399,9.3775,9.4,9.4,9.3925,9.3888,9.3625,9.3235,9.2784,9.2484,9.2371,9.2146,9.2461,9.3047,9.3272,9.3573,9.37,9.4,9.4,9.4,9.4,9.4,9.4065,9.4065,9.4411,9.4991,9.5538,9.6123,9.6598,9.673,9.6822,9.6822,9.6822,9.6822,9.6822,9.6822,9.6822,9.6822,9.6822,9.6822,9.6822,9.6822,9.6822,9.6822,9.6822,9.6822,9.6822,9.6822,9.6822,9.6822,9.6783,9.6512,9.6435,9.659,9.6125,9.539,9.5004,9.4694,9.4075,9.3302,9.2876,9.2521,9.1948,9.1716,9.1716,9.1716,9.1716]}]]